[[{"header":{"parameterUnit":"m.s-1","parameterCategory":1,"la1":30.6,"la2":28.766,"lo1":-90.7593,"lo2":-88.6598,"dx":0.0162,"dy":0.0183,"nx":116,"ny":114,"refTime":"2022-12-13T18:00:00:Z","depth":0,"parameterNumber":2,"parameterNumberName":"U-component_of_WINDS"},"data":[0.0,0.0,0.0,0.0,0.0,0.0,0.0,0.0,0.0,0.0,0.0,0.0,0.0,0.0,0.0,0.0,0.0,0.0,0.0,0.0,0.0,0.0,0.0,0.0,0.0,0.0,0.0,0.0,0.0,0.0,0.0,0.0,0.0,0.0,0.0,0.0,0.0,0.0,0.0,0.0,0.0,0.0,0.0,0.0,0.0,0.0,0.0,0.0,0.0,0.0,0.0,0.0,0.0,0.0,0.0,0.0,0.0,0.0,0.0,0.0,0.0,0.0,0.0,0.0,0.0,0.0,0.0,0.0,0.0,0.0,0.0,0.0,0.0,0.0,0.0,0.0,0.0,0.0,0.0,0.0,0.0,0.0,0.0,0.0,0.0,0.0,0.0,0.0,0.0,0.0,0.0,0.0,0.0,0.0,0.0,0.0,0.0,0.0,0.0,0.0,0.0,0.0,0.0,0.0,0.0,0.0,0.0,0.0,0.0,0.0,0.0,0.0,0.0,0.0,0.0,0.0,0.0,0.0,0.0,0.0,0.0,0.0,0.0,0.0,0.0,0.0,0.0,0.0,0.0,0.0,0.0,0.0,0.0,0.0,0.0,0.0,0.0,0.0,0.0,0.0,0.0,0.0,0.0,0.0,0.0,0.0,0.0,0.0,0.0,0.0,0.0,0.0,0.0,0.0,0.0,0.0,0.0,0.0,0.0,0.0,0.0,0.0,0.0,0.0,0.0,0.0,0.0,0.0,0.0,0.0,0.0,0.0,0.0,0.0,0.0,0.0,0.0,0.0,0.0,0.0,0.0,0.0,0.0,0.0,0.0,0.0,0.0,0.0,0.0,0.0,0.0,0.0,0.0,0.0,0.0,0.0,0.0,0.0,0.0,0.0,0.0,0.0,0.0,0.0,0.0,0.0,0.0,0.0,0.0,0.0,0.0,0.0,0.0,0.0,0.0,0.0,0.0,0.0,0.0,0.0,0.0,0.0,0.0,0.0,0.0,0.0,0.0,0.0,0.0,0.0,0.0,0.0,0.0,0.0,0.0,0.0,0.0,0.0,0.0,0.0,0.0,0.0,0.0,0.0,0.0,0.0,0.0,0.0,0.0,0.0,0.0,0.0,0.0,0.0,0.0,0.0,0.0,0.0,0.0,0.0,0.0,0.0,0.0,0.0,0.0,0.0,0.0,0.0,0.0,0.0,0.0,0.0,0.0,0.0,0.0,0.0,0.0,0.0,0.0,0.0,0.0,0.0,0.0,0.0,0.0,0.0,0.0,0.0,0.0,0.0,0.0,0.0,0.0,0.0,0.0,0.0,0.0,0.0,0.0,0.0,0.0,0.0,0.0,0.0,0.0,0.0,0.0,0.0,0.0,0.0,0.0,0.0,0.0,0.0,0.0,0.0,0.0,0.0,0.0,0.0,0.0,0.0,0.0,0.0,0.0,0.0,0.0,0.0,0.0,0.0,0.0,0.0,0.0,0.0,0.0,0.0,0.0,0.0,0.0,0.0,0.0,0.0,0.0,0.0,0.0,0.0,0.0,0.0,0.0,0.0,0.0,0.0,0.0,0.0,0.0,0.0,0.0,0.0,0.0,0.0,0.0,0.0,0.0,0.0,0.0,0.0,0.0,0.0,0.0,0.0,0.0,0.0,0.0,0.0,0.0,0.0,0.0,0.0,0.0,0.0,0.0,0.0,0.0,0.0,0.0,0.0,0.0,0.0,0.0,0.0,0.0,0.0,0.0,0.0,0.0,0.0,0.0,0.0,0.0,0.0,0.0,0.0,0.0,0.0,0.0,0.0,0.0,0.0,0.0,0.0,0.0,0.0,0.0,0.0,0.0,0.0,0.0,0.0,0.0,0.0,0.0,0.0,0.0,0.0,0.0,0.0,0.0,0.0,0.0,0.0,0.0,0.0,0.0,0.0,0.0,0.0,0.0,0.0,0.0,0.0,0.0,0.0,0.0,0.0,0.0,0.0,0.0,0.0,0.0,0.0,0.0,0.0,0.0,0.0,0.0,0.0,0.0,0.0,0.0,0.0,0.0,0.0,0.0,0.0,0.0,0.0,0.0,0.0,0.0,0.0,0.0,0.0,0.0,0.0,0.0,0.0,0.0,0.0,0.0,0.0,0.0,0.0,0.0,0.0,0.0,0.0,0.0,0.0,0.0,0.0,0.0,0.0,0.0,0.0,0.0,0.0,0.0,0.0,0.0,0.0,0.0,0.0,0.0,0.0,0.0,0.0,0.0,0.0,0.0,0.0,0.0,0.0,0.0,0.0,0.0,0.0,0.0,0.0,0.0,0.0,0.0,0.0,0.0,0.0,0.0,0.0,0.0,0.0,0.0,0.0,0.0,0.0,0.0,0.0,0.0,0.0,0.0,0.0,0.0,0.0,0.0,0.0,0.0,0.0,0.0,0.0,0.0,0.0,0.0,0.0,0.0,0.0,0.0,0.0,0.0,0.0,0.0,0.0,0.0,0.0,0.0,0.0,0.0,0.0,0.0,0.0,0.0,0.0,0.0,0.0,0.0,0.0,0.0,0.0,0.0,0.0,0.0,0.0,0.0,0.0,0.0,0.0,0.0,0.0,0.0,0.0,0.0,0.0,0.0,0.0,0.0,0.0,0.0,0.0,0.0,0.0,0.0,0.0,0.0,0.0,0.0,0.0,0.0,0.0,0.0,0.0,0.0,0.0,0.0,0.0,0.0,0.0,0.0,0.0,0.0,0.0,0.0,0.0,0.0,0.0,0.0,0.0,0.0,0.0,0.0,0.0,0.0,0.0,0.0,0.0,0.0,0.0,0.0,0.0,0.0,0.0,0.0,0.0,0.0,0.0,0.0,0.0,0.0,0.0,0.0,0.0,0.0,0.0,0.0,0.0,0.0,0.0,0.0,0.0,0.0,0.0,0.0,0.0,0.0,0.0,0.0,0.0,0.0,0.0,0.0,0.0,0.0,0.0,0.0,0.0,0.0,0.0,0.0,0.0,0.0,0.0,0.0,0.0,0.0,0.0,0.0,0.0,0.0,0.0,0.0,0.0,0.0,0.0,0.0,0.0,0.0,0.0,0.0,0.0,0.0,0.0,0.0,0.0,0.0,0.0,0.0,0.0,0.0,0.0,0.0,0.0,0.0,0.0,0.0,0.0,0.0,0.0,0.0,0.0,0.0,0.0,0.0,0.0,0.0,0.0,0.0,0.0,0.0,0.0,0.0,0.0,0.0,0.0,0.0,0.0,0.0,0.0,0.0,0.0,0.0,0.0,0.0,0.0,0.0,0.0,0.0,0.0,0.0,0.0,0.0,0.0,0.0,0.0,0.0,0.0,0.0,0.0,0.0,0.0,0.0,0.0,0.0,0.0,0.0,0.0,0.0,0.0,0.0,0.0,0.0,0.0,0.0,0.0,0.0,0.0,0.0,0.0,0.0,0.0,0.0,0.0,0.0,0.0,0.0,0.0,0.0,0.0,0.0,0.0,0.0,0.0,0.0,0.0,0.0,0.0,0.0,0.0,0.0,0.0,0.0,0.0,0.0,0.0,0.0,0.0,0.0,0.0,0.0,0.0,0.0,0.0,0.0,0.0,0.0,0.0,0.0,0.0,0.0,0.0,0.0,0.0,0.0,0.0,0.0,0.0,0.0,0.0,0.0,0.0,0.0,0.0,0.0,0.0,0.0,0.0,0.0,0.0,0.0,0.0,0.0,0.0,0.0,0.0,0.0,0.0,0.0,0.0,0.0,0.0,0.0,0.0,0.0,0.0,0.0,0.0,0.0,0.0,0.0,0.0,0.0,0.0,0.0,0.0,0.0,0.0,0.0,0.0,0.0,0.0,0.0,0.0,0.0,0.0,0.0,0.0,0.0,0.0,0.0,0.0,0.0,0.0,0.0,0.0,0.0,0.0,0.0,0.0,0.0,0.0,0.0,0.0,0.0,0.0,0.0,0.0,0.0,0.0,0.0,0.0,0.0,0.0,0.0,0.0,0.0,0.0,0.0,0.0,0.0,0.0,0.0,0.0,0.0,0.0,0.0,0.0,0.0,0.0,0.0,0.0,0.0,0.0,0.0,0.0,0.0,0.0,0.0,0.0,0.0,0.0,0.0,0.0,0.0,0.0,0.0,0.0,0.0,0.0,0.0,0.0,0.0,0.0,0.0,0.0,0.0,0.0,0.0,0.0,0.0,0.0,0.0,0.0,0.0,0.0,0.0,0.0,0.0,0.0,0.0,0.0,0.0,0.0,0.0,0.0,0.0,0.0,0.0,0.0,0.0,0.0,0.0,0.0,0.0,0.0,0.0,0.0,0.0,0.0,0.0,0.0,0.0,0.0,0.0,0.0,0.0,0.0,0.0,0.0,0.0,0.0,0.0,0.0,0.0,0.0,0.0,0.0,0.0,0.0,0.0,0.0,0.0,0.0,0.0,0.0,0.0,0.0,0.0,0.0,0.0,0.0,0.0,0.0,0.0,0.0,0.0,0.0,0.0,0.0,0.0,0.0,0.0,0.0,0.0,0.0,0.0,0.0,0.0,0.0,0.0,0.0,0.0,0.0,0.0,0.0,0.0,0.0,0.0,0.0,0.0,0.0,0.0,0.0,0.0,0.0,0.0,0.0,0.0,0.0,0.0,0.0,0.0,0.0,0.0,0.0,0.0,0.0,0.0,0.0,0.0,0.0,0.0,0.0,0.0,0.0,0.0,0.0,0.0,0.0,0.0,0.0,0.0,0.0,0.0,0.0,0.0,0.0,0.0,0.0,0.0,0.0,0.0,0.0,0.0,0.0,0.0,0.0,0.0,0.0,0.0,0.0,0.0,0.0,0.0,0.0,0.0,0.0,0.0,0.0,0.0,0.0,0.0,0.0,0.0,0.0,0.0,0.0,0.0,0.0,0.0,0.0,0.0,0.0,0.0,0.0,0.0,0.0,0.0,0.0,0.0,0.0,0.0,0.0,0.0,0.0,0.0,0.0,0.0,0.0,0.0,0.0,0.0,0.0,0.0,0.0,0.0,0.0,0.0,0.0,0.0,0.0,0.0,0.0,0.0,0.0,0.0,0.0,0.0,0.0,0.0,0.0,0.0,0.0,0.0,0.0,0.0,0.0,0.0,0.0,0.0,0.0,0.0,0.0,0.0,0.0,0.0,0.0,0.0,0.0,0.0,0.0,0.0,0.0,0.0,0.0,0.0,0.0,0.0,0.0,0.0,0.0,0.0,0.0,0.0,0.0,0.0,0.0,0.0,0.0,0.0,0.0,0.0,0.0,0.0,0.0,0.0,0.0,0.0,0.0,0.0,0.0,0.0,0.0,0.0,0.0,0.0,0.0,0.0,0.0,0.0,0.0,0.0,0.0,0.0,0.0,0.0,0.0,0.0,0.0,0.0,0.0,0.0,0.0,0.0,0.0,0.0,0.0,0.0,0.0,0.0,0.0,0.0,0.0,0.0,0.0,0.0,0.0,0.0,0.0,0.0,0.0,0.0,0.0,0.0,0.0,0.0,0.0,0.0,0.0,0.0,0.0,0.0,0.0,0.0,0.0,0.0,0.0,0.0,0.0,0.0,0.0,0.0,0.0,0.0,0.0,0.0,0.0,0.0,0.0,0.0,0.0,0.0,0.0,0.0,0.0,0.0,0.0,0.0,0.0,0.0,0.0,0.0,0.0,0.0,0.0,0.0,0.0,0.0,0.0,0.0,0.0,0.0,0.0,0.0,0.0,0.0,0.0,0.0,0.0,0.0,0.0,0.0,0.0,0.0,0.0,0.0,0.0,0.0,0.0,0.0,0.0,0.0,0.0,0.0,0.0,0.0,0.0,0.0,0.0,0.0,0.0,0.0,0.0,0.0,0.0,0.0,0.0,0.0,0.0,0.0,0.0,0.0,0.0,0.0,0.0,0.0,0.0,0.0,0.0,0.0,0.0,0.0,0.0,0.0,0.0,0.0,0.0,0.0,0.0,0.0,0.0,0.0,0.0,0.0,0.0,0.0,0.0,0.0,0.0,0.0,0.0,0.0,0.0,0.0,0.0,0.0,0.0,0.0,0.0,0.0,0.0,0.0,0.0,0.0,0.0,0.0,0.0,0.0,0.0,0.0,0.0,0.0,0.0,0.0,0.0,0.0,0.0,-5.3796,-5.0424,0.0,0.0,0.0,0.0,0.0,0.0,0.0,0.0,0.0,0.0,0.0,0.0,0.0,0.0,0.0,0.0,0.0,0.0,0.0,0.0,0.0,0.0,0.0,0.0,0.0,0.0,0.0,0.0,0.0,0.0,0.0,0.0,0.0,0.0,0.0,0.0,-4.1739,-4.2931,-4.4586,-4.6871,-4.964,-4.8584,-4.7495,-4.6321,0.0,0.0,0.0,0.0,0.0,0.0,0.0,0.0,0.0,0.0,0.0,0.0,0.0,0.0,0.0,0.0,0.0,0.0,0.0,0.0,0.0,0.0,0.0,0.0,0.0,0.0,0.0,0.0,0.0,0.0,0.0,0.0,0.0,0.0,0.0,0.0,0.0,0.0,0.0,0.0,0.0,0.0,0.0,0.0,0.0,0.0,0.0,0.0,0.0,0.0,0.0,0.0,0.0,0.0,0.0,0.0,0.0,0.0,0.0,0.0,0.0,0.0,0.0,0.0,0.0,0.0,0.0,0.0,0.0,0.0,-5.7124,-5.4851,0.0,0.0,0.0,0.0,0.0,0.0,0.0,0.0,0.0,0.0,0.0,0.0,0.0,0.0,0.0,0.0,0.0,0.0,0.0,0.0,0.0,0.0,0.0,-4.2373,-4.4605,-4.5033,-4.7483,-4.8193,0.0,0.0,0.0,0.0,0.0,0.0,-4.1208,-4.3162,-4.5252,-4.7415,-4.967,-5.2639,-5.631,-5.6963,-5.5917,-5.3363,-5.1312,0.0,0.0,0.0,0.0,0.0,0.0,0.0,0.0,0.0,0.0,0.0,0.0,0.0,0.0,0.0,0.0,0.0,0.0,0.0,0.0,0.0,0.0,0.0,0.0,0.0,0.0,0.0,0.0,0.0,0.0,0.0,0.0,0.0,0.0,0.0,0.0,0.0,0.0,0.0,0.0,0.0,0.0,0.0,0.0,0.0,0.0,0.0,0.0,0.0,0.0,0.0,0.0,0.0,0.0,0.0,0.0,0.0,0.0,0.0,0.0,0.0,0.0,0.0,-5.5465,-5.5053,-5.5087,-5.6318,-5.7502,-5.8673,-5.8653,-5.8006,-5.6628,-5.3667,0.0,0.0,0.0,0.0,0.0,0.0,0.0,0.0,0.0,0.0,0.0,0.0,0.0,0.0,0.0,0.0,0.0,0.0,0.0,0.0,0.0,-4.3297,-4.6212,-4.9451,-4.9794,-4.9986,-5.038,0.0,0.0,0.0,0.0,-4.4047,-4.3816,-4.6932,-4.8862,-4.9517,-5.6065,-6.0107,-6.1777,-6.3307,-6.3454,-6.2169,-5.7052,-5.3844,-5.194,0.0,0.0,0.0,0.0,0.0,0.0,0.0,0.0,0.0,0.0,0.0,0.0,0.0,0.0,0.0,0.0,0.0,0.0,0.0,0.0,0.0,0.0,0.0,0.0,0.0,0.0,0.0,0.0,0.0,0.0,0.0,0.0,0.0,0.0,0.0,0.0,0.0,0.0,0.0,0.0,0.0,-5.3775,-5.4715,0.0,0.0,0.0,0.0,0.0,0.0,0.0,0.0,0.0,0.0,0.0,0.0,0.0,-5.8349,-5.7954,-5.926,-5.946,-5.8592,-6.0381,-6.1221,-6.1221,-6.1434,-6.1637,-6.1801,-6.1816,0.0,-5.8589,-5.8124,0.0,0.0,0.0,0.0,0.0,0.0,0.0,0.0,0.0,0.0,0.0,0.0,0.0,0.0,0.0,0.0,0.0,0.0,0.0,0.0,0.0,-4.6506,-4.9221,-5.1795,-5.2696,-5.2599,-5.1307,-5.0007,0.0,0.0,-4.6394,-4.6663,-4.7163,-5.0048,-5.3413,-5.7262,-6.2068,-6.4594,-6.4897,-6.6109,-6.5962,-6.4677,-6.2622,-5.9795,-5.6286,-5.2344,0.0,0.0,0.0,0.0,0.0,0.0,0.0,0.0,0.0,0.0,0.0,0.0,0.0,0.0,0.0,0.0,0.0,0.0,0.0,0.0,0.0,0.0,0.0,0.0,0.0,0.0,0.0,0.0,0.0,0.0,0.0,0.0,0.0,0.0,0.0,0.0,0.0,0.0,0.0,-5.3004,-5.4693,-5.55,-5.5251,-5.4148,0.0,0.0,0.0,0.0,0.0,0.0,0.0,0.0,0.0,-6.1105,-6.12,-6.1487,-6.1954,-6.2158,-6.1798,-6.0926,-6.1907,-6.2381,-6.2415,-6.2995,-6.3232,-6.3266,-6.3497,-6.3057,-6.1975,-5.9877,-5.8051,-5.6427,0.0,0.0,0.0,0.0,-5.4093,-5.4093,0.0,0.0,0.0,0.0,0.0,0.0,0.0,0.0,0.0,0.0,0.0,0.0,-4.6439,-4.9324,-5.192,-5.4163,-5.5203,-5.4969,-5.3082,-5.2053,-5.0515,-4.8298,-4.8548,-4.9163,-5.001,-5.3545,-5.8236,-6.4094,-6.6453,-6.7455,-6.7136,-6.7724,-6.7247,-6.5925,-6.6329,-6.4347,-6.0542,-5.7079,-5.3408,-4.9534,0.0,0.0,0.0,0.0,0.0,0.0,0.0,0.0,0.0,0.0,0.0,0.0,0.0,0.0,0.0,0.0,0.0,0.0,0.0,0.0,0.0,0.0,0.0,0.0,0.0,0.0,0.0,0.0,0.0,0.0,0.0,0.0,0.0,0.0,0.0,0.0,0.0,-5.506,-5.6161,-5.6748,-5.7052,-5.6145,0.0,0.0,0.0,0.0,0.0,0.0,-5.9673,-6.0084,-6.134,-6.3567,-6.3876,-6.4321,-6.4964,-6.4533,-6.3775,-6.2685,-6.2854,-6.2956,-6.299,-6.374,-6.4085,-6.4079,-6.4444,-6.4613,-6.4377,-6.1603,-6.0216,-5.9708,-5.7848,-5.69,-5.663,-5.7374,-5.7306,-5.7239,0.0,0.0,0.0,0.0,0.0,0.0,0.0,0.0,0.0,0.0,0.0,-4.4616,-4.8198,-5.0525,-5.3452,-5.742,-5.6767,-5.6631,-5.7681,-5.4366,-5.2118,-5.1682,-5.0971,-5.0933,-5.1769,-5.8015,-6.3136,-6.6989,-6.8214,-6.8816,-6.8788,-6.8825,-6.8385,-6.754,-6.6806,-6.5925,-6.4751,-6.0652,-5.84,-5.6785,-4.893,0.0,0.0,0.0,0.0,0.0,0.0,0.0,0.0,0.0,0.0,0.0,0.0,0.0,0.0,0.0,0.0,0.0,0.0,0.0,0.0,0.0,0.0,0.0,0.0,0.0,0.0,0.0,0.0,0.0,0.0,0.0,0.0,0.0,0.0,0.0,0.0,0.0,0.0,-6.0162,-5.9704,0.0,0.0,0.0,0.0,-5.7806,-5.8512,-5.9673,-6.1188,-6.2797,-6.4462,-6.6151,-6.702,-6.6642,-6.5032,-6.5642,-6.5122,-6.3463,-6.414,-6.4478,-6.4478,-6.4546,-6.4546,-6.458,-6.458,-6.4613,-6.458,-6.441,-6.3497,-6.2144,-6.1332,-6.0114,-5.893,-5.9674,-5.9911,-6.0216,0.0,0.0,0.0,-4.221,-4.17,-4.1053,-4.059,-4.0355,-4.052,-4.137,-4.3986,-4.7168,-5.0767,-5.329,-5.5806,-5.8543,-5.9421,-5.957,-5.8905,-5.6383,-5.5454,-5.672,-5.4934,-5.5669,-5.948,-6.4136,-6.7021,-6.797,-6.911,-6.9412,-6.8898,-6.8898,-6.8458,-6.7687,-6.7393,-6.71,-6.6659,-6.42,-6.1741,-5.9208,-5.528,-5.0545,0.0,0.0,0.0,0.0,0.0,0.0,0.0,0.0,0.0,0.0,0.0,0.0,0.0,0.0,0.0,0.0,0.0,0.0,0.0,0.0,0.0,0.0,0.0,0.0,0.0,0.0,0.0,0.0,0.0,0.0,0.0,0.0,0.0,0.0,0.0,0.0,0.0,-6.0461,-5.9835,0.0,-5.8866,-6.099,-6.2249,-6.1867,-6.197,-6.2537,-6.366,-6.4266,-6.5171,-6.6338,-6.7741,-6.7579,-6.5709,-6.6488,-6.5962,-6.4208,-6.4478,-6.4613,-6.4613,-6.5087,-6.529,-6.5324,-6.5831,-6.6034,-6.6034,-6.6034,-6.5155,-6.3802,-6.3531,-6.3091,-6.2651,-6.2888,-6.299,-6.3125,0.0,-4.2277,0.0,-4.3858,-4.3182,-4.2486,-4.2448,-4.247,-4.2912,-4.4115,-4.7009,-5.0172,-5.323,-5.5968,-5.8259,-5.9971,-6.1448,-6.2007,-6.1296,-5.8935,-5.827,-5.9885,-5.8422,-5.9849,-6.4706,-6.7535,-6.8817,-6.8568,-6.9336,-6.9412,-6.8898,-6.8605,-6.8201,-6.7687,-6.7687,-6.7687,-6.7614,-6.6549,-6.4714,-6.2254,-5.9795,-5.5574,-5.0452,0.0,0.0,0.0,0.0,0.0,0.0,0.0,0.0,0.0,0.0,0.0,0.0,0.0,0.0,0.0,0.0,0.0,0.0,0.0,0.0,0.0,0.0,0.0,0.0,0.0,0.0,0.0,0.0,0.0,0.0,0.0,0.0,0.0,0.0,-6.119,-6.2739,-6.1306,-6.154,-6.1458,-6.0535,-6.2556,-6.3954,-6.3954,-6.3799,-6.4076,-6.4915,-6.5556,-6.6388,-6.7559,-6.869,-6.8677,-6.7451,-6.7614,-6.6912,-6.5449,-6.5352,-6.5358,-6.5358,-6.5831,-6.6068,-6.6102,-6.6609,-6.6812,-6.6812,-6.6812,-6.6237,-6.5324,-6.5053,-6.4952,-6.4952,-6.4681,-6.4613,-6.4647,-4.147,-4.1846,-4.2431,-4.4085,-4.3852,-4.3515,-4.3933,-4.4761,-4.5776,-4.6989,-5.0393,-5.3489,-5.5508,-5.8372,-6.0623,-6.1802,-6.2671,-6.3716,-6.4969,-6.188,-6.0297,-6.0873,-6.1325,-6.3251,-6.6858,-6.7958,-6.863,-6.8889,-6.8926,-6.8926,-6.8862,-6.8054,-6.7687,-6.7687,-6.7687,-6.7687,-6.7687,-6.7687,-6.7247,-6.6182,-6.2218,-5.9612,-5.7519,0.0,0.0,0.0,0.0,0.0,0.0,0.0,0.0,0.0,0.0,0.0,0.0,0.0,0.0,0.0,0.0,0.0,0.0,0.0,0.0,0.0,0.0,0.0,0.0,0.0,0.0,0.0,0.0,0.0,0.0,0.0,0.0,0.0,-6.2071,-6.3172,-6.3943,-6.3012,-6.4992,-6.5436,-6.3005,-6.3328,-6.3755,-6.379,-6.379,-6.4138,-6.4975,-6.667,-6.8378,-6.9926,-7.0069,-7.0062,-6.9967,-6.9089,-6.815,-6.7153,-6.695,-6.6854,-6.6854,-6.6846,-6.6846,-6.6846,-6.6846,-6.6846,-6.6846,-6.6812,-6.6812,-6.6745,-6.6,-6.573,-6.5628,-6.4918,-6.4681,-6.4783,-4.1585,-4.3278,-4.4893,-4.6009,-4.5837,-4.5567,-4.5693,-4.6228,-4.6958,-4.7913,-5.097,-5.3974,-5.6361,-5.9277,-6.1263,-6.184,-6.387,-6.4838,-6.4184,-6.191,-6.1274,-6.2824,-6.7136,-6.9469,-6.9481,-7.039,-7.0128,-6.8618,-6.9212,-6.8997,-6.8017,-6.7797,-6.7687,-6.7687,-6.7687,-6.7687,-6.7687,-6.7687,-6.7577,-6.721,-6.5521,-6.3135,-6.0309,0.0,0.0,0.0,0.0,0.0,0.0,0.0,0.0,0.0,0.0,0.0,0.0,0.0,0.0,0.0,0.0,0.0,0.0,0.0,0.0,0.0,0.0,0.0,0.0,0.0,0.0,0.0,0.0,0.0,0.0,0.0,-6.3209,-6.5742,-6.4457,-6.6182,-6.7058,-6.5589,-6.5981,-6.5838,-6.45,-6.4511,-6.4877,-6.5475,-6.551,-6.6169,-6.765,-6.8206,-6.8947,-7.0054,-7.0446,-7.023,-6.9269,-7.0682,-7.0332,-6.8253,-6.7985,-6.7827,-6.7787,-6.7664,-6.759,-6.759,-6.759,-6.759,-6.7557,-6.7015,-6.6812,-6.6779,-6.6576,-6.6508,-6.6474,-6.6271,-6.6203,-6.6237,-4.2162,-4.4085,-4.5979,-4.7201,-4.742,-4.7471,-4.765,-4.8322,-4.9239,-5.0265,-5.2958,-5.5611,-5.7797,-6.0512,-6.2261,-6.2467,-6.4597,-6.5397,-6.4207,-6.3361,-6.3961,-6.6287,-6.968,-7.1143,-7.0217,-7.0705,-7.0037,-6.8136,-6.8617,-6.8476,-6.7687,-6.7687,-6.7687,-6.7687,-6.7687,-6.7687,-6.7687,-6.7687,-6.7687,-6.765,-6.7173,-6.5668,-6.3466,-6.1887,-5.9575,-5.7042,-5.5537,-5.4509,-5.3849,-5.3959,0.0,0.0,0.0,0.0,0.0,0.0,0.0,0.0,0.0,0.0,0.0,0.0,0.0,0.0,0.0,0.0,0.0,0.0,0.0,0.0,0.0,0.0,0.0,0.0,-6.6586,-6.8752,-6.7944,-6.8458,-6.855,-6.7578,-6.7157,-6.6729,-6.6181,-6.6128,-6.6264,-6.676,-6.7118,-6.788,-6.925,-6.9521,-7.0274,-7.1578,-7.1586,-7.1428,-7.1132,-7.2001,-7.1906,-7.0975,-7.0196,-6.9817,-6.9815,-6.9279,-6.9062,-6.902,-6.8583,-6.8402,-6.8368,-6.7963,-6.776,-6.7726,0.0,0.0,0.0,0.0,-6.7015,-6.7252,-4.3085,-4.4586,-4.6201,-4.7702,-4.8301,-4.875,-4.9202,-5.038,-5.1729,-5.3172,-5.5462,-5.7692,-5.9435,-6.182,-6.3308,-6.3308,-6.4897,-6.5551,-6.4782,-6.5667,-6.7313,-6.9845,-7.0137,-7.0157,-6.9985,-6.9803,-6.9123,-6.7852,-6.7852,-6.781,-6.7687,-6.7687,-6.7687,-6.7687,-6.7687,-6.7687,-6.7687,-6.7687,-6.7687,-6.7687,-6.7687,-6.7247,-6.6476,-6.4934,-6.3906,-6.289,-6.0689,-5.9428,-5.8731,-5.8107,0.0,0.0,0.0,0.0,0.0,0.0,0.0,0.0,0.0,0.0,0.0,0.0,0.0,0.0,0.0,0.0,0.0,0.0,0.0,0.0,0.0,0.0,0.0,0.0,-7.0403,-7.2275,-7.1541,-7.0146,-6.9155,-6.9045,-6.8311,-6.7871,-6.7944,-6.7833,-6.7849,-6.7994,-6.8681,-6.9441,-7.0237,-7.08,0.0,0.0,0.0,-7.3083,-7.392,-7.3083,-7.3269,-7.4446,-7.2973,-7.2263,-7.2227,-7.1326,-7.0809,-7.0684,-6.9756,-6.9345,-6.9214,-6.9147,-6.9113,-6.8977,-6.759,-6.7083,-6.7083,-6.7083,-6.7489,-6.803,-4.4047,-4.547,-4.674,-4.7086,-4.7194,-4.7521,-4.8231,-4.974,-5.1652,-5.3962,-5.5857,-5.7896,-6.0281,-6.2204,-6.3308,-6.3308,-6.4897,-6.582,-6.5667,-6.709,-6.8258,-6.901,-7.0383,-7.1114,-7.101,-7.0345,-6.9682,-6.8978,-6.8978,-6.8558,-6.7687,-6.7687,-6.7687,-6.7687,-6.7687,-6.7687,-6.7687,-6.7687,-6.7687,-6.7687,-6.7687,-6.7614,-6.7357,-6.6402,-6.5925,-6.5632,-6.453,-6.4016,-6.398,-6.4457,-6.2768,-6.0529,-6.119,-5.9538,0.0,0.0,0.0,0.0,0.0,0.0,0.0,0.0,0.0,0.0,0.0,0.0,0.0,0.0,0.0,0.0,0.0,0.0,0.0,-6.7604,-7.0403,-7.2459,-7.2312,-7.1468,-7.0624,-6.9963,-6.9155,-6.8935,-6.9559,-6.9017,-6.9189,-7.047,-7.0726,-7.1165,-7.1963,-7.2116,-7.2386,-7.2716,-7.3406,-7.3487,-7.2812,-7.4292,-7.5599,-7.6674,-7.4316,0.0,-7.3207,-7.2866,-7.2283,-7.148,-7.1276,-7.072,-6.9925,-6.935,-6.9113,-6.9079,-6.8774,-6.8673,-6.8673,-6.8673,-6.8741,-6.8876,-4.5047,-4.6009,-4.6885,-4.6885,-4.7231,-4.7778,-4.8625,-5.0202,-5.2202,-5.478,-5.6203,-5.778,-5.9935,-6.0165,-6.0319,-6.0781,-6.2358,-6.4051,-6.5782,-6.7475,-6.8911,-7.0057,-7.1188,-7.1319,-7.0327,-6.9929,-6.9452,-6.8891,-6.8614,-6.821,-6.7714,-6.7982,-6.7956,-6.7714,-6.7982,-6.7956,-6.7687,-6.7687,-6.7687,-6.7687,-6.7687,-6.7687,-6.765,-6.7247,-6.71,-6.7026,-6.6659,-6.6512,-6.6549,-6.6953,-6.5999,-6.464,-6.464,-6.3282,-6.108,0.0,0.0,0.0,0.0,0.0,0.0,0.0,0.0,0.0,0.0,0.0,0.0,0.0,0.0,-6.4035,-6.3966,0.0,-6.8678,-6.9889,-7.1468,-7.2496,-7.2496,-7.2165,-7.1615,-7.0807,-7.0367,-7.0257,-7.066,-7.1064,-7.1468,-7.1872,-7.2275,-7.2496,-7.2496,-7.301,-7.3259,-7.3083,-7.428,-7.4617,-7.4118,-7.5315,-7.6367,-7.7266,-7.6011,-7.5393,-7.5398,-7.4789,-7.4224,-7.3706,-7.2694,-7.1988,-7.1431,-7.0551,-7.0195,-7.0195,-7.0195,-6.9755,-6.9113,-6.9113,-6.9316,-6.9654,-4.5518,-4.5893,-4.6471,-4.6624,-4.7163,-4.7894,-4.8779,-5.0202,-5.2077,-5.4626,-5.5703,-5.6819,-5.8357,-5.7319,-5.6934,-5.7973,-5.9742,-6.2243,-6.5667,-6.7475,-6.926,-7.1238,-7.1741,-7.1222,-6.9664,-6.9511,-6.9135,-6.8435,-6.7988,-6.7624,-6.7384,-6.7946,-6.7932,-6.7553,-6.8129,-6.8132,-6.7749,-6.7804,-6.7863,-6.7863,-6.7767,-6.7687,-6.7687,-6.7687,-6.7687,-6.7687,-6.7687,-6.7687,-6.7687,-6.7687,-6.7687,-6.7577,-6.6953,-6.6512,-6.5485,-6.1741,-6.1557,0.0,0.0,0.0,0.0,0.0,0.0,0.0,0.0,-6.2328,-6.3105,-6.3482,-6.5214,-6.6875,-6.7389,-6.8661,-7.0257,-7.2202,-7.2496,-7.2496,-7.2496,-7.2496,-7.2312,-7.1835,-7.1651,-7.1688,-7.1953,-7.3046,-7.345,-7.287,-7.3523,-7.3634,-7.301,-7.392,-7.4434,-7.4397,-7.5602,-7.608,-7.5719,-7.6276,-7.6821,-7.7316,-7.7298,-7.7273,-7.7273,-7.6465,-7.5993,-7.5684,-7.3655,-7.2797,-7.2714,-7.1732,-7.1312,-7.1312,-7.1312,-7.0567,-6.9519,-6.9519,-6.9891,-7.0398,-4.4624,-4.4509,-4.4816,-4.5594,-4.5825,-4.6163,-4.7048,-4.7971,-4.9433,-5.2,-5.3087,-5.3972,-5.4934,-5.4895,-5.5434,-5.7,-5.9396,-6.2243,-6.5667,-6.7475,-6.914,-7.0882,-7.0986,-7.0934,-7.0734,-7.0266,-6.9377,-6.812,-6.8019,-6.7348,-6.6198,-6.6737,-6.6944,-6.6941,-6.77,-6.8039,-6.7994,-6.8292,-6.8392,-6.8368,-6.7878,-6.7687,-6.7687,-6.7687,-6.7687,-6.7687,-6.7687,-6.7687,-6.7687,-6.7687,-6.7687,-6.7677,-6.7577,-6.8458,-6.9045,-6.6439,-6.5815,-6.5228,-6.1851,-6.0676,-6.0713,-6.1961,-6.2989,-6.4787,0.0,-6.9009,-6.8688,-7.0804,-7.1484,-7.1733,-7.1793,-7.1961,-7.2202,-7.2459,-7.2496,-7.2496,-7.2496,-7.2496,-7.2716,-7.334,-7.2789,-7.2936,-7.4368,-7.4001,-7.3751,-7.3912,-7.4448,-7.4735,-7.4661,-7.5432,-7.616,-7.6875,-7.7806,-7.7426,-7.5727,-7.7426,-7.7965,-7.7304,-7.7304,-7.7273,-7.731,-7.7181,-7.6628,-7.5684,-7.3655,-7.2797,-7.2714,-7.1732,-7.1312,-7.1312,-7.1312,-7.121,-7.1075,-7.1075,-7.1109,-7.1176,-4.5133,-4.5056,-4.5171,-4.5556,-4.5171,-4.5124,-4.6009,-4.7278,-4.8856,-5.0933,-5.151,-5.2049,-5.2895,-5.2125,-5.1625,-5.1808,-5.5511,-5.9281,-6.2704,-6.5436,-6.7936,-7.0129,-7.0206,-7.0437,-7.0898,-6.9865,-6.9095,-6.8522,-6.7713,-6.7002,-6.6495,-6.7033,-6.7107,-6.6821,-6.7485,-6.76,-6.7291,-6.7443,-6.7487,-6.7482,-6.7428,-6.759,-6.785,-6.7746,-6.8097,-6.8483,-6.7388,-6.7152,0.0,-6.7432,-6.7765,-6.8185,-6.8691,-6.8472,-6.7797,-6.6806,-6.6512,-6.6623,-6.71,-6.5962,-6.5044,-6.6659,-6.7687,-6.8715,-7.0257,-7.0073,-6.9969,-7.1393,-7.2101,-7.2314,-7.1794,-7.213,-7.2496,-7.2496,-7.2899,-7.3193,-7.3193,-7.3597,-7.4221,-7.4992,-7.4808,-7.4882,-7.5542,-7.5726,-7.5622,-7.5292,-7.5903,-7.608,-7.5616,-7.6387,-7.7157,-7.8027,-7.8877,-7.8888,-7.8092,-7.8411,-7.8405,-7.8075,-7.7561,-7.7818,-7.8736,-7.8259,-7.7523,-7.6403,-7.4983,-7.3757,-7.2714,-7.1732,-7.1312,-7.1312,-7.1312,-7.1312,-7.1312,-7.1312,-7.1312,-7.1401,-4.5287,-4.5248,-4.5171,-4.494,-4.4586,-4.4586,-4.5479,-4.6624,-4.7932,-4.9471,-4.9663,-4.9779,-5.0125,-4.9086,-4.8279,-4.8125,-5.2356,-5.6665,-6.055,-6.3782,-6.6667,-6.9244,-6.936,-6.9513,-6.9821,-6.8702,-6.7866,-6.7409,-6.644,-6.5879,-6.5671,-6.6423,-6.657,-6.621,-6.7098,-6.7256,-6.6893,-6.6975,-6.7033,-6.7014,-6.7294,-6.7637,-6.8005,-6.8105,-6.8352,-6.8416,-6.6876,-6.669,-6.6979,-6.6306,-6.6642,-6.733,-6.7726,-6.7158,-6.6404,-6.6625,-6.6423,-6.6623,-6.8752,-6.8531,-6.8128,-6.9963,-7.1394,-7.2092,-7.1284,-7.1101,-7.1178,-7.1422,-7.2041,-7.2285,-7.1604,-7.2041,-7.2569,-7.2789,-7.3303,-7.378,-7.4001,-7.4551,-7.5212,-7.6019,-7.6093,-7.6203,-7.6423,-7.6943,-7.7053,-7.6497,-7.7182,-7.7439,-7.6931,-7.7818,-7.8626,-7.925,-8.0021,-8.0351,-8.0131,-7.9543,-7.914,-7.8919,-7.8295,-7.8736,-8.0094,-7.9286,-7.8528,-7.7683,-7.6445,-7.5009,-7.3444,-7.245,-7.176,-7.1312,-7.1312,-7.1312,-7.1312,-7.1312,-7.1312,-7.1457,-4.4509,-4.4355,-4.4085,-4.3316,-4.3816,-4.4586,-4.5479,-4.5633,-4.6009,-4.6894,-4.7,-4.6701,-4.5902,-4.5748,-4.6355,-4.7971,-5.1279,-5.5434,-6.0473,-6.3205,-6.5782,-6.8308,-6.8423,-6.8052,-6.7244,-6.6659,-6.5563,-6.3939,-6.3908,-6.3511,-6.278,-6.4063,-6.468,-6.4744,-6.6385,-6.7115,-6.7114,-6.7454,-6.7567,-6.7609,-6.7846,-6.799,-6.8085,-6.8932,-6.8234,-6.6817,-6.6217,-6.6357,-6.6442,-6.3953,-6.367,-6.4217,-6.3445,-6.4507,-6.6175,-6.6955,-6.631,-6.5191,-6.4494,-6.5962,-6.8274,-7.0697,-7.3017,-7.4588,-7.378,-7.3597,-7.3377,-7.2614,-7.2467,-7.2496,-7.2467,-7.2467,-7.2753,-7.3523,-7.367,-7.3964,-7.4771,-7.4882,-7.5212,-7.6019,-7.6093,-7.6423,-7.7163,-7.7273,-7.7273,-7.7273,-7.8081,-7.8662,-7.8877,-8.0167,-8.0901,-8.0938,-8.1709,-8.1746,-8.0975,-8.0938,-8.0534,-7.9764,-7.9727,-8.0167,-8.0938,-8.0131,-7.9764,-7.9627,-7.7754,-7.6374,-7.5331,-7.4333,-7.2889,-7.1312,-7.1312,-7.1312,-7.1312,-7.1312,-7.1312,-7.1457,-4.521,-4.5171,-4.5094,-4.4825,-4.4979,-4.5248,-4.5556,-4.5594,-4.571,-4.6009,-4.6047,0.0,0.0,0.0,0.0,0.0,-4.9894,-5.3203,-5.7165,-6.0319,-6.2974,-6.4923,-6.6128,-6.659,-6.632,-6.5536,-6.4907,-6.4331,-6.3742,-6.3321,-6.3065,-6.3527,-6.3743,-6.3782,-6.4936,-6.5128,-6.4615,-6.5344,-6.5277,-6.4813,-6.5667,-6.6559,-6.7477,-6.8168,-6.786,-6.6789,0.0,-6.4285,-6.3816,-6.3019,-6.323,-6.401,-6.492,-6.4423,-6.3535,-6.3477,-6.4352,-6.5815,-6.8238,-6.9853,-7.1578,-7.4522,-7.5506,-7.5616,-7.5359,-7.4478,-7.378,-7.4037,-7.323,-7.2679,-7.3193,-7.2863,-7.2753,-7.356,-7.4147,-7.4771,-7.5579,-7.6166,-7.6576,-7.6864,-7.69,-7.698,-7.7273,-7.7273,-7.7273,-7.7273,-7.8259,-7.9061,-7.9501,-8.0461,-8.1232,-8.1782,-8.2039,-8.2076,-8.1782,-8.1269,-8.1122,-8.1415,-8.248,-8.2553,-8.1819,-8.2627,-8.2113,-8.0539,-7.9201,-7.8135,-7.7199,-7.5617,-7.4632,-7.3985,-7.2789,-7.2279,-7.239,-7.2914,-7.3086,-7.3257,-4.5594,-4.5594,-4.5594,-4.5594,-4.5594,0.0,0.0,0.0,0.0,0.0,0.0,0.0,0.0,0.0,0.0,0.0,0.0,-5.1202,-5.4587,-5.7165,-5.955,-6.1858,-6.2435,-6.2858,-6.3166,-6.2012,-6.1704,-6.2358,-6.1781,-6.182,-6.2397,-6.2743,-6.2858,-6.2897,-6.3782,-6.382,-6.3346,-6.3897,-6.4012,-6.3795,-6.4211,-6.4942,-6.5731,-6.5862,-6.5108,0.0,-6.2344,-6.1062,-6.013,-6.0464,-6.1291,-6.2319,-6.2986,-6.2785,-6.2249,-6.2058,-6.3796,-6.6623,-7.066,-7.2129,-7.3266,-7.6503,-7.6937,-7.646,-7.6166,-7.5285,-7.4625,-7.4845,-7.3634,-7.2753,-7.356,-7.3046,-7.2863,-7.3964,-7.4808,-7.5616,-7.6423,-7.6974,-7.7273,-7.7273,-7.7273,-7.7273,-7.7273,-7.7671,-7.7855,-7.7781,-7.8699,-7.9543,-8.0204,-8.0975,-8.1672,-8.2186,-8.2186,-8.2186,-8.2186,-8.1966,-8.226,-8.3067,-8.4095,-8.3911,-8.2663,-8.3398,-8.2884,-8.1383,-8.0451,-7.9677,-7.8999,-7.7841,-7.6925,-7.6222,-7.4738,-7.4216,-7.4251,-7.4461,-7.5164,-7.6023,-4.5671,-4.5748,-4.5787,0.0,0.0,0.0,0.0,0.0,0.0,0.0,0.0,0.0,0.0,0.0,0.0,0.0,0.0,0.0,-5.2741,-5.3857,-5.5818,-5.905,-5.7742,-5.7319,-5.8165,-5.6549,-5.6511,-5.8165,-5.8204,-5.905,-6.0627,-6.1485,-6.1908,-6.1947,-6.2743,-6.3077,-6.3051,-6.3077,-6.3551,-6.4128,-6.3358,-6.3051,-6.2974,-6.2243,-6.0396,-5.8242,-5.828,-5.7165,-5.5857,-5.683,-5.8346,-5.9648,-5.8453,-6.0148,-6.2695,-6.3015,-6.4861,-6.765,-7.1505,-7.2642,-7.3487,-7.654,-7.7273,-7.709,-7.635,-7.613,-7.5873,-7.5028,-7.356,-7.2642,-7.334,-7.2899,-7.2973,-7.4515,-7.5506,-7.6387,-7.7163,-7.7273,-7.7273,-7.7273,-7.7273,-7.731,-7.7347,-7.8363,-7.8914,-7.8736,-7.9407,-8.0177,-8.0975,-8.1746,-8.2186,-8.2186,-8.2186,-8.2186,-8.2186,-8.303,-8.3838,-8.4609,-8.4679,-8.4272,-8.3427,-8.2688,-8.232,-8.2215,-8.148,-8.1023,-8.084,-8.084,-7.9787,-7.809,-7.7231,-7.6876,-7.6769,-7.6057,-7.7336,-7.9395,0.0,0.0,0.0,0.0,0.0,0.0,0.0,0.0,0.0,0.0,0.0,0.0,0.0,0.0,0.0,0.0,0.0,0.0,-4.9317,-5.1395,-5.3241,-5.4741,-5.5588,-5.6126,-5.6357,-5.5934,-5.5934,-5.6357,-5.7011,-5.7561,-5.7984,-5.8858,-5.9281,-5.9319,-6.0127,-6.0127,-5.9627,-6.0204,-5.9896,-5.8973,-5.9396,-5.9588,-5.9627,-6.0012,-5.8973,-5.7423,-5.8088,-5.7165,-5.6011,-5.8165,-6.1377,-6.4524,-6.4702,-6.5717,-6.6922,-6.7247,-6.9082,-7.1321,-7.2936,-7.4698,-7.6246,-7.709,-7.7273,-7.7237,-7.7017,-7.6533,-7.5689,-7.4294,-7.2753,-7.1321,-7.033,-7.0954,-7.1945,-7.2973,-7.4632,-7.6136,-7.7163,-7.7273,-7.7273,-7.7273,-7.7273,-7.7567,-7.8191,-7.8516,-7.9176,-8.0314,-8.0576,-8.0759,-8.1012,-8.1746,-8.2186,-8.2186,-8.2186,-8.2186,-8.2186,-8.3581,-8.4389,-8.4609,-8.5704,-8.5503,-8.416,-8.4442,-8.3975,-8.2972,-8.3351,-8.3224,-8.2696,-8.2696,-8.2413,-8.1843,-8.0298,-7.9285,-7.8818,-7.9214,-7.9432,-7.9646,0.0,0.0,0.0,0.0,0.0,0.0,0.0,0.0,0.0,0.0,0.0,0.0,0.0,0.0,0.0,0.0,0.0,0.0,0.0,-4.8923,-5.0231,-5.1471,-5.1741,-5.2164,-5.2933,-5.2549,-5.3087,-5.4587,-5.5088,-5.5895,-5.6983,-5.7126,-5.7165,-5.7165,-5.7627,-5.7588,-5.7203,-5.7627,-5.7511,0.0,0.0,-5.6626,-5.6626,-5.6703,-5.5934,-5.4923,-5.6165,-5.7665,-5.9412,-6.1684,-6.4244,-6.6541,-6.7053,-6.7851,-6.8871,-7.0083,-7.1688,-7.3377,-7.4882,-7.6276,-7.7273,-7.7273,-7.751,-7.7393,-7.6006,-7.5588,-7.4764,-7.2141,-7.0587,-6.9449,-6.8531,-7.0,-7.1403,-7.1749,-7.4382,-7.6613,-7.72,-7.7273,-7.7273,-7.7273,-7.7745,-7.8222,-7.8736,-7.9612,-8.0383,-8.0975,-8.1012,-8.1158,-8.1525,-8.1929,-8.2186,-8.2186,-8.2186,-8.2553,-8.3251,-8.4168,-8.4792,-8.5123,-8.5893,-8.5805,-8.4932,-8.4865,-8.4625,-8.4261,-8.4381,-8.4423,-8.4462,-8.4462,-8.4462,-8.4318,-8.2963,-8.2135,-8.1698,-8.1443,-8.1298,-8.1294,0.0,0.0,0.0,0.0,0.0,0.0,0.0,0.0,0.0,-4.6941,-4.6287,-4.5941,-4.5941,-4.5941,0.0,0.0,0.0,0.0,0.0,0.0,-4.7663,-4.9317,-4.7894,-4.7778,-4.9356,-4.8663,-4.974,-5.2702,-5.2933,-5.4164,-5.6329,-5.5665,-5.5357,-5.5357,-5.5357,-5.5357,-5.5357,-5.5357,-5.5742,-5.6214,-5.4857,-5.4241,-5.4087,0.0,-5.2731,-5.2308,-5.4164,-5.8396,-6.3489,-6.5864,-6.7161,-6.783,-6.8232,-6.9107,-7.044,-7.2532,-7.3634,-7.4625,-7.6723,-7.7273,-7.7273,-7.7273,-7.7826,-7.7523,-7.4543,-7.4218,-7.3387,-6.9392,-6.7944,-6.7283,-6.7063,-6.9119,-7.0824,-7.0959,-7.4529,-7.7298,-7.7304,-7.7273,-7.7347,-7.7494,-7.84,-7.9024,-7.9244,-8.0961,-8.1806,-8.1195,-8.1158,-8.1452,-8.215,-8.2186,-8.2186,-8.2186,-8.2186,-8.2957,-8.4572,-8.4609,-8.5006,-8.5765,-8.5781,-8.5665,-8.5508,-8.4795,-8.4858,-8.5562,-8.4973,-8.5108,-8.5783,-8.593,-8.5967,-8.5894,-8.5196,-8.4866,-8.4572,-8.3177,-8.2994,-8.3324,0.0,0.0,0.0,0.0,0.0,0.0,0.0,0.0,0.0,0.0,-4.9856,-4.7663,0.0,0.0,0.0,0.0,0.0,0.0,0.0,0.0,0.0,-4.9317,-4.8432,-4.8355,-4.9394,-4.924,-4.9471,-5.0048,-5.1471,-5.2346,-5.2808,-5.3356,-5.3626,-5.3626,-5.3626,-5.3626,-5.3626,-5.3626,-5.3318,-5.2808,-5.3241,-5.301,-5.2423,-5.2972,-5.3126,0.0,-5.5703,-5.9061,-6.2925,-6.6987,-7.0365,-7.3003,-7.3989,-7.5014,-7.5916,-7.6319,-7.654,-7.676,-7.7163,-7.7273,-7.7273,-7.7273,-7.7826,-7.7672,-7.5242,-7.4144,-7.2334,-6.7847,-6.6292,-6.5301,-6.3906,-6.6219,-6.8972,-7.0926,-7.4661,-7.7296,-7.7304,-7.7273,-7.7671,-7.8589,-7.8699,-7.9181,-8.0511,-8.0979,-8.1415,-8.1929,-8.2003,-8.2039,-8.2186,-8.2186,-8.2186,-8.2186,-8.2186,-8.2957,-8.4572,-8.4609,-8.4972,-8.5632,-8.6189,-8.5989,-8.5225,-8.559,-8.5634,-8.5447,-8.6011,-8.6064,-8.5857,-8.6518,-8.6811,-8.6775,-8.6664,-8.6187,-8.5563,-8.527,-8.4425,-8.3398,0.0,0.0,0.0,0.0,0.0,0.0,0.0,-5.2664,-5.3741,-5.6703,-5.5318,-5.3203,-5.101,-4.9163,-4.7932,0.0,0.0,0.0,0.0,0.0,0.0,-4.8702,-4.8317,-4.8317,-4.8702,-4.9163,-4.9625,-5.0087,0.0,-5.151,-5.1885,-5.1895,-5.1895,-5.1895,-5.1895,-5.1895,-5.1933,-5.2356,-5.2269,-5.1962,-5.2856,-5.2972,-5.2654,-5.3549,-5.4126,0.0,-5.6896,-5.9858,-6.3142,-6.5747,-7.0192,-7.4888,-7.6432,-7.7356,-7.7826,-7.7826,-7.757,-7.7273,-7.7273,-7.7273,-7.7273,-7.7273,-7.8035,-7.7704,-7.3707,-7.2385,-7.0444,-6.4884,-6.3211,-6.2511,-6.1704,-6.4468,-6.743,-6.9155,-7.3873,-7.7105,-7.6546,-7.6949,-7.7671,-7.8662,-7.9066,-7.9695,-8.0874,-8.1383,-8.1782,-8.215,-8.2186,-8.2186,-8.2186,-8.2186,-8.2186,-8.2186,-8.2186,-8.2957,-8.4572,-8.4609,-8.4926,-8.5619,-8.6277,-8.6308,-8.579,-8.6068,-8.6371,-8.6656,-8.6701,-8.6578,-8.6444,-8.6848,-8.6995,-8.6995,-8.6995,-8.6775,-8.6334,-8.549,-8.4682,-8.3985,0.0,0.0,0.0,0.0,0.0,0.0,0.0,-5.5049,-5.6511,-6.0589,-6.0512,-5.8704,-5.5203,-5.1779,-4.9356,0.0,0.0,0.0,0.0,0.0,0.0,0.0,0.0,0.0,-4.8394,0.0,0.0,-5.0442,-5.0596,0.0,0.0,0.0,0.0,0.0,-5.1241,-5.1241,-5.1279,-5.1895,-5.2192,0.0,0.0,-5.3472,-5.3587,0.0,0.0,0.0,0.0,-6.0089,-6.2781,-6.4551,-6.8829,-7.383,-7.6478,-7.7852,-7.8473,-7.826,-7.7896,-7.754,-7.768,-7.751,-7.7365,-7.7651,-7.8473,-7.7838,-7.2505,-7.0917,-6.8867,-6.2724,-6.0863,-6.0378,-6.0627,-6.3257,-6.6009,-6.7898,-7.2556,-7.5905,-7.5794,-7.6515,-7.7488,-7.8699,-7.9396,-8.0167,-8.1158,-8.1819,-8.2186,-8.2186,-8.2186,-8.2186,-8.2186,-8.2186,-8.2186,-8.2186,-8.2186,-8.2957,-8.4572,-8.4609,-8.5023,-8.5843,-8.6358,-8.6422,-8.6112,-8.6244,-8.6662,-8.7324,-8.6964,-8.6905,-8.6995,-8.6995,-8.6995,-8.6995,-8.6995,-8.6995,-8.6848,-8.56,-8.5013,-8.4756,0.0,0.0,0.0,0.0,0.0,0.0,0.0,-5.678,-5.9088,-6.5551,-6.3755,-6.1408,-6.0242,-5.7049,-5.3472,0.0,0.0,0.0,0.0,0.0,0.0,0.0,0.0,0.0,0.0,0.0,0.0,-4.951,-5.0327,0.0,0.0,0.0,0.0,0.0,0.0,-5.2972,-5.2972,-5.3049,0.0,0.0,0.0,0.0,0.0,0.0,0.0,0.0,0.0,-5.8973,-6.0589,-6.5282,-6.7295,-6.8677,-7.349,-7.6884,-7.8954,-7.8177,-7.8054,-7.8336,-7.8865,-7.819,-7.7563,-7.8716,-7.9128,-7.8081,-7.3769,-7.1465,-6.8745,-6.3385,-6.1055,-6.0262,-6.1287,-6.2365,-6.4567,-6.9127,-7.079,-7.2569,-7.5611,-7.6142,-7.7078,-7.9396,-7.9727,-8.0388,-8.1929,-8.215,-8.2186,-8.2186,-8.2186,-8.2186,-8.2186,-8.2186,-8.2186,-8.2186,-8.2186,-8.2957,-8.4572,-8.4609,-8.5232,-8.6515,-8.6555,-8.6095,-8.5235,-8.5977,-8.6123,-8.5819,-8.6512,-8.6873,-8.6995,-8.6995,-8.6995,-8.6995,-8.6995,-8.6995,-8.6995,-8.6848,-8.6334,-8.5673,0.0,0.0,0.0,0.0,0.0,0.0,-5.6549,-5.7011,-5.9281,-6.5551,-6.4743,-6.3281,-6.2397,-5.9704,-5.5895,-5.0625,0.0,0.0,0.0,0.0,0.0,0.0,0.0,0.0,0.0,0.0,-5.0433,-5.0894,-5.1241,0.0,0.0,0.0,0.0,0.0,0.0,-5.3203,-5.3241,-5.378,0.0,0.0,0.0,0.0,0.0,0.0,0.0,0.0,0.0,0.0,-6.0666,-6.3217,-6.5782,-6.8167,-6.9667,-7.3047,-7.6633,-7.747,-7.7892,-7.8226,-7.8978,-7.8816,-7.8576,-7.9081,-7.9091,-7.7883,-7.3667,-7.1401,-6.8913,-6.4264,-6.1506,-6.0385,-6.1819,-6.1945,-6.3344,-6.7894,-6.9926,-7.1606,-7.3648,-7.4778,-7.6093,-7.8075,-7.8772,-7.991,-8.2003,-8.2186,-8.2186,-8.2186,-8.2186,-8.2186,-8.2186,-8.2663,-8.292,-8.292,-8.3398,-8.4168,-8.5306,-8.4829,-8.5049,-8.5976,-8.5976,-8.5745,-8.5309,-8.6178,-8.6499,-8.6334,-8.6767,-8.697,-8.6995,-8.6995,-8.6995,-8.6995,-8.6995,-8.6995,-8.6958,-8.6444,-8.6077,-8.5783,0.0,0.0,0.0,0.0,0.0,-5.378,-5.6588,-5.7434,-5.9627,-6.482,-6.4974,-6.4166,-6.3089,-6.0435,-5.6896,-5.2241,-5.1135,0.0,0.0,0.0,0.0,0.0,0.0,0.0,0.0,0.0,-5.1318,-5.1885,-5.2423,-5.2972,0.0,0.0,-5.3933,-5.3933,0.0,0.0,0.0,0.0,0.0,0.0,0.0,0.0,0.0,0.0,0.0,0.0,0.0,0.0,0.0,0.0,0.0,-6.6551,-6.6705,-6.936,-7.3034,-7.5906,-7.7245,-7.803,-7.9094,-7.928,-7.929,-7.968,-7.9129,-7.7512,-7.3649,-7.1363,-6.8893,-6.4741,-6.2033,-6.081,-6.2151,-6.1715,-6.2511,-6.6684,-6.863,-7.0275,-7.2239,-7.3487,-7.4882,-7.6754,-7.7488,-7.8809,-8.1232,-8.1929,-8.2186,-8.2186,-8.2186,-8.2186,-8.2186,-8.2957,-8.3398,-8.3398,-8.4168,-8.4976,-8.5783,-8.5233,-8.5295,-8.5954,-8.5954,-8.5797,-8.5478,-8.6375,-8.669,-8.6523,-8.6863,-8.6995,-8.6995,-8.6995,-8.6995,-8.6995,-8.6995,-8.6995,-8.6921,-8.6371,-8.6151,-8.6151,0.0,0.0,0.0,0.0,0.0,0.0,-5.6483,-5.8396,-6.0704,-6.4166,-6.4628,-6.3974,-6.2293,-5.9088,-5.6308,-5.4626,-5.2164,0.0,0.0,0.0,0.0,0.0,0.0,0.0,0.0,0.0,-5.1885,-5.1885,-5.3626,-5.4472,-5.4511,-5.528,-5.5665,-5.5665,0.0,0.0,0.0,0.0,0.0,0.0,0.0,0.0,-5.5703,0.0,0.0,0.0,0.0,0.0,0.0,0.0,0.0,0.0,0.0,-6.6513,-6.8167,-7.3231,-7.6071,-7.7911,-7.939,-7.9515,-7.9491,-8.0788,-7.9327,-7.6878,-7.4143,-7.1538,-6.8611,-6.4688,-6.2574,-6.1609,-6.2296,-6.1672,-6.2279,-6.5939,-6.6544,-6.7944,-7.1945,-7.2532,-7.3413,-7.5836,-7.613,-7.7084,-7.958,-8.1269,-8.2186,-8.2186,-8.2186,-8.2186,-8.2186,-8.2957,-8.3398,-8.3398,-8.4168,-8.4976,-8.5783,-8.5783,-8.6107,-8.678,-8.678,-8.6363,-8.5619,-8.6438,-8.6455,-8.5854,-8.6664,-8.6995,-8.6995,-8.6995,-8.6995,-8.6995,-8.6995,-8.6995,-8.6995,-8.6995,-8.6995,-8.6995,0.0,0.0,0.0,0.0,0.0,0.0,0.0,-5.5742,-5.728,-6.0666,-6.0127,-5.9869,-6.1089,-5.7665,-5.5549,-5.6137,-5.2828,0.0,0.0,0.0,0.0,0.0,0.0,0.0,0.0,-5.1769,-5.3049,-5.5395,-5.6511,-5.7665,-5.8781,-5.8473,-5.8011,-5.7434,-5.6242,-5.5703,0.0,0.0,0.0,0.0,0.0,-5.5703,-5.578,0.0,0.0,0.0,0.0,0.0,0.0,0.0,0.0,0.0,0.0,0.0,0.0,-6.9744,-7.2875,-7.5833,-7.6893,-7.7544,-7.7854,-7.7647,-7.6602,-7.4927,-7.2332,-7.0667,-6.8871,-6.5882,-6.414,-6.3242,-6.371,-6.2786,-6.3134,-6.6732,-6.731,-6.8348,-7.1284,-7.2614,-7.4008,-7.5873,-7.8552,-8.0571,-8.1342,-8.1893,-8.2186,-8.2186,-8.2186,-8.2186,-8.2186,-8.2957,-8.3654,-8.4205,-8.5013,-8.582,-8.6628,-8.5527,-8.5367,-8.6111,-8.5558,-8.5447,-8.5742,-8.6554,-8.6792,-8.6628,-8.6885,-8.6995,-8.6995,-8.6995,-8.6995,-8.6995,-8.6995,-8.6995,-8.6995,-8.6995,-8.6995,-8.6995,0.0,0.0,0.0,0.0,0.0,0.0,0.0,-5.4087,-5.5357,-5.7742,-5.7165,-5.7368,-5.9627,-5.6357,-5.4664,-5.6368,-5.3241,0.0,0.0,0.0,0.0,0.0,0.0,0.0,-5.1885,-5.2231,-5.4087,-5.7473,-5.8665,-6.0089,-6.1743,-6.1512,-6.0473,-5.8704,-5.7627,-5.6588,0.0,0.0,0.0,0.0,-5.5703,-5.5895,-5.6252,0.0,0.0,0.0,0.0,0.0,0.0,0.0,0.0,0.0,0.0,0.0,0.0,0.0,-6.9783,-7.2283,-7.4476,-7.5899,-7.6669,-7.613,-7.4861,-7.3245,-7.1321,-6.9783,-6.8167,-6.6282,-6.4972,-6.4267,-6.4596,-6.3728,-6.3811,-6.6486,-6.7013,-6.8129,-7.1165,-7.2307,-7.3604,-7.5836,-7.9433,-8.1636,-8.1305,-8.2113,-8.2517,-8.2223,-8.2186,-8.2186,-8.2186,-8.27,-8.3324,-8.4132,-8.5233,-8.604,-8.6554,-8.5857,-8.5747,-8.6261,-8.5747,-8.5783,-8.6261,-8.6775,-8.6995,-8.6995,-8.6995,-8.6995,0.0,-8.6995,-8.6995,-8.6995,-8.6995,-8.7163,-8.7394,-8.7098,-8.7163,-8.7427,0.0,0.0,0.0,0.0,0.0,0.0,0.0,-5.328,-5.4626,-5.5511,-5.5549,-5.6165,-5.7857,-5.5126,-5.3857,-5.5472,0.0,0.0,0.0,0.0,0.0,0.0,0.0,0.0,-5.1962,-5.2895,-5.5088,-5.8588,-6.0242,-6.1973,-6.3782,-6.4512,-6.3051,-5.9781,-5.9665,-5.8127,0.0,0.0,0.0,0.0,-5.578,-5.6291,0.0,0.0,0.0,0.0,0.0,0.0,0.0,0.0,0.0,0.0,0.0,0.0,0.0,0.0,0.0,0.0,0.0,-7.4245,-7.5553,-7.5476,-7.3668,-7.1706,-7.0821,-6.8783,0.0,-6.5974,-6.5166,-6.4718,-6.51,-6.4451,-6.4253,-6.571,-6.6111,-6.7654,-7.169,-7.2105,-7.312,-7.6093,-7.9286,-8.0938,-8.0131,-8.2076,-8.3104,-8.2333,-8.2223,-8.2186,-8.2186,-8.2186,-8.2553,-8.3287,-8.4866,-8.5747,-8.5783,-8.6554,-8.6958,-8.6995,-8.6958,-8.6958,-8.6995,-8.6995,-8.6995,-8.6995,-8.6995,-8.6995,-8.6995,-8.6995,-8.6995,-8.7031,-8.7064,-8.7526,-8.8015,-8.7328,-8.7521,-8.8167,0.0,0.0,0.0,0.0,0.0,0.0,0.0,0.0,0.0,0.0,-5.4203,-5.4203,-5.528,-5.4087,-5.3626,0.0,0.0,0.0,0.0,0.0,0.0,0.0,0.0,0.0,-5.2895,-5.4357,-5.7088,-6.1204,-6.2897,-6.5243,-6.8205,-6.7744,-6.5667,-6.2358,-6.1089,-5.8704,0.0,0.0,0.0,0.0,-5.6445,-5.683,0.0,0.0,0.0,0.0,-6.0242,-6.1589,0.0,0.0,0.0,0.0,0.0,0.0,0.0,0.0,-6.4666,-6.5551,-6.7244,0.0,-7.1014,-7.036,-6.9744,-6.9052,0.0,-6.7513,-6.6667,-6.5205,-6.4743,-6.491,-6.5902,-6.4832,-6.5014,-6.8808,-6.8909,-6.9798,-7.3403,-7.672,-7.8993,-7.9764,-8.215,-8.3434,-8.2627,-8.3067,-8.3324,-8.3141,-8.2553,-8.2186,-8.2186,-8.2186,-8.2296,-8.248,-8.4058,-8.5159,-8.5783,-8.5967,-8.6407,-8.6995,-8.6371,-8.6407,-8.6995,-8.6995,-8.6995,-8.6995,-8.6995,-8.6995,-8.6995,-8.6995,-8.6995,-8.7064,-8.7618,-8.796,-8.8076,-8.7929,-8.8279,-8.8774,0.0,0.0,0.0,0.0,0.0,0.0,0.0,0.0,0.0,0.0,0.0,-5.3549,0.0,0.0,0.0,0.0,0.0,0.0,0.0,0.0,0.0,0.0,0.0,-5.2895,-5.378,-5.5049,-5.7973,-6.2666,-6.3974,-6.6551,-7.0244,-6.9783,-6.7552,-6.3743,-6.0512,-5.783,0.0,0.0,0.0,-5.578,-5.6637,0.0,0.0,0.0,0.0,0.0,-6.0627,-6.1897,0.0,-6.4666,-6.5936,-6.6974,0.0,0.0,0.0,0.0,-6.3358,-6.3628,-6.4474,-6.7167,-6.9667,-6.959,-6.9283,-6.8859,-6.8398,-6.7398,-6.6282,-6.5397,-6.5205,-6.55,-6.6524,-6.6916,-6.7645,-6.9473,-7.1116,-7.2868,-7.493,-7.8578,-8.1012,-8.1012,-8.3141,-8.4425,-8.3985,-8.3948,-8.3801,-8.3434,-8.2663,-8.2186,-8.2186,-8.2186,-8.237,-8.2737,-8.3948,-8.4792,-8.5233,-8.5967,-8.6591,-8.6995,-8.6554,-8.6591,-8.6995,-8.6995,-8.6995,-8.6995,-8.6995,-8.6995,-8.6995,-8.6995,-8.7197,-8.7521,-8.7923,-8.8475,-8.899,-8.8663,-8.899,-8.9525,0.0,0.0,0.0,0.0,0.0,0.0,0.0,0.0,0.0,0.0,0.0,0.0,0.0,0.0,0.0,0.0,0.0,0.0,0.0,0.0,0.0,0.0,0.0,-5.3933,-5.5049,-5.5742,-5.8511,-6.3512,-6.4628,-6.7205,-7.1091,-7.136,-6.909,-6.4589,-5.9754,-5.7022,0.0,-5.5934,-5.5972,-5.6165,-5.6907,0.0,0.0,0.0,0.0,0.0,0.0,0.0,0.0,-6.559,-6.709,-6.7975,-6.7692,0.0,0.0,0.0,0.0,0.0,-6.3397,-6.6705,-6.9898,-6.9937,-6.9706,-6.9436,-6.9167,-6.7436,-6.5859,-6.5743,-6.582,-6.632,-6.7628,-6.9242,-7.0354,-7.015,-7.3391,-7.6144,-7.6891,-7.9606,-8.1562,-8.1562,-8.3581,-8.4939,-8.4792,-8.4792,-8.4462,-8.3654,-8.2847,-8.2333,-8.2186,-8.2186,-8.2517,-8.3214,-8.4132,-8.4609,-8.4609,-8.6224,-8.6995,-8.6995,-8.6995,-8.6995,-8.6995,-8.6995,-8.6995,-8.6995,-8.6995,-8.6995,-8.6995,-8.6995,-8.7427,-8.8107,-8.819,-8.9016,-8.999,-8.9377,-8.9597,-9.0284,0.0,0.0,0.0,0.0,0.0,0.0,0.0,0.0,0.0,0.0,0.0,0.0,0.0,0.0,0.0,0.0,0.0,0.0,0.0,0.0,0.0,0.0,-5.4664,-5.5357,-5.7665,-5.7857,-6.005,-6.4397,-6.6705,-6.9244,-7.2014,-7.3437,-7.1129,-6.5551,-6.1858,-5.9358,-5.7857,-5.7088,-5.7242,-5.7896,-5.805,0.0,0.0,0.0,0.0,0.0,0.0,0.0,0.0,-6.2755,-6.4397,-6.6013,-6.4551,0.0,0.0,0.0,0.0,0.0,-6.4859,-6.8052,-6.9898,-6.6436,-6.709,-6.8244,-6.6821,-6.6167,-6.5705,-6.4936,-6.5397,-6.7013,-7.0744,-6.9574,-6.9823,-7.5339,-7.7122,-7.8505,-8.0654,-8.275,-8.4058,-8.4058,-8.56,-8.6371,-8.5673,-8.56,-8.527,-8.4499,-8.3691,-8.292,-8.2223,-8.2186,-8.226,-8.237,-8.3838,-8.4609,-8.4609,-8.6224,-8.6995,-8.6995,-8.6995,-8.6995,-8.6995,-8.6995,-8.6995,-8.6995,-8.6995,-8.6995,-8.6995,-8.6995,-8.7427,-8.8167,-8.8719,-8.9426,-8.999,-8.9377,-8.9916,-9.1141,0.0,0.0,0.0,0.0,0.0,0.0,0.0,0.0,0.0,0.0,0.0,0.0,0.0,0.0,0.0,0.0,0.0,0.0,0.0,0.0,0.0,-5.7703,-5.6973,-5.7319,-5.8896,-6.0319,-6.3089,-6.7359,-6.9436,-7.1745,-7.4207,-7.2706,-6.959,-6.5051,-6.2127,-6.0127,-5.8896,-5.805,-5.8165,-5.8934,0.0,0.0,0.0,0.0,0.0,0.0,0.0,0.0,0.0,0.0,-6.5513,-6.7013,-6.5743,0.0,0.0,0.0,0.0,0.0,-6.4051,-6.6628,-6.859,-6.7628,-7.0369,-7.3198,-7.2803,-7.1456,-7.012,-6.9519,-6.9433,-7.0287,-7.3048,-7.3484,-7.5132,-8.033,-7.9635,-7.9261,-8.1662,-8.278,-8.3618,-8.4499,-8.5637,-8.6371,-8.6444,-8.604,-8.5453,-8.4646,-8.3875,-8.3067,-8.2223,-8.2627,-8.3067,-8.3471,-8.4646,-8.5453,-8.5894,-8.6628,-8.6995,-8.6995,-8.6995,-8.6995,-8.6995,-8.6995,-8.6995,-8.6995,-8.6995,-8.6995,-8.7029,-8.7427,-8.8015,-8.8691,-8.9364,-8.9832,-9.0073,-8.9763,-9.0355,-9.147,0.0,0.0,0.0,0.0,0.0,0.0,0.0,0.0,0.0,0.0,0.0,0.0,0.0,0.0,0.0,0.0,0.0,0.0,0.0,0.0,-5.6665,-5.8819,-5.8896,-5.9627,-6.1243,-6.3012,-6.5897,-6.9975,-7.2052,-7.4091,-7.5938,-7.2091,-6.8359,-6.4782,-6.2435,-6.0896,-6.005,-5.9242,-5.9358,-6.0089,0.0,0.0,0.0,0.0,0.0,0.0,0.0,0.0,0.0,0.0,0.0,0.0,0.0,0.0,0.0,-6.482,-6.3628,-6.3217,-6.4243,-6.6205,-6.8398,-7.0167,-7.3204,-7.6135,-7.7578,-7.5437,-7.3347,-7.3975,-7.3707,-7.3827,-7.5311,-7.7555,-8.0006,-8.2645,-8.1168,-8.0461,-8.2733,-8.303,-8.3581,-8.5013,-8.571,-8.6334,-8.6958,-8.6444,-8.5673,-8.4682,-8.4022,-8.3251,-8.226,-8.2957,-8.3691,-8.4315,-8.527,-8.6077,-8.6701,-8.6921,-8.6995,-8.6995,-8.6995,-8.6995,-8.6995,-8.6995,-8.6995,-8.6995,-8.6995,-8.7098,-8.7295,-8.7867,-8.8589,-8.9402,-8.9901,-8.999,-8.9878,-9.0013,-9.0562,-9.14,0.0,0.0,0.0,0.0,0.0,0.0,0.0,0.0,0.0,0.0,0.0,0.0,0.0,0.0,0.0,0.0,0.0,0.0,-5.5703,-5.5703,-5.6126,-5.7137,-5.9396,-6.2474,-6.6474,-6.6013,-6.7398,-7.0821,-7.4091,-7.5822,-7.5938,-7.3283,-6.9783,-6.5743,-6.3935,-6.2666,-6.187,-6.0973,-6.1127,-6.1831,-6.1012,0.0,0.0,0.0,0.0,0.0,0.0,0.0,0.0,0.0,0.0,0.0,0.0,0.0,-6.8129,-6.7128,-6.6244,-6.5974,-6.759,-6.9321,-7.1052,-7.2783,-7.1911,-7.1603,-7.5311,-7.3303,-7.163,-7.5104,-7.5944,-7.6479,-7.7939,-7.9842,-8.0887,-7.9893,-8.1522,-8.3499,-8.5294,-8.5527,-8.5857,-8.6738,-8.6885,-8.6958,-8.6995,-8.6958,-8.6261,-8.4719,-8.4535,-8.3838,-8.226,-8.2957,-8.3434,-8.3508,-8.4976,-8.582,-8.5894,-8.6628,-8.6995,-8.6995,-8.6995,-8.6995,-8.6995,-8.6995,-8.6995,-8.6995,-8.6995,-8.7394,-8.8015,-8.8076,-8.8856,-9.0013,-9.0095,-8.974,-8.9276,-8.9878,-9.0248,-9.0764,0.0,0.0,0.0,0.0,0.0,0.0,0.0,0.0,0.0,0.0,0.0,0.0,0.0,0.0,0.0,0.0,0.0,0.0,-5.5703,-5.5703,-5.6549,-5.8473,-6.0012,-6.2281,-6.5474,-6.7821,-7.0398,-7.3245,-7.563,-7.6245,-7.513,-7.2591,-6.9706,-6.6551,-6.4859,-6.4606,-6.5265,-6.3351,-6.3719,-6.5372,-6.2771,-6.1727,0.0,0.0,0.0,0.0,0.0,0.0,0.0,0.0,-6.5513,-6.659,-6.6397,-6.7282,-6.8129,-6.6744,-6.6128,-6.6051,-6.6667,-6.8821,-7.1321,-7.3053,-7.3383,-7.4295,-7.8285,-7.79,-7.7225,-7.8999,-7.949,-7.9709,-8.0043,-8.2526,-8.384,-8.1834,-8.3321,-8.4933,-8.5698,-8.5783,-8.6077,-8.6921,-8.6995,-8.6995,-8.6995,-8.6995,-8.6554,-8.5416,-8.4866,-8.4315,-8.3728,-8.3985,-8.4389,-8.4866,-8.5967,-8.6554,-8.6554,-8.6848,-8.7252,-8.7729,-8.7252,-8.6995,-8.6995,-8.6995,-8.6995,-8.6995,-8.6995,-8.7129,-8.7456,-8.8359,-8.9043,-8.9538,-9.0006,-8.9522,-8.8635,-8.9817,-9.0638,-9.1394,0.0,0.0,0.0,0.0,0.0,0.0,0.0,0.0,0.0,0.0,0.0,0.0,0.0,0.0,0.0,0.0,0.0,0.0,-5.5703,-5.5703,-5.6588,-5.8627,-5.9781,-6.1473,-6.3743,-6.7936,-7.1206,-7.3514,-7.5515,-7.5745,-7.4284,-7.1975,-6.9975,-6.8244,-6.6551,-6.6803,-6.833,-6.5796,-6.5799,-6.726,-6.4222,-6.2713,0.0,0.0,0.0,0.0,0.0,0.0,0.0,0.0,-6.5974,-6.6782,-6.7013,-6.7705,-6.8244,-6.7359,-6.7667,-6.8244,-6.7975,-6.9744,-7.2129,-7.386,-7.4708,-7.6188,-8.019,-8.0406,-8.0368,-8.2453,-8.2086,-8.1703,-8.2518,-8.4031,-8.4777,-8.3761,-8.5097,-8.6244,-8.6173,-8.6187,-8.6371,-8.6921,-8.6995,-8.6995,-8.6995,-8.6995,-8.6664,-8.5857,-8.5049,-8.4609,-8.4609,-8.4609,-8.4976,-8.5747,-8.6591,-8.6995,-8.6995,-8.6995,-8.7399,-8.8206,-8.7655,-8.7399,-8.7399,-8.7399,-8.7252,-8.6995,-8.6995,-8.7095,-8.746,-8.8608,-8.9402,-8.9831,-8.9916,-8.9523,-8.9018,-9.0248,-9.1234,-9.2189,0.0,0.0,0.0,0.0,0.0,0.0,0.0,0.0,0.0,0.0,0.0,0.0,0.0,0.0,0.0,0.0,0.0,0.0,-5.5703,-5.5703,-5.6088,-5.6945,-5.8588,-6.0281,-6.2024,-6.6205,-6.9167,-7.0898,-7.3437,-7.4284,-7.3437,-7.1706,-7.0898,-7.0821,-6.9167,-6.936,-7.0744,-6.8219,-6.7141,-6.6987,-6.532,-6.364,-6.2139,0.0,0.0,0.0,0.0,0.0,0.0,0.0,-6.6551,-6.6359,-6.8898,-6.909,-6.859,-6.9436,-7.1475,-7.3283,-7.236,-7.2822,-7.3937,-7.5553,-7.554,-7.6137,-8.0213,-7.9495,-7.9578,-8.4984,-8.3478,-8.217,-8.5478,-8.4055,-8.3001,-8.4981,-8.6706,-8.7614,-8.7087,-8.6995,-8.6995,-8.6995,-8.6995,-8.6995,-8.6995,-8.6995,-8.6664,-8.5857,-8.5049,-8.4609,-8.4646,-8.4609,-8.4976,-8.5783,-8.6591,-8.6995,-8.6995,-8.6995,-8.7435,-8.8206,-8.8206,-8.8206,-8.8206,-8.8206,-8.7766,-8.6995,-8.7031,-8.7427,-8.8167,-8.8801,-8.9993,-9.1256,-8.9854,-8.979,-9.059,-9.1339,-9.2102,-9.2995,0.0,0.0,0.0,0.0,0.0,0.0,0.0,0.0,0.0,0.0,0.0,0.0,0.0,0.0,0.0,0.0,0.0,0.0,-5.5703,-5.5703,-5.5818,-5.6049,-5.828,-5.9473,-5.9435,-6.2397,-6.6244,-7.0898,-7.1668,-7.1898,-7.1668,-7.1129,-7.1245,-7.1783,-7.1283,-7.1429,-7.1838,-6.9275,-6.8926,-6.9968,-6.7541,-6.5912,-6.4858,0.0,0.0,0.0,0.0,0.0,0.0,0.0,0.0,0.0,-6.7628,-6.8936,-6.986,-6.8321,-6.9283,-7.0398,-6.8321,-7.1437,-7.498,-7.3827,-7.6977,-8.0712,-8.1984,-8.0954,-8.078,-8.4611,-8.5131,-8.5149,-8.5967,-8.6582,-8.6587,-8.5474,-8.6834,-8.7779,-8.7095,-8.6995,-8.6995,-8.6995,-8.6995,-8.6995,-8.6995,-8.6995,-8.6921,-8.6664,-8.538,-8.5343,-8.7031,-8.5527,-8.549,-8.7435,-8.7178,-8.6995,-8.6995,-8.6995,-8.7692,-8.905,-8.905,-8.8757,-8.8206,-8.8206,-8.7766,-8.7031,-8.7619,-8.7647,-8.7394,-8.81,-8.899,-8.992,-9.0086,-8.9628,-8.9156,-9.1554,-9.2593,-9.2995,0.0,0.0,0.0,0.0,0.0,0.0,0.0,0.0,0.0,0.0,-5.1895,-5.2664,0.0,0.0,0.0,-5.5626,-5.5703,-5.5703,-5.5703,-5.5703,-5.5857,-5.6214,-5.7703,-5.8742,-5.9281,-6.1781,-6.4512,-6.7398,-6.8436,-6.9436,-7.0437,-7.1783,-7.3053,-7.4245,-7.4899,-7.491,-7.4253,-7.2001,-7.133,-7.1591,-6.9607,-6.7879,-6.6428,0.0,0.0,0.0,0.0,0.0,0.0,0.0,0.0,0.0,-6.7013,-6.8129,-6.9436,-6.959,-7.1091,-7.2668,-7.2476,-7.5399,-7.8416,-7.8007,-7.9838,-8.196,-8.2723,-8.3111,-8.3974,-8.6468,-8.6643,-8.6699,-8.7927,-8.7983,-8.7649,-8.6908,-8.753,-8.7836,-8.7098,-8.6995,-8.6995,-8.6995,-8.6995,-8.6995,-8.6995,-8.6995,-8.6995,-8.6995,-8.582,-8.5857,-8.7619,-8.6334,-8.6371,-8.8133,-8.8059,-8.7949,-8.7949,-8.7655,-8.828,-8.9895,-8.9529,-8.916,-8.8683,-8.8683,-8.8243,-8.7509,-8.7986,-8.8267,-8.8384,-8.8211,-8.8987,-9.028,-9.0448,-9.0199,-8.9958,-9.2405,-9.331,-9.3487,0.0,0.0,0.0,0.0,0.0,0.0,0.0,0.0,0.0,-5.0712,-5.0827,-5.151,0.0,0.0,0.0,-5.5549,-5.5703,-5.5703,-5.5703,-5.5703,-5.6088,-5.6945,-5.7214,-5.8484,-6.0858,-6.3128,-6.3512,-6.1985,-6.4589,-6.7167,-6.9667,-7.3091,-7.563,-7.7361,-7.9054,-7.8784,-7.6938,-7.5284,-7.363,-7.2014,-7.1398,-6.959,-6.7321,-6.7321,0.0,0.0,0.0,0.0,0.0,0.0,0.0,0.0,-6.6859,-6.7128,-6.7975,-7.1822,-7.4822,-7.7592,-8.0477,-8.1708,-8.2731,-8.5005,-8.3188,-8.1357,-8.3134,-8.57,-8.8121,-8.9417,-8.8021,-8.7517,-9.0633,-8.8692,-8.7192,-8.8847,-8.8532,-8.7836,-8.7098,-8.6995,-8.6995,-8.6995,-8.6995,-8.6995,-8.6995,-8.6995,-8.6995,-8.6995,-8.6261,-8.6224,-8.7178,-8.7031,-8.7325,-8.828,-8.8904,-8.9162,-8.9162,-8.8463,-8.8904,-9.0482,-8.9711,-8.9308,-8.9382,-8.9382,-8.9014,-8.8316,-8.8316,-8.9206,-9.0605,-8.8993,-8.9646,-9.1613,-9.0875,-9.1069,-9.1909,-9.3492,-9.4102,-9.4205,0.0,0.0,0.0,0.0,0.0,0.0,0.0,0.0,-5.0712,-5.0712,-5.1856,-5.2818,-5.3164,-5.4357,0.0,-5.5665,-5.5703,-5.5703,-5.5703,-5.5703,-5.6088,-5.6945,-5.8907,-6.055,-6.1793,-6.1704,-6.1435,-6.1089,-6.432,-6.6859,-6.8783,-7.2822,-7.563,-7.7361,-7.9054,-7.813,-7.5207,-7.4207,-7.2745,-7.1283,-7.2476,-7.1398,-6.9129,-6.9129,-6.8052,0.0,0.0,0.0,0.0,0.0,0.0,0.0,-6.6859,-6.7552,-6.8167,-6.8398,-7.1245,-7.4168,-7.3514,-7.7284,-8.1359,-8.1383,-8.294,-8.4898,-8.6355,-8.7781,-8.8653,-8.8176,-8.917,-9.0325,-9.1056,-9.0147,-8.9231,-8.9112,-8.8532,-8.7836,-8.7098,-8.6995,-8.6995,-8.6995,-8.6995,-8.6995,-8.6995,-8.6995,-8.6995,-8.6995,-8.6261,-8.6701,-8.8793,-8.7105,-8.6995,-8.9087,-8.8096,-8.7545,-8.7545,-8.7362,-8.8096,-8.9674,-8.883,-8.8793,-8.9382,-8.9382,-8.9344,-8.916,-8.916,-9.0442,-9.235,-9.0076,-9.0185,-9.1723,-9.0921,-9.0702,-9.11,-9.3305,-9.4102,-9.4281,0.0,0.0,0.0,0.0,0.0,0.0,0.0,0.0,-5.0827,-5.1202,-5.2049,-5.2895,-5.3741,-5.4587,0.0,0.0,-5.5703,-5.5703,-5.5703,-5.5703,-5.628,-5.755,-5.9665,-6.0627,-6.0281,-6.0627,-6.0589,-6.0165,-6.3166,-6.5936,-6.85,-7.2706,-7.563,-7.7361,-7.8631,-7.7515,-7.4668,-7.4245,-7.3322,-7.2206,-7.3129,-7.2206,-7.0244,-6.986,-6.8398,-6.6397,-6.5551,0.0,0.0,0.0,0.0,0.0,0.0,0.0,-6.7513,-6.909,-7.1129,-7.3399,-7.5707,-7.8977,-8.1788,-8.2359,-8.4311,-8.6277,-8.6999,-8.8166,-8.9037,-8.8841,-9.0091,-9.121,-9.121,-9.0606,-8.9878,-8.9187,-8.8532,-8.7836,-8.7098,-8.6995,-8.6995,-8.6995,-8.6995,-8.6995,-8.6995,-8.6995,-8.6995,-8.6995,-8.6628,-8.7105,-8.8757,-8.8023,-8.8096,-8.9345,-8.8977,-8.8536,-8.8169,-8.7766,-8.8206,-8.9382,-8.8573,-8.861,-8.9382,-8.9382,-8.9638,-8.9968,-8.9968,-9.1179,-9.2978,-9.1253,-9.1289,-9.2391,-9.195,-9.1797,-9.1943,-9.3527,-9.4319,-9.4793,0.0,0.0,0.0,0.0,0.0,0.0,0.0,0.0,0.0,-5.2038,-5.2269,-5.2895,-5.4357,-5.4626,-5.4972,0.0,0.0,0.0,-5.5703,-5.5818,-5.6626,-5.8242,-5.9742,-6.0012,-5.8781,-6.0089,-6.0512,-5.9935,-6.2358,-6.5282,-6.8706,-7.2668,-7.5515,-7.7323,-7.7977,-7.6861,-7.4476,-7.4322,-7.363,-7.2615,-7.2937,-7.2014,-7.0398,-6.9744,-6.8052,-6.609,-6.5936,-6.5974,-6.609,-6.5936,0.0,0.0,0.0,0.0,-6.6782,-7.0129,-7.1514,-7.3206,-7.8823,-8.1208,-8.2666,-8.494,-8.6153,-8.6806,-8.6952,-8.8166,-8.9476,-9.0138,-9.0762,-9.121,-9.121,-9.0723,-9.0028,-8.925,-8.8645,-8.7985,-8.7132,-8.6995,-8.6995,-8.6995,-8.6995,-8.6995,-8.6995,-8.6995,-8.6995,-8.6995,-8.7142,-8.7582,-8.8353,-8.905,-8.9455,-8.9565,-9.0005,-8.9895,-8.9234,-8.839,-8.839,-8.9197,-8.8683,-8.8904,-8.9821,-8.9821,-9.0188,-9.0812,-9.1106,-9.2097,-9.3455,-9.2427,-9.2537,-9.3272,-9.2978,-9.2857,-9.2891,-9.3793,-9.4476,-9.5142,0.0,0.0,0.0,0.0,0.0,0.0,0.0,0.0,0.0,0.0,-5.3664,-5.4241,-5.4472,-5.5126,-5.5588,-5.5703,-5.5703,-5.5703,-5.5703,0.0,0.0,-5.828,-5.9165,-5.9935,-6.0435,-6.0704,-6.1089,-6.1755,-6.3551,-6.6167,-6.959,-7.236,-7.4976,-7.7284,-7.74,-7.6053,-7.363,-7.286,-7.1206,-6.9206,-7.0667,-7.0244,-6.8744,-6.8629,-6.7898,-6.6859,-6.6128,-6.6359,-6.6821,-6.6128,-6.6859,0.0,0.0,0.0,-6.6898,-6.6782,-6.8783,-7.1283,-7.2168,-7.6746,-8.2192,-8.6142,-8.7274,-8.7638,-8.827,-8.9203,-9.016,-9.0895,-9.1118,-9.121,-9.121,-9.1118,-9.0606,-8.9327,-8.9043,-8.8494,-8.7197,-8.6995,-8.6995,-8.6995,-8.6995,-8.6995,-8.6995,-8.6995,-8.6995,-8.6995,-8.7655,-8.839,-8.9234,-8.9308,-8.9748,-9.0445,-8.9197,-8.8463,-8.8353,-8.7582,-8.7582,-8.839,-8.8977,-9.0041,-9.1473,-9.1473,-9.1546,-9.173,-9.3161,-9.4336,-9.507,-9.3565,-9.3418,-9.4006,-9.2537,-9.195,-9.2124,-9.3589,-9.4157,-9.4564,0.0,0.0,0.0,0.0,0.0,0.0,0.0,0.0,0.0,0.0,0.0,-5.4664,-5.5126,-5.5472,-5.5703,-5.5703,-5.5703,-5.5703,-5.5703,-5.6522,-5.7176,-5.755,-5.7896,-5.828,-5.8676,-5.9165,-6.005,-6.1358,-6.2589,-6.5667,-7.0398,-7.1052,-7.3476,-7.7246,-7.5822,-7.4822,-7.4014,-7.1745,-7.0398,-6.9783,-6.959,-7.0475,-7.1629,-6.8744,-6.8629,-6.959,-6.6859,-6.6397,-6.7051,-6.6667,-6.7398,-6.8205,-6.6974,0.0,0.0,0.0,-6.7244,-6.9706,-7.3976,-7.84,-8.267,-8.644,-8.7868,-8.8374,-8.8644,-8.9439,-9.0305,-9.1026,-9.121,-9.121,-9.121,-9.121,-9.0858,-8.9832,-8.9377,-8.8746,-8.7773,-8.7265,-8.7178,-8.7619,-8.7655,-8.7876,-8.8316,-8.7949,-8.7655,-8.7655,-8.7986,-8.8573,-8.9345,-8.9858,-9.0225,-9.0592,-8.9491,-8.8683,-8.8206,-8.7399,-8.7655,-8.8904,-9.0188,-9.1613,-9.3202,-9.4057,-9.4036,-9.3235,-9.3969,-9.4777,-9.5437,-9.4263,-9.3969,-9.4189,-9.2978,-9.2495,-9.2599,-9.3706,-9.4636,-9.5665,0.0,0.0,0.0,0.0,0.0,0.0,0.0,0.0,0.0,0.0,0.0,-5.5011,-5.5626,0.0,0.0,0.0,-5.5703,-5.578,-5.6011,-5.6637,-5.6983,-5.6983,-5.6791,-5.6791,-5.6983,-5.7857,-5.9127,-6.0781,-6.2089,-6.5436,-7.0591,-7.0437,-7.2937,-7.7476,-7.5168,-7.4245,-7.4207,-7.1245,-7.0129,-7.0206,-6.9629,-7.1245,-7.3783,-7.1052,-7.1706,-7.3591,-6.936,-6.8475,-6.9167,-6.7859,-6.8013,-6.8552,-6.7436,-6.709,0.0,0.0,0.0,-6.8282,-7.5053,-7.8284,-8.0823,-8.5324,-8.7004,-8.7829,-8.8777,-8.9535,-9.026,-9.1062,-9.121,-9.121,-9.121,-9.121,-9.0895,-9.0006,-8.9451,-8.8801,-8.7923,-8.7512,-8.7545,-8.8133,-8.839,-8.8757,-8.9308,-8.8683,-8.8206,-8.8206,-8.839,-8.8793,-8.9345,-9.0372,-9.0922,-9.0922,-8.9931,-8.9234,-8.8793,-8.8206,-8.8647,-9.0041,-9.151,-9.3113,-9.4845,-9.6038,-9.608,-9.5184,-9.5184,-9.5295,-9.5437,-9.463,-9.4189,-9.3896,-9.3088,-9.2853,-9.3083,-9.3821,-9.5084,-9.6616,0.0,0.0,0.0,0.0,0.0,0.0,0.0,0.0,0.0,0.0,0.0,-5.5665,-5.5703,-5.5703,-5.5703,-5.5703,-5.5703,-5.6049,-5.6868,-5.6983,-5.6983,-5.6983,-5.6214,0.0,-5.6983,-5.7857,-5.9127,-6.0781,-6.3243,-6.6282,-6.9821,-7.136,-7.4361,-7.8361,-7.663,-7.5014,-7.3437,-7.1629,-6.9937,-6.8744,-7.1052,-7.2129,-7.2745,-7.6476,-7.8515,-7.8861,-7.463,-7.4168,-7.4784,-6.9975,-6.8898,-6.936,-6.7628,-6.709,-6.6936,0.0,0.0,0.0,-7.1321,-7.2629,-7.4514,-8.1939,-8.3846,-8.4907,-8.8923,-8.9867,-9.0175,-9.1018,-9.121,-9.121,-9.121,-9.121,-9.0743,-8.9377,-8.911,-8.8608,-8.7265,-8.769,-8.8133,-8.8206,-8.8867,-8.9345,-8.9382,-8.8683,-8.8206,-8.8206,-8.8904,-8.9345,-8.9382,-9.0886,-9.173,-9.173,-9.0225,-8.9748,-9.0482,-9.0445,-9.0849,-9.1693,-9.2611,-9.4222,-9.6485,-9.6526,-9.694,-9.7617,-9.7617,-9.6797,-9.5437,-9.463,-9.3859,-9.3088,-9.2207,-9.2299,-9.3083,-9.3821,-9.5084,-9.6616,0.0,0.0,0.0,0.0,0.0,0.0,0.0,0.0,0.0,0.0,0.0,0.0,0.0,-5.5703,-5.5703,-5.5703,-5.6214,-5.6907,-5.778,-5.7819,-5.7588,-5.7022,-5.7242,-5.7242,-5.7022,-5.8357,-5.9627,-6.0781,-6.2281,-6.5013,-6.8898,-7.0591,-7.3322,-7.6823,-7.513,-7.4976,-7.5668,-7.1783,-7.009,-7.0244,-7.2783,-7.5438,-7.8092,-7.9592,-8.2054,-8.4132,-7.99,-7.7361,-7.5707,-7.3899,-7.1668,-6.9475,-6.8321,-6.7552,-6.6936,-6.6128,-6.5897,-6.6821,-7.1052,-7.2206,-7.336,-7.8323,-8.2016,-8.4824,-8.6363,-8.8786,-9.0979,-9.1864,-9.1595,-9.121,-9.121,-9.121,-9.0876,-8.9878,-8.9364,-8.8774,-8.7836,-8.7995,-8.839,-8.894,-8.9674,-9.0372,-9.0886,-8.9748,-8.9197,-8.9711,-8.9528,-8.9602,-9.0152,-9.1216,-9.1803,-9.1803,-9.0739,-9.0335,-9.0592,-9.1106,-9.2274,-9.4123,-9.4938,-9.6596,-9.8864,-9.8379,-9.829,-9.8522,-9.7498,-9.646,-9.5437,-9.463,-9.3822,-9.3015,-9.2134,-9.2296,-9.3083,-9.3821,-9.5084,-9.654,0.0,0.0,0.0,0.0,0.0,0.0,0.0,0.0,-5.5703,-5.5703,0.0,0.0,0.0,0.0,-5.6588,-5.6588,-5.7627,-5.8396,-5.8665,-5.8704,-5.8434,-5.7857,-5.8127,-5.8165,-5.7857,-5.8934,-5.9935,-6.0781,-6.1935,-6.4243,-6.759,-6.9283,-7.2014,-7.5476,-7.3514,-7.4361,-7.7092,-7.3707,-7.2052,-7.2129,-7.6092,-7.8554,-8.0131,-8.2978,-8.5093,-8.6132,-8.3054,-8.0669,-7.89,-7.8323,-7.6053,-7.3168,-7.1168,-6.8744,-6.659,-6.6051,-6.5897,-6.6513,-6.9321,-7.0283,-7.1514,-7.5784,-7.8784,-8.167,-8.567,-8.7902,-8.9825,-9.2364,-9.2441,-9.1964,-9.1721,-9.1683,-9.1237,-8.9992,-8.9629,-8.9187,-8.8238,-8.8659,-8.9197,-8.9748,-9.0519,-9.1216,-9.173,-9.0335,-8.9748,-9.0555,-8.9858,-8.9784,-9.0555,-9.1363,-9.1546,-9.1033,-9.1289,-9.1287,-9.1011,-9.2598,-9.4376,-9.6194,-9.6718,-9.7944,-9.9758,-9.8668,-9.8145,-9.8102,-9.6751,-9.5793,-9.5034,-9.4226,-9.3418,-9.2611,-9.2024,-9.2296,-9.3083,-9.3821,-9.5084,-9.6501,0.0,0.0,0.0,0.0,0.0,0.0,-5.578,-5.578,-5.578,-5.578,0.0,0.0,0.0,0.0,0.0,-5.8434,-5.9896,-6.0473,-5.9627,-5.955,-5.9511,-5.9511,-5.8781,-5.8742,-5.9473,-5.9511,-5.9935,-6.0781,-6.2474,-6.4166,-6.5897,-6.759,-7.0629,-7.4514,-7.2091,-7.3322,-7.7207,-7.713,-7.5745,-7.4168,-8.0785,-8.1054,-7.8438,-8.6748,-8.794,-8.5055,-8.4209,-8.4362,-8.4709,-8.3054,-8.1785,-8.0208,-7.5861,-7.0552,-6.5936,-6.5897,-6.5897,-6.5897,0.0,0.0,0.0,-7.4245,-7.3976,-7.5245,-8.6786,-8.7017,-8.644,-9.2326,-9.3518,-9.3332,-9.2744,-9.2595,-9.1857,-8.9527,-8.9812,-8.9817,-8.8412,-8.9601,-9.0592,-9.0592,-9.1326,-9.1803,-9.1803,-9.0335,-8.9748,-9.0592,-8.9895,-8.9784,-9.0592,-9.1363,-9.1069,-8.9492,-9.1876,-9.2746,-9.1895,-9.5064,-9.7049,-9.7857,-9.7762,-9.8177,-9.8923,-9.7243,-9.6501,-9.6489,-9.5707,-9.4941,-9.4227,-9.3418,-9.2574,-9.1803,-9.1803,-9.2296,-9.3083,-9.3821,-9.5046,-9.6463,0.0,0.0,0.0,0.0,0.0,-5.6857,-5.7473,-5.7588,-5.7588,0.0,0.0,0.0,-5.8088,-5.9242,-6.0589,-6.182,-6.182,-6.1639,-6.1408,-6.0781,-6.0165,-5.9511,-5.9896,-5.9935,-5.9511,-6.0127,-6.055,-6.0781,-6.1897,-6.3281,-6.5013,-6.7321,-7.0014,-7.2899,-7.3437,-7.4322,-7.5284,-7.3437,-7.3707,-7.5592,-7.8669,-8.1054,-8.3324,-8.8094,-9.0479,-9.121,-9.0979,-8.9094,-8.6748,-8.6863,-8.267,-7.6553,-7.1668,-6.859,-6.6628,-6.6051,-6.5897,-6.5897,-6.5897,0.0,0.0,0.0,0.0,0.0,-7.7284,-8.0169,-8.3478,-8.8171,-8.9133,-9.0021,-9.2872,-9.2954,-9.2237,-9.1076,-9.0653,-9.0131,-8.9191,-8.9968,-9.0592,-9.0592,-9.1326,-9.1803,-9.1803,-9.0335,-8.9968,-9.1363,-9.0188,-9.0005,-9.14,-9.1693,-9.1583,-9.1143,-9.2954,-9.4057,-9.4398,-9.6417,-9.8149,-9.953,-9.8345,-9.8221,-9.8922,-9.6718,-9.571,-9.567,-9.4323,-9.392,-9.4194,-9.3417,-9.2574,-9.1803,-9.1803,-9.2296,-9.3083,-9.3821,-9.4705,-9.5623,0.0,0.0,-5.6088,-5.7319,-5.7819,-5.8473,-5.9704,-5.9896,-6.0012,0.0,0.0,0.0,-6.1973,-6.282,-6.382,-6.4782,-6.4128,-6.3358,-6.2666,-6.182,-6.0935,-6.0089,-6.0858,-6.1089,-6.0589,-6.1089,-6.1331,-6.1331,-6.1473,-6.2243,-6.3589,-6.5436,-6.7628,-7.009,-7.1091,-7.2322,-7.3514,-7.1321,-7.2552,-7.6399,-8.0939,-8.317,-8.4324,-8.9171,-9.0787,-9.071,-9.2133,-9.0402,-8.7748,-9.0017,-8.5363,-7.7977,-7.4322,-7.1091,-6.8321,-6.6436,-6.6667,-6.7321,-6.659,-6.6667,-6.7128,-6.7821,0.0,0.0,-7.713,-7.9746,-8.3016,-8.9748,-9.1095,-9.1754,-9.3926,-9.3961,-9.3359,-9.2354,-9.1844,-9.1177,-9.0038,-9.0592,-9.1106,-9.1106,-9.151,-9.1803,-9.1803,-9.0665,-9.0445,-9.1693,-9.0629,-9.0482,-9.173,-9.1803,-9.1657,-9.1326,-9.3193,-9.4596,-9.5381,-9.6931,-9.8529,-10.0098,-9.8148,-9.7475,-9.7895,-9.548,-9.4392,-9.439,-9.3474,-9.3273,-9.37,-9.357,-9.3207,-9.2728,-9.2397,-9.2566,-9.3083,-9.3821,-9.4372,-9.4891,0.0,0.0,-5.6434,-5.8242,-5.9242,-6.0396,-6.2255,-6.2524,-6.2781,0.0,-6.3589,-6.4589,-6.7244,-6.7436,-6.7398,-6.7513,-6.6705,-6.5474,-6.382,-6.2704,-6.1793,-6.1089,-6.1743,-6.2139,-6.2216,-6.2139,-6.2101,-6.2101,-6.1243,-6.1281,-6.2255,-6.2974,-6.4628,-6.6974,-6.7051,-6.8821,-7.1706,-7.0591,-7.2552,-7.7053,-8.4555,-8.5632,-8.3401,-8.9787,-9.0017,-8.7325,-9.0402,-9.0017,-8.8632,-9.1979,-8.8632,-8.2593,-8.0246,-7.6092,-7.1283,-6.7552,-6.8321,-6.9975,-6.7936,-6.8013,-6.8975,-7.0167,-6.9129,0.0,-8.0631,-8.1554,-8.2862,-9.2133,-9.4134,-9.4158,-9.3955,-9.3937,-9.3476,-9.2069,-9.2213,-9.2124,-9.0919,-9.1363,-9.1803,-9.1803,-9.1803,-9.1803,-9.1803,-9.1069,-9.0922,-9.173,-9.1214,-9.114,-9.1767,-9.1875,-9.1581,-9.0882,-9.3107,-9.4744,-9.5653,-9.7032,-9.8528,-10.0096,-9.7604,-9.6375,-9.63,-9.403,-9.2977,-9.2941,-9.2966,-9.2987,-9.3083,-9.3878,-9.4184,-9.4047,-9.3295,-9.2987,-9.3083,-9.3735,-9.4047,-9.4292,-5.5703,-5.6252,-5.7522,-5.9896,-6.1012,-6.2397,-6.4782,-6.5166,-6.5205,-6.5359,-6.5397,-6.659,-6.9821,-6.959,-6.9436,-7.009,-6.8783,-6.7475,-6.6436,-6.3678,-6.232,-6.2781,-6.2358,-6.2397,-6.3051,-6.2435,-6.2101,-6.2101,-6.1243,-6.1589,-6.3089,-6.3243,-6.432,-6.6167,-6.6821,-6.7859,-6.9321,-7.1745,-7.5207,-7.9131,-8.0092,-8.2439,-8.5747,-8.9133,-9.1171,-9.2287,-9.2979,-9.2903,-9.2172,-9.0287,-8.8671,-8.6324,-7.9823,-7.84,-7.79,-7.1745,-7.2245,-7.3937,-7.0206,-6.9783,-7.0014,-6.8282,-7.0052,0.0,-7.0821,-7.286,-7.5938,-7.9285,-8.0516,-8.1984,-8.5284,-8.5934,-8.5714,-8.4727,-8.7487,-9.0221,-9.1395,-9.1693,-9.1803,-9.1803,-9.1803,-9.1803,-9.1803,-9.1069,-9.0922,-9.173,-9.2251,-9.2316,-9.1803,-9.2434,-9.2691,-9.2542,-9.4175,-9.5777,-9.7257,-9.8134,-9.9076,-10.0096,-9.7604,-9.6096,-9.546,-9.3768,-9.2643,-9.2096,-9.2707,-9.2987,-9.3114,-9.4424,-9.4668,-9.4047,-9.3295,-9.2987,-9.3019,-9.3177,-9.3589,-9.4238,-5.578,-5.6742,-5.8434,-6.1023,-6.2512,-6.4359,-6.7321,-6.7782,-6.809,-6.8936,-6.9436,-7.0321,-7.2014,-7.186,-7.1783,-7.2168,-7.0629,-6.9206,-6.8219,-6.5564,-6.3666,-6.2923,-6.3205,-6.3563,-6.3935,-6.3115,-6.2704,-6.2704,-6.1435,-6.1243,-6.205,-6.2512,-6.4743,-6.8321,-6.659,-6.8436,-7.2783,-7.1975,-7.3783,-7.7592,-8.14,-8.5478,-8.9556,-9.2133,-9.3864,-9.5018,-9.5018,-9.4711,-9.3941,-9.1441,-8.9171,-8.6824,-8.3401,-8.2054,-8.0516,-7.4553,-7.4899,-7.6207,-7.1552,-7.0591,-7.0706,-6.986,-7.0321,0.0,0.0,-7.3476,-7.5168,-7.9015,-8.0131,-8.1093,-8.3208,-8.3662,-8.3563,-8.3229,-8.6374,-8.8657,-8.7965,-9.0807,-9.295,-9.295,-9.2595,-9.2399,-9.2399,-9.1686,-9.1542,-9.2328,-9.2798,-9.2987,-9.295,-9.3319,-9.353,-9.353,-9.4643,-9.602,-9.7691,-9.7611,-9.8173,-9.9404,-9.697,-9.5596,-9.5211,-9.3687,-9.2987,-9.2982,-9.3349,-9.3764,-9.4184,-9.5295,-9.5533,-9.5096,-9.3991,-9.353,-9.353,-9.353,-9.3793,-9.4265,-5.5895,-5.7088,-5.9088,-6.1678,-6.3743,-6.6128,-6.9244,-6.9975,-7.0667,-7.2014,-7.3091,-7.3822,-7.3976,-7.4591,-7.4976,-7.4976,-7.3668,-7.2168,-7.0604,-6.8372,-6.6282,-6.4449,-6.4666,-6.514,-6.5782,-6.4154,-6.3308,-6.3308,-6.1627,-6.0973,-6.1281,-6.2012,-6.4974,-6.959,-6.7167,-6.959,-7.5399,-7.2437,-7.3283,-7.7284,-8.4324,-8.8402,-9.0671,-9.4057,-9.5326,-9.5403,-9.6057,-9.5865,-9.4903,-9.271,-8.9825,-8.694,-8.617,-8.4939,-8.2631,-7.6899,-7.7476,-7.8823,-7.3553,-7.2245,-7.2283,-7.2014,-7.0898,-7.0975,0.0,0.0,0.0,-7.9746,-8.0669,-8.0669,-8.0669,-8.0939,-8.108,-8.085,-8.4342,-8.599,-8.2831,-8.8115,-9.229,-9.214,-9.2661,-9.2726,-9.2061,-9.1293,-9.1378,-9.2886,-9.2523,-9.2763,-9.4037,-9.4238,-9.4319,-9.4319,-9.5043,-9.6211,-9.7914,-9.6998,-9.7288,-9.8788,-9.6504,-9.5341,-9.5166,-9.3963,-9.3677,-9.4102,-9.4265,-9.4553,-9.5072,-9.5961,-9.6232,-9.5961,-9.4604,-9.4102,-9.4102,-9.3935,-9.3991,-9.4292,-5.6011,-5.7088,-5.9088,-6.1678,-6.4717,-6.7475,-6.9398,-7.0975,-7.1975,-7.2168,-7.3591,-7.4861,-7.563,-7.8438,-8.0246,-8.0246,-8.0054,-7.8592,-7.5438,-7.286,-7.136,-7.1091,-6.7667,-6.7128,-7.0129,-6.5667,-6.3308,-6.3308,-6.1627,-6.155,-6.3012,-6.3128,-6.3935,-6.5474,-6.9552,-7.0629,-6.9706,-7.4437,-7.9246,-8.3901,-8.5555,-8.4709,-8.3093,-8.9363,-9.1787,-9.2172,-9.5211,-9.6249,-9.5557,-9.1556,-9.0402,-8.9479,-8.2785,-8.4516,-8.744,-7.9361,-8.09,-8.3978,-7.813,-7.7092,-7.6592,-7.2129,-7.3091,-7.3937,-6.9436,0.0,-7.1091,-7.0283,0.0,-7.0129,-7.0129,0.0,0.0,-7.0392,-7.6156,-7.9905,-7.7269,-8.2105,-8.5704,-8.5147,-8.9735,-9.1801,-8.8772,-8.7687,-8.8795,-9.2726,-9.0695,-9.0697,-9.3941,-9.4743,-9.5072,-9.5072,-9.5852,-9.7025,-9.8673,-9.7789,-9.7865,-9.8788,-9.7039,-9.5841,-9.5189,-9.5048,-9.463,-9.413,-9.4793,-9.4768,-9.4345,-9.572,-9.5902,-9.5234,-9.4424,-9.4102,-9.4019,-9.3356,-9.353,-9.4211,-5.678,-5.7819,-5.9665,-6.1755,-6.4486,-6.7128,-6.936,-7.1937,-7.3476,-7.3014,-7.5245,-7.6669,-7.6053,-7.813,-7.9192,-7.8223,-7.9485,-7.8692,-7.4779,-7.4462,-7.3206,-7.0566,-6.896,-6.8306,-6.8706,-6.5628,-6.382,-6.3308,-6.2127,-6.1897,-6.2627,-6.3589,-6.6359,-7.0552,-7.2206,-7.5091,-7.8631,-7.8169,-7.9823,-8.2708,-8.3054,-8.2362,-8.2054,-9.0825,-9.4172,-9.4364,-9.5788,-9.6288,-9.6019,-9.421,-9.1556,-8.894,-8.8709,-8.7171,-8.5093,-8.3016,-8.2785,-8.2324,-7.8361,-7.8246,-7.84,-7.4745,-7.4938,-7.5091,-7.1629,-7.0514,-7.0014,-6.9321,0.0,0.0,0.0,0.0,0.0,0.0,-7.463,-7.7476,-7.4899,-8.0092,-8.4059,-8.3771,-8.5606,-8.7155,-8.7698,-8.7056,-8.8757,-9.3909,-9.0879,-9.0727,-9.5134,-9.5678,-9.5841,-9.5841,-9.6148,-9.7152,-9.8788,-9.7942,-9.7942,-9.8788,-9.7557,-9.6597,-9.5841,-9.5385,-9.5234,-9.5363,-9.5234,-9.5273,-9.5407,-9.604,-9.6117,-9.5762,-9.5048,-9.4743,-9.4718,-9.4398,-9.4476,-9.4842,-5.8253,-5.9011,-6.0319,-6.1831,-6.4397,-6.709,-6.9629,-7.2091,-7.3707,-7.3822,-7.6361,-7.8054,-7.7746,-7.9438,-8.0215,-7.9307,-8.1507,-8.1631,-7.8538,-7.7746,-7.6207,-7.3605,-7.1266,-7.0099,-7.0206,-6.6987,-6.4871,-6.4012,-6.2935,-6.2666,-6.3178,-6.4397,-6.7821,-7.3014,-7.3822,-7.7707,-8.3555,-8.1246,-8.1631,-8.3862,-8.3862,-8.4439,-8.5978,-9.2441,-9.548,-9.6288,-9.6288,-9.6288,-9.6172,-9.5211,-9.2172,-8.9248,-9.1748,-8.894,-8.4978,-8.6132,-8.5247,-8.324,-8.0266,-8.0299,-8.03,-7.6657,-7.5677,-7.5014,-7.2629,-7.1052,-6.9975,-6.9744,-7.0052,0.0,0.0,0.0,-7.0167,-7.0514,0.0,-7.5091,-7.2783,-7.7092,-8.0554,-8.0785,-8.1001,-8.238,-8.5675,-8.4615,-8.6437,-9.2962,-8.969,-8.9994,-9.6,-9.6288,-9.6288,-9.6288,-9.6519,-9.7326,-9.8788,-9.7942,-9.7942,-9.8788,-9.7673,-9.6865,-9.6269,-9.5741,-9.5783,-9.6269,-9.572,-9.5821,-9.6288,-9.6288,-9.6288,-9.6251,-9.572,-9.5511,-9.549,-9.5257,-9.5189,-9.5318,-6.0512,-6.0704,-6.105,-6.1947,-6.4859,-6.7898,-7.0475,-7.0937,-7.1898,-7.4361,-7.6207,-7.8554,-8.1747,-8.4346,-8.6291,-8.7346,-8.95,-9.0783,-9.0653,-8.4565,-8.1977,-8.4286,-7.5707,-7.3129,-7.8015,-7.0821,-6.6628,-6.582,-6.4089,-6.4128,-6.5782,-6.582,-6.6859,-6.8821,-7.3745,-7.6553,-7.79,-8.267,-8.7094,-9.0864,-9.0864,-9.2864,-9.548,-9.2518,-9.3441,-9.6288,-9.6288,-9.6288,-9.5788,-9.2479,-9.1787,-9.1633,-8.7632,-8.8479,-9.0441,-8.8055,-8.9017,-9.0026,-8.6041,-8.4846,-8.3187,-7.6653,-7.4912,-7.3668,-6.9513,-6.9744,-7.0629,-6.986,-7.0975,-7.186,-7.0975,-7.0821,-7.0629,-6.986,-7.1206,0.0,0.0,-7.1398,-7.286,-7.3707,-7.6032,-7.8635,-8.1332,-7.8539,-8.0023,-8.8374,-8.5741,-8.7423,-9.5865,-9.6288,-9.6288,-9.6288,-9.7057,-9.7904,-9.8788,-9.7942,-9.7942,-9.8788,-9.7134,-9.6326,-9.6288,-9.6269,-9.6269,-9.6288,-9.6269,-9.6269,-9.6288,-9.6288,-9.6288,-9.6288,-9.6269,-9.6269,-9.6155,-9.5451,-9.5189,-9.5318,-6.182,-6.3012,-6.3897,-6.3051,-6.4782,-6.7321,-7.0437,-7.1898,-7.3745,-7.6823,-7.8746,-8.05,-8.2353,-8.4676,-8.6252,-8.6659,-8.8423,-8.8748,-8.6803,-8.4225,-8.2631,-8.2401,-7.663,-7.4476,-7.6784,-7.2091,-6.8936,-6.7552,-6.6974,-6.6974,-6.759,-6.8129,-6.9629,-7.1975,-7.6515,-8.0246,-8.3285,-8.5593,-8.8363,-9.121,-9.121,-9.2556,-9.4595,-9.4595,-9.5288,-9.6288,-9.6288,-9.6288,-9.6134,-9.498,-9.3287,-9.1787,-9.2595,-9.0556,-8.8209,-9.0171,-8.9787,-8.854,-8.7874,-8.9319,-8.9281,-8.2087,-8.0997,-7.9995,-7.3474,-7.2315,-7.2206,-7.0783,-7.186,-7.2629,-7.1168,-7.136,-7.1475,-7.0629,-7.1437,-7.1783,0.0,-7.0975,-7.1437,-7.1745,-7.4656,-7.7132,-7.8559,-7.9705,-8.291,-8.9075,-8.8451,-9.0287,-9.598,-9.6288,-9.6288,-9.6288,-9.6557,-9.7096,-9.7942,-9.7634,-9.7634,-9.7942,-9.7365,-9.6826,-9.6288,-9.6288,-9.6288,-9.6288,-9.6288,-9.6288,-9.6288,-9.6288,-9.6288,-9.6288,-9.6288,-9.6288,-9.6269,-9.602,-9.5941,-9.5981,-6.3986,-6.4974,-6.5628,-6.482,-6.659,-6.8744,-7.0629,-7.3168,-7.5822,-7.8592,-8.0746,-8.2577,-8.4198,-8.5769,-8.6885,-8.7274,-8.8692,-8.8269,-8.5198,-8.4692,-8.4132,-8.3362,-7.9515,-7.8092,-7.9554,-7.5361,-7.2322,-7.0629,-6.9744,-6.9283,-6.9321,-6.986,-7.1321,-7.363,-7.663,-8.0862,-8.5747,-8.6901,-8.9556,-9.3018,-9.3018,-9.3672,-9.4711,-9.5518,-9.5634,-9.548,-9.6095,-9.6288,-9.6288,-9.6288,-9.4826,-9.3403,-9.5595,-9.3287,-9.0287,-9.3056,-9.2332,-9.0628,-9.0492,-9.206,-9.2382,-8.6409,-8.5665,-8.4543,-7.763,-7.6436,-7.6262,-7.4427,-7.4476,-7.5245,-7.6515,-7.4514,-7.2976,-7.3899,-7.2745,-7.1552,0.0,-7.0898,-7.0898,-7.0898,-7.2907,-7.5102,-7.71,-7.7713,-8.1262,-8.929,-8.8209,-8.9863,-9.598,-9.6288,-9.6288,-9.6288,-9.6288,-9.6673,-9.748,-9.7211,-9.7211,-9.7519,-9.7211,-9.6788,-9.6288,-9.6288,-9.6288,-9.6288,-9.6288,-9.6288,-9.6288,-9.6288,-9.6288,-9.6288,-9.6288,-9.6288,-9.6288,-9.6288,-9.6288,-9.6288,-6.6821,-6.659,-6.6397,-6.7205,-6.9975,-7.186,-7.1091,-7.4553,-7.7938,-7.9746,-8.217,-8.4709,-8.7325,-8.7808,-8.8385,-8.95,-9.0577,-8.9808,-8.656,-8.6231,-8.6594,-8.7555,-8.4209,-8.3555,-8.6094,-8.04,-7.6592,-7.4899,-7.2322,-7.1052,-7.1014,-7.1014,-7.1937,-7.3577,-7.4437,-7.8592,-8.5093,-8.6748,-9.0864,-9.6288,-9.6288,-9.6211,-9.6019,-9.5288,-9.4403,-9.3787,-9.5595,-9.6249,-9.6249,-9.6288,-9.6288,-9.6288,-9.6288,-9.6288,-9.6288,-9.6288,-9.6426,-9.6114,-9.392,-9.3363,-9.2713,-8.9571,-8.8584,-8.702,-8.1767,-8.179,-8.2363,-8.0506,-7.8861,-7.9669,-8.5863,-7.9785,-7.5053,-7.8784,-7.4514,-7.0783,-7.0783,-7.0821,-7.086,-7.0898,-7.1091,-7.2706,-7.6553,-7.2976,-7.5707,-8.8556,-8.5247,-8.6632,-9.5826,-9.6057,-9.6057,-9.6288,-9.6288,-9.6673,-9.7442,-9.6673,-9.6673,-9.7442,-9.6673,-9.6288,-9.6288,-9.6288,-9.6288,-9.6288,-9.6288,-9.6288,-9.6288,-9.6288,-9.6288,-9.6288,-9.6288,-9.6288,-9.6288,-9.6288,-9.6288,-9.6288,-6.7398,-6.8475,-6.9898,-7.0744,-7.1091,-7.136,-7.1783,-7.4938,-7.8592,-8.217,-8.4286,-8.6671,-8.9863,-9.0287,-9.0441,-9.0748,-9.1018,-9.0825,-8.9962,-8.8132,-8.8017,-9.0133,-8.5747,-8.4439,-8.7017,-8.1862,-7.8631,-7.7515,-7.4976,-7.3437,-7.2822,-7.2822,-7.3399,-7.4476,-7.5976,-8.0054,-8.5901,-8.7632,-9.1441,-9.6288,-9.6288,-9.5172,-9.3595,-9.4595,-9.3672,-9.2133,-9.448,-9.5326,-9.5441,-9.6095,-9.6288,-9.6288,-9.6288,-9.6288,-9.6288,-9.6288,-9.6426,-9.6514,-9.6118,-9.6631,-9.6539,-9.3308,-9.1882,-9.0345,-8.6864,-8.5805,-8.532,-8.4612,-8.467,-8.417,-8.2131,-7.9823,-7.7092,-7.3745,-7.086,-6.9052,-6.9052,-6.959,-7.0244,-7.0821,-7.3707,-7.4591,-7.1898,-7.6746,-8.1208,-8.4055,-8.5978,-8.9748,-9.598,-9.271,-9.2402,-9.6172,-9.6288,-9.6403,-9.6596,-9.6403,-9.6403,-9.6596,-9.6403,-9.6288,-9.6288,-9.6288,-9.6288,-9.6288,-9.6288,-9.6288,-9.6288,-9.6288,-9.6288,-9.6288,-9.6288,-9.6288,-9.6288,-9.6288,-9.6288,-9.6288,-6.9552,-7.1052,-7.2706,-7.3206,-7.413,-7.4976,-7.5438,-7.7784,-8.0592,-8.3747,-8.594,-8.7995,-8.9919,-9.0748,-9.121,-9.121,-9.121,-9.0748,-8.9594,-8.9248,-8.921,-8.9517,-8.7863,-8.7594,-8.9017,-8.517,-8.2131,-8.0169,-7.7592,-7.5399,-7.3514,-7.3514,-7.3745,-7.4284,-7.6361,-7.9554,-8.3593,-8.7555,-9.1325,-9.4672,-9.5018,-9.4518,0.0,-9.3826,-9.3018,-9.1979,-9.3403,-9.4364,-9.5057,-9.5557,-9.598,-9.6288,-9.6288,-9.6288,-9.6288,-9.6288,-9.6514,-9.6815,-9.6974,-9.7616,-9.7908,-9.6483,-9.5699,-9.4373,-9.1084,-9.0178,-8.9675,-8.855,-8.7825,-8.744,-8.7517,-8.2978,-7.7284,-7.1321,-6.959,-6.8975,-6.8975,-6.9052,-6.959,-7.0744,-7.2706,-7.286,-6.9975,-7.7784,-8.2824,-8.2324,-8.4901,-8.8363,-9.2749,-9.1325,-9.2172,-9.6172,-9.5942,-9.5903,-9.6288,-9.5557,-9.5557,-9.6288,-9.6288,-9.6288,-9.6288,-9.6288,-9.6288,-9.6288,-9.6288,-9.6288,-9.6288,-9.6288,-9.6288,-9.6288,-9.6288,-9.6288,-9.6288,-9.6288,-9.6288,-9.6288,-7.2245,-7.3707,-7.4899,-7.5014,-7.7784,-8.0131,-8.0554,-8.1977,-8.3516,-8.5016,-8.7457,-8.9034,-8.9034,-9.0325,-9.121,-9.121,-9.121,-9.0248,-8.8055,-8.9979,-9.021,-8.7979,-9.0017,-9.121,-9.121,-8.8709,-8.5709,-8.2285,-7.9746,-7.6746,-7.3322,-7.3437,-7.3437,-7.3437,-7.5976,-7.8477,-8.1208,-8.7352,-9.1065,-9.2914,-9.3491,-9.4146,-9.4531,-9.3054,-9.2441,-9.2326,-9.2326,-9.3403,-9.4826,-9.496,-9.5557,-9.6288,-9.6288,-9.6288,-9.6288,-9.6288,-9.6638,-9.7012,-9.7012,-9.7324,-9.789,-9.8633,-9.8828,-9.796,-9.4647,-9.4489,-9.4504,-9.265,-9.0389,-9.0411,-9.5691,-8.7094,-7.7323,-7.1629,-7.0591,-7.0744,-7.1437,-7.0283,-6.9975,-7.1552,-7.1706,0.0,-6.9821,-7.6823,0.0,0.0,-8.1977,-8.4209,-8.8632,-9.021,-9.2633,-9.6211,-9.5557,-9.5403,-9.5942,-9.4672,-9.4672,-9.598,-9.6211,-9.6288,-9.6288,-9.6288,-9.6288,-9.6288,-9.6288,-9.6288,-9.6288,-9.6288,-9.6288,-9.6288,-9.6288,-9.6288,-9.6326,-9.648,-9.6711,-9.6922,-7.336,-7.463,-7.6015,-7.6707,-7.9092,-8.1785,-8.4555,-8.5863,-8.6632,-8.6901,-8.9171,-9.0748,-9.0748,-9.1018,-9.121,-9.121,-9.121,-9.1018,-9.0556,-9.0941,-9.1018,-9.0556,-9.0979,-9.121,-9.121,-8.8709,-8.5709,-8.2285,-7.9746,-7.6399,-7.2437,-7.3168,-7.3129,-7.2552,-7.5091,-7.99,-8.6242,-8.905,-9.2,-9.4772,-9.423,-9.3688,-9.3157,-9.2657,-9.2056,-9.1441,-9.1441,-9.2518,-9.4018,-9.4749,-9.5557,-9.6288,-9.6288,-9.6288,-9.6288,-9.6288,-9.6638,-9.7012,-9.7012,-9.7324,-9.7734,-9.789,-9.7929,-9.7887,-9.7719,-9.7806,-9.7947,-9.7805,-9.689,-9.5292,-9.2781,-8.7055,-8.1208,-7.6707,-7.5361,-7.6361,-8.0554,-7.74,-7.5053,-7.6053,-7.9746,-7.8938,-7.0514,-7.4207,0.0,0.0,0.0,-7.9477,-8.9171,-8.5517,-8.7132,-9.6019,-9.6134,-9.5441,-9.4172,-9.5288,-9.5288,-9.4172,-9.5595,-9.6288,-9.6288,-9.6288,-9.6288,-9.6288,-9.6288,-9.6288,-9.6288,-9.6288,-9.6288,-9.6288,-9.6288,-9.6288,-9.6403,-9.7288,-9.8788,-10.0095,-7.6746,-7.7053,-7.7861,-7.9592,-8.167,-8.4055,-8.7017,-8.8556,-8.9056,-8.8171,-8.9133,-8.9919,-8.9919,-9.0671,-9.121,-9.121,-9.121,-9.121,-9.121,-9.121,-9.121,-9.121,-9.121,-9.121,-9.121,-9.0017,-8.7286,-8.2978,-8.0862,-7.7476,-7.286,-7.2822,-7.236,-7.1706,-7.5553,-8.0054,-8.4972,-8.8246,-9.0831,-9.2715,-9.2741,-9.2779,-9.2739,-9.2074,-9.1556,-9.121,-9.121,-9.2018,-9.321,-9.4018,-9.4903,-9.5711,-9.6172,-9.6288,-9.6288,-9.6288,-9.6529,-9.6792,-9.6792,-9.7043,-9.7324,-9.7324,-9.7444,-9.7571,-9.7753,-9.8564,-9.9221,-9.8808,-9.866,-9.6914,-9.1527,-8.6748,-8.2939,-8.09,-7.8361,-7.8438,-8.3555,-8.1785,-8.04,-8.1708,-8.367,-8.2093,-7.4976,-7.5745,0.0,0.0,0.0,-7.99,-9.0017,-8.6209,-8.7748,-9.6634,-9.6095,-9.5441,-9.5057,-9.498,-9.498,-9.5057,-9.5903,-9.6288,-9.6288,-9.6288,-9.6288,-9.6288,-9.6288,-9.6288,-9.6288,-9.6288,-9.6288,-9.6288,-9.6288,-9.6288,-9.6365,-9.6885,-9.8865,-10.0981,-8.0169,-7.9939,-8.0246,-8.2477,-8.4439,-8.6363,-8.8402,-9.0133,-9.0748,-8.9402,-8.9227,-8.9227,-8.9227,-9.0402,-9.121,-9.121,-9.121,-9.121,-9.121,-9.121,-9.121,-9.121,-9.121,-9.121,-9.121,-9.121,-8.8863,-8.4132,-8.2285,-7.8823,-7.4014,-7.2976,-7.2591,-7.2976,-7.6784,-8.0516,-8.4125,-8.7397,-8.9624,-9.0969,-9.1384,-9.2004,-9.2496,-9.1567,-9.121,-9.121,-9.121,-9.1748,-9.2633,-9.3441,-9.4287,-9.5134,-9.6019,-9.6288,-9.6288,-9.6288,-9.6426,-9.6588,-9.6588,-9.6804,-9.7012,-9.7012,-9.7213,-9.7382,-9.7364,-9.8714,-9.9783,-9.8982,-9.8995,-9.7233,-9.1048,-8.8055,-8.6017,-8.4401,-8.2093,-8.2054,-8.644,-8.5517,-8.517,-8.7209,-8.5286,-8.2708,-7.9862,0.0,0.0,0.0,0.0,-8.0592,-8.9402,-8.7132,-8.8902,-9.6211,-9.498,-9.4364,-9.4672,-9.4403,-9.4749,-9.5749,-9.6134,-9.6288,-9.6288,-9.6288,-9.6288,-9.6288,-9.6288,-9.6288,-9.6288,-9.6288,-9.6288,-9.6288,-9.6288,-9.6442,-9.6634,-9.6654,-9.8615,-10.1077,-8.19,-8.2631,-8.3439,-8.4478,-8.6709,-8.8402,-8.8671,-9.0133,-9.1133,-9.0979,-9.0979,-9.0979,-9.0979,-9.1095,-9.121,-9.121,-9.121,-9.121,-9.121,-9.121,-9.121,-9.121,-9.121,-9.121,-9.121,-9.121,-8.944,-8.5863,-8.3401,-7.9977,-7.5745,-7.413,-7.5399,-7.8938,-7.8631,-8.2477,-8.9145,-8.8451,-9.0029,-9.288,-9.2151,-9.1926,-9.1948,-9.1408,-9.121,-9.121,-9.121,-9.1748,-9.2633,-9.3441,-9.4287,-9.5134,-9.6019,-9.6288,-9.6288,-9.6288,-9.6426,-9.6588,-9.6588,-9.6804,-9.7012,-9.7012,-9.7213,-9.7602,-9.8373,-9.9424,-10.0291,-10.0487,-9.9633,-9.6997,-9.0979,-9.3364,-9.3941,-8.6978,-8.8786,-9.1748,-9.3749,-9.0017,-8.8248,-9.1518,-8.5016,-8.1016,-8.2939,-7.4707,0.0,0.0,-7.7938,-7.8015,-8.5132,-8.4439,-8.6632,-9.2787,-9.2056,-9.0864,-8.944,-9.3826,-9.5365,-9.3941,-9.5557,-9.6288,-9.6288,-9.6288,-9.6288,-9.6288,-9.6288,-9.6288,-9.6288,-9.6288,-9.6288,-9.6288,-9.6288,-9.6903,-9.775,-9.7731,-9.925,-10.1289,-8.5286,-8.4824,-8.4978,-8.6841,-8.7171,-8.7846,-8.9902,-9.0787,-9.121,-9.121,-9.121,-9.121,-9.121,-9.121,-9.121,-9.121,-9.121,-9.121,-9.121,-9.121,-9.121,-9.121,-9.121,-9.1441,-9.1979,-9.1479,-9.0056,-8.7671,-8.4055,-8.0631,-7.7476,-7.6823,-7.8515,-8.2131,-8.3324,-8.5824,-8.9316,-9.1113,-9.2381,-9.319,-9.2809,-9.239,-9.186,-9.1385,-9.121,-9.121,-9.121,-9.1748,-9.2633,-9.3441,-9.4287,-9.5134,-9.6019,-9.6288,-9.6288,-9.6288,-9.6338,-9.6415,-9.6415,-9.6506,-9.659,-9.659,-9.7134,-9.783,-9.833,-9.9695,-10.088,-10.1009,-9.9961,-9.8102,-9.5034,-9.3633,-9.2941,-9.2941,-9.2249,-9.3018,-9.6749,-9.5518,-9.4749,-9.6134,-9.3287,-9.0402,-8.8363,-8.1708,-7.8361,-8.04,-7.4553,-7.5207,-8.5093,-8.4324,-8.5401,-8.9325,-9.2595,-9.2941,-9.021,-9.4249,-9.5942,-9.5288,-9.598,-9.6288,-9.6288,-9.6288,-9.6019,-9.5557,-9.6057,-9.6019,-9.5557,-9.6095,-9.6288,-9.6365,-9.6826,-9.7365,-9.7942,-9.8308,-9.9654,-10.1308,-8.794,-8.694,-8.6748,-8.9034,-8.844,-8.8423,-9.0825,-9.1479,-9.1672,-9.1595,-9.1595,-9.1479,-9.1248,-9.121,-9.121,-9.121,-9.121,-9.121,-9.121,-9.1441,-9.1595,-9.1595,-9.1825,-9.221,-9.2826,-9.2249,-9.1248,-8.9825,-8.6017,-8.2978,-8.0708,-7.9977,-8.1593,-8.517,-8.6978,-8.8671,-9.0338,-9.3141,-9.3967,-9.3423,-9.32,-9.2705,-9.2099,-9.1724,-9.1595,-9.1595,-9.1864,-9.2479,-9.3326,-9.3903,-9.4672,-9.548,-9.6095,-9.6288,-9.6288,-9.6288,-9.6288,-9.6288,-9.6288,-9.6288,-9.6288,-9.6288,-9.7156,-9.8127,-9.8579,-9.9988,-10.1206,-10.0987,-10.0182,-9.9078,-9.7729,-9.4557,-9.2903,-9.5249,-9.421,-9.398,-9.6596,-9.7134,-9.7288,-9.7288,-9.4864,-9.2979,-9.2364,-8.5901,-8.1977,-8.2554,-7.6784,-7.7015,-8.5632,-8.4747,-8.5478,-8.8786,-9.2749,-9.3633,-9.121,-9.4595,-9.6288,-9.6288,-9.6057,-9.5903,-9.5903,-9.5903,-9.5557,-9.5057,-9.6172,-9.6172,-9.5441,-9.6288,-9.6634,-9.6711,-9.7288,-9.7942,-9.8557,-9.8538,-9.9558,-10.0808,-8.9192,-8.9017,-8.9171,-9.0864,-9.1171,-9.1171,-9.121,-9.2172,-9.2805,-9.2518,-9.2479,-9.2172,-9.1287,-9.121,-9.121,-9.121,-9.121,-9.121,-9.121,-9.2018,-9.2479,-9.2479,-9.3249,-9.3672,-9.3672,-9.3672,-9.3249,-9.2441,-8.9863,-8.7709,-8.594,-8.3439,-8.4516,-8.8632,-8.8671,-9.0517,-9.3669,-9.3978,-9.4096,-9.4019,-9.3141,-9.2793,-9.2791,-9.2575,-9.2479,-9.2595,-9.3364,-9.421,-9.498,-9.498,-9.5557,-9.6288,-9.6288,-9.6288,-9.6288,-9.6288,-9.6288,-9.6288,-9.6288,-9.6288,-9.6288,-9.6288,-9.7299,-9.8539,-9.9404,-10.0377,-10.0983,-10.0509,-10.0226,-9.9577,-9.7827,-9.7442,-9.6057,-9.1941,-9.4749,-9.6288,-9.3018,-9.3249,-9.3749,-9.3749,-8.5632,-8.3978,-9.398,-8.4286,-8.1516,-9.1595,-8.7594,-8.5132,-8.6055,-8.5324,-8.7209,-9.2287,-9.1672,-9.1248,-9.121,-9.4595,-9.6288,-9.6288,-9.5441,-9.5037,-9.5037,-9.5037,-9.5018,-9.5095,-9.6749,-9.7019,-9.6365,-9.7134,-9.748,-9.748,-9.7519,-9.8557,-9.9904,-9.8462,-9.8846,-9.975,-9.2172,-9.1787,-9.1441,-9.1997,-9.1577,-9.1213,-9.121,-9.15,-9.1692,-9.1633,-9.1595,-9.1518,-9.1248,-9.121,-9.121,-9.121,-9.1748,-9.2095,-9.2095,-9.2864,-9.3326,-9.3326,-9.3557,-9.398,-9.4557,-9.398,-9.3864,-9.421,-9.1056,-8.9556,-8.9517,-8.6978,-8.8363,-9.2941,-9.1787,-9.2518,-9.4593,-9.4882,-9.4962,-9.487,-9.4032,-9.3684,-9.359,-9.2806,-9.2826,-9.3364,-9.3595,-9.4249,-9.498,-9.498,-9.5557,-9.6288,-9.6288,-9.6288,-9.6288,-9.6288,-9.6288,-9.6288,-9.6288,-9.6288,-9.6442,-9.698,-9.8022,-9.9187,-10.0213,-10.1085,-10.171,-10.1412,-10.0711,-9.9904,-9.9365,-9.8788,-9.7942,-9.6596,-9.7519,-9.7827,-9.6134,-9.6634,-9.6942,-9.6365,-9.3672,-9.3133,-9.6403,-9.0171,-8.6517,-8.8017,-8.3401,-8.1939,-8.5132,-8.7786,-8.8863,-8.8171,-9.2402,-9.3557,-9.121,-9.5134,-9.6826,-9.6288,-9.6557,-9.6403,-9.5903,-9.5903,-9.5557,-9.5095,-9.6749,-9.7057,-9.6403,-9.7827,-9.8404,-9.8442,-9.9019,-9.925,-9.9211,-9.9096,-9.9365,-9.9577,-9.3326,-9.3172,-9.2864,-9.269,-9.1846,-9.1195,-9.121,-9.1731,-9.2154,-9.2133,-9.271,-9.2979,-9.2672,-9.2633,-9.2364,-9.1748,-9.2441,-9.2941,-9.2941,-9.371,-9.4172,-9.4172,-9.448,-9.4941,-9.548,-9.4941,-9.4788,-9.498,-9.2518,-9.1595,-9.2095,-9.0517,-9.1441,-9.448,-9.3749,-9.4018,-9.5055,-9.5522,-9.571,-9.5618,-9.4783,-9.4435,-9.4366,-9.3701,-9.3749,-9.4249,-9.4903,-9.548,-9.598,-9.6326,-9.6557,-9.6749,-9.6749,-9.6557,-9.6288,-9.6288,-9.6145,-9.5962,-9.6209,-9.6288,-9.648,-9.7288,-9.8424,-9.9689,-10.0991,-10.1497,-10.1501,-10.1208,-10.0589,-9.9981,-9.9673,-9.9442,-9.9173,-9.8865,-9.8788,-9.8596,-9.8057,-9.8442,-9.8019,-9.5865,-9.5634,-9.5634,-9.5634,-9.2749,-9.0864,-9.0864,-8.7902,-8.7132,-8.9517,-8.9133,-8.9171,-8.9902,-9.4057,-9.5441,-9.3595,-9.6172,-9.725,-9.6749,-9.6634,-9.6134,-9.5326,-9.5557,-9.5365,-9.4941,-9.6403,-9.725,-9.7614,-9.8442,-9.8981,-9.9288,-9.9519,-9.9481,-9.9288,-9.9288,-9.9288,-9.9269,-9.3231,-9.3441,-9.3518,-9.3036,-9.2077,-9.1328,-9.1287,-9.2749,-9.3864,-9.3787,-9.5249,-9.598,-9.5172,-9.5095,-9.4441,-9.2903,-9.3403,-9.3787,-9.3787,-9.4595,-9.5095,-9.5095,-9.5865,-9.6288,-9.6288,-9.6288,-9.5903,-9.5095,-9.421,-9.3826,-9.3864,-9.3749,-9.3749,-9.3903,-9.4672,-9.5018,-9.5134,-9.5942,-9.6326,-9.6288,-9.5365,-9.5057,-9.5172,-9.5095,-9.5095,-9.5365,-9.7019,-9.7596,-9.7711,-9.8519,-9.8211,-9.7519,-9.7519,-9.6922,-9.6248,-9.6288,-9.5853,-9.553,-9.6127,-9.6288,-9.648,-9.7325,-9.8605,-10.0105,-10.1691,-10.14,-10.0606,-10.0108,-9.9981,-9.9788,-9.9019,-9.9558,-9.9827,-9.9096,-9.8981,-9.8942,-9.8904,-9.8942,-9.748,-9.3403,-9.2941,-9.2903,-9.2864,-9.2864,-9.4364,-9.798,-9.8327,-9.798,-9.7096,-8.9671,-8.8786,-9.6134,-9.6365,-9.6749,-9.748,-9.7557,-9.7557,-9.748,-9.5865,-9.4672,-9.3903,-9.4441,-9.4711,-9.4788,-9.5846,-9.748,-9.9345,-9.8961,-9.9288,-9.9904,-9.9096,-9.925,-9.9827,-9.9058,-9.8788,-9.8865,-9.5403,-9.4518,-9.3672,-9.3518,-9.3287,-9.2903,-9.2287,-9.419,-9.5439,-9.4806,-9.5634,-9.6211,-9.6019,-9.598,-9.5826,-9.5441,-9.498,-9.4672,-9.4672,-9.5518,-9.598,-9.598,-9.6172,-9.6288,-9.6288,-9.6288,-9.6211,-9.598,-9.5095,-9.5018,-9.5672,-9.4326,-9.4403,-9.5672,-9.5211,-9.5365,-9.6019,-9.6211,-9.6634,-9.7096,-9.5595,-9.5749,-9.6826,-9.6249,-9.6365,-9.7057,-9.8096,-9.8481,-9.8519,-9.8711,-9.8211,-9.7519,-9.7519,-9.6596,-9.5633,-9.6166,-9.6207,-9.6124,-9.6286,-9.6288,-9.6533,-9.7565,-9.9151,-10.0592,-10.0991,-10.0784,-10.019,-9.9304,-9.9096,-9.925,-9.9712,-9.9942,-10.0212,-10.0596,-10.0712,-10.0519,-9.9865,-10.0289,-9.9865,-9.7596,-9.7288,-9.7057,-9.6365,-9.6326,-9.5403,-9.3172,-9.3633,-9.3595,-9.2749,-9.1441,-9.271,-9.7096,-9.7211,-9.7326,-9.7519,-9.8173,-9.8173,-9.748,-9.648,-9.5865,-9.5672,-9.5826,-9.5903,-9.5903,-9.6192,-9.6597,-9.7154,-9.8327,-9.8904,-9.9096,-9.8865,-9.8519,-9.8173,-9.8634,-9.8788,-9.8904,-9.6211,-9.5134,-9.4018,-9.3749,-9.348,-9.3249,-9.3095,-9.4459,-9.567,-9.6095,-9.6903,-9.7288,-9.6903,-9.7557,-9.7557,-9.6403,-9.5865,-9.5595,-9.5595,-9.6057,-9.6288,-9.6288,-9.6288,-9.6288,-9.6288,-9.6288,-9.6288,-9.6288,-9.5826,-9.5826,-9.6288,-9.5326,-9.5403,-9.6288,-9.5826,-9.5865,-9.6326,-9.6711,-9.7096,-9.7442,-9.6942,-9.7288,-9.8057,-9.7596,-9.7711,-9.8211,-9.9058,-9.9365,-9.9365,-9.9365,-9.8827,-9.8019,-9.7634,-9.6681,-9.5831,-9.6207,-9.6086,-9.5897,-9.6227,-9.6373,-9.6723,-9.797,-9.925,-10.032,-10.029,-9.9755,-9.9042,-9.8361,-9.8211,-9.8365,-9.8827,-9.9558,-10.0212,-10.0712,-10.1096,-10.1096,-10.0712,-10.0712,-10.0289,-9.8942,-9.8442,-9.7865,-9.7019,-9.6942,-9.6019,-9.371,-9.398,-9.4172,-9.4095,-9.4518,-9.5634,-9.7442,-9.7519,-9.7673,-9.8096,-9.8173,-9.798,-9.748,-9.6673,-9.6288,-9.6288,-9.6288,-9.6288,-9.6288,-9.6308,-9.6308,-9.6366,-9.7269,-9.8134,-9.8788,-9.8788,-9.8519,-9.8211,-9.9058,-9.9365,-9.9519,-9.6288,-9.5518,-9.4595,-9.3826,-9.3249,-9.3133,-9.3787,-9.4729,-9.5978,-9.7673,-9.8519,-9.8711,-9.798,-9.8981,-9.8904,-9.6865,-9.6557,-9.6442,-9.6326,-9.6403,-9.6442,-9.6326,-9.6442,-9.6442,-9.6288,-9.6288,-9.6288,-9.6288,-9.6288,-9.6288,-9.6288,-9.6288,-9.6288,-9.6288,-9.6288,-9.6365,-9.6519,-9.7211,-9.7634,-9.7942,-9.8557,-9.8865,-9.8981,-9.8981,-9.8981,-9.9096,-9.9981,-10.0289,-10.0289,-10.0096,-9.9519,-9.8634,-9.7788,-9.6942,-9.6288,-9.6288,-9.5897,-9.5602,-9.6166,-9.6474,-9.6975,-9.8363,-9.9045,-9.9386,-9.9386,-9.8593,-9.7743,-9.738,-9.7326,-9.7365,-9.748,-9.8827,-9.9788,-9.9365,-10.0404,-10.1096,-10.0404,-10.0212,-9.9712,-9.8711,-9.7942,-9.7173,-9.6365,-9.6288,-9.6288,-9.6288,-9.6288,-9.6596,-9.7288,-9.7442,-9.7519,-9.7519,-9.7634,-9.798,-9.8596,-9.775,-9.7326,-9.7326,-9.6634,-9.6288,-9.6288,-9.6288,-9.6288,-9.6288,-9.6288,-9.6308,-9.6289,-9.6289,-9.7231,-9.8673,-9.8634,-9.8673,-9.8904,-9.9788,-10.0096,-10.0212,-9.6288,-9.6152,-9.5555,-9.3959,-9.3249,-9.3308,-9.4595,-9.7094,-9.9018,-9.9615,-9.9788,-9.9827,-9.9712,-9.8634,-9.8057,-9.8365,-9.775,-9.7019,-9.6326,-9.6942,-9.7019,-9.6326,-9.6942,-9.7019,-9.6326,-9.6288,-9.6288,-9.6288,-9.6288,-9.6288,-9.6288,-9.6288,-9.6288,-9.6288,-9.6288,-9.6673,-9.7326,-9.7442,-9.8365,-9.9635,-9.9019,-9.925,-9.9904,-9.9904,-9.9904,-9.9981,-10.0789,-10.1096,-10.1019,-10.0289,-9.9519,-9.8634,-9.7788,-9.6942,-9.6288,-9.6288,-9.6227,-9.6186,-9.6268,-9.6609,-9.7216,-9.8386,-9.8616,-9.8491,-9.85,-9.801,-9.7342,-9.6653,-9.648,-9.6711,-9.7365,-9.8327,-9.8288,-9.6134,-9.8904,-10.0096,-9.648,-9.8365,-9.9481,-9.7904,-9.7596,-9.7173,-9.6365,-9.6288,-9.6288,-9.6288,-9.6288,-9.6365,-9.648,-9.7134,-9.7519,-9.7519,-9.8211,-9.8288,-9.7711,-9.6903,-9.648,-9.648,-9.6365,-9.6288,-9.6288,-9.6288,-9.6288,-9.6288,-9.6288,-9.6288,-9.6326,-9.6326,-9.698,-9.8019,-9.7788,-9.8134,-9.8904,-9.9788,-10.0096,-10.0212,-9.6288,-9.5806,-9.519,-9.4536,-9.3826,-9.4018,-9.6019,-9.7191,-9.8384,-9.9904,-9.9673,-9.9211,-9.875,-9.8827,-9.8673,-9.8134,-9.8596,-9.8519,-9.7711,-9.798,-9.8019,-9.7673,-9.7557,-9.7134,-9.6326,-9.6288,-9.6288,-9.6288,-9.6749,-9.6942,-9.698,-9.7442,-9.7634,-9.7634,-9.7634,-9.7865,-9.8211,-9.8711,-9.9365,-10.0096,-10.0096,-10.0404,-10.0712,-10.0712,-10.0712,-10.0789,-10.1212,-10.1289,-10.1096,-9.9827,-9.9135,-9.8557,-9.7288,-9.6596,-9.6288,-9.6288,-9.6288,-9.6358,-9.6595,-9.6854,-9.7177,-9.7962,-9.7862,-9.7596,-9.7596,-9.7218,-9.6749,-9.6365,-9.6288,-9.6403,-9.6788,-9.7557,-9.7865,-9.7173,-9.8673,-9.9442,-9.7942,-9.8288,-9.8404,-9.7596,-9.7134,-9.6711,-9.6326,-9.6288,-9.6288,-9.6288,-9.6288,-9.648,-9.6903,-9.7288,-9.7519,-9.7519,-9.7904,-9.7711,-9.6865,-9.648,-9.6288,-9.6288,-9.6288,-9.6288,-9.6288,-9.6288,-9.6788,-9.7614,-9.7288,-9.7365,-9.7634,-9.7653,-9.7403,-9.7154,-9.8211,-9.8673,-9.8942,-10.0289,-10.0712,-10.0789,-9.6288,-9.5595,-9.5018,-9.498,-9.4595,-9.5018,-9.7173,-9.7134,-9.7673,-9.9827,-9.9327,-9.8481,-9.7596,-9.8673,-9.9019,-9.7904,-9.9211,-9.9904,-9.9404,-9.9365,-9.9135,-9.8519,-9.7673,-9.7019,-9.6596,-9.6596,-9.6673,-9.6865,-9.7519,-9.7788,-9.7827,-9.8481,-9.8788,-9.8788,-9.8788,-9.8904,-9.9135,-9.9827,-10.0212,-10.0404,-10.1096,-10.1289,-10.1289,-10.1289,-10.1289,-10.1289,-10.1289,-10.1289,-10.1019,-9.9365,-9.8788,-9.8519,-9.6826,-9.6288,-9.6288,-9.6288,-9.6322,-9.6481,-9.6882,-9.7012,-9.7123,-9.7568,-9.7368,-9.7012,-9.7012,-9.6638,-9.6288,-9.6288,-9.6288,-9.6288,-9.6288,-9.698,-9.7442,-9.7365,-9.8173,-9.8673,-9.8365,-9.7865,-9.7442,-9.725,-9.6673,-9.6288,-9.6288,-9.6134,-9.6019,-9.6019,-9.6019,-9.6288,-9.6903,-9.7096,-9.7211,-9.7211,-9.7211,-9.6903,-9.6326,-9.6288,-9.6288,-9.6288,-9.6288,-9.6288,-9.6288,-9.6288,-9.698,-9.823,-9.8269,-9.8422,-9.8615,-9.873,-9.8096,-9.7192,-9.8634,-9.9288,-9.9558,-10.0789,-10.1289,-10.1289,-9.6288,-9.6249,-9.5942,-9.5134,-9.5595,-9.6442,-9.7365,-9.8134,-9.8981,-9.9981,-9.9327,-9.8481,-9.7596,-9.7596,-9.7942,-9.8634,-9.9558,-10.0404,-10.1096,-10.1096,-10.0096,-9.7711,-9.6826,-9.6711,-9.7403,-9.7403,-9.7827,-9.8634,-9.8673,-9.8711,-9.8711,-9.875,-9.8788,-9.8788,-9.8788,-9.925,-9.9981,-10.0096,-10.0481,-10.1212,-10.1289,-10.1289,-10.1289,-10.1289,-10.1289,-10.1289,-10.1289,-10.1289,-10.1019,-9.9365,-9.8788,-9.8519,-9.6826,-9.6288,-9.6288,-9.6288,-9.6448,-9.6629,-9.6934,-9.7012,-9.7123,-9.7568,-9.7368,-9.7012,-9.7012,-9.6638,-9.6288,-9.6288,-9.6288,-9.6288,-9.6288,-9.698,-9.6519,-9.3441,-9.6249,-9.7442,-9.3595,-9.5634,-9.7211,-9.648,-9.6326,-9.6288,-9.6288,-9.5557,-9.5095,-9.5095,-9.5095,-9.5095,-9.5172,-9.5942,-9.6403,-9.6403,-9.6403,-9.6365,-9.6288,-9.6288,-9.6288,-9.6288,-9.6288,-9.6288,-9.6288,-9.6288,-9.6365,-9.6596,-9.8595,-9.8922,-9.8018,-9.8576,-9.9038,-9.9269,-9.8366,-9.9288,-10.1096,-10.1289,-10.1289,-10.1289,-9.6288,-9.6288,-9.6211,-9.5865,-9.6095,-9.6749,-9.8096,-9.8134,-9.8288,-9.9173,-9.9019,-9.8288,-9.6903,-9.7673,-9.8442,-9.875,-9.9596,-10.0404,-10.1212,-10.0789,-9.9865,-9.8365,-9.7519,-9.7211,-9.748,-9.7019,-9.7442,-9.8788,-9.8788,-9.9058,-9.9596,-10.0096,-10.0404,-10.0404,-10.0404,-10.0519,-10.0789,-10.0789,-10.1019,-10.1289,-10.1289,-10.1289,-10.1289,-10.1289,-10.1289,-10.1289,-10.1289,-10.1289,-10.1096,-9.9981,-9.925,-9.8634,-9.7596,-9.6826,-9.6288,-9.6288,-9.6426,-9.6669,-9.6944,-9.7115,-9.7277,-9.7487,-9.7259,-9.6974,-9.6792,-9.6499,-9.6288,-9.6288,-9.6288,-9.6288,-9.6288,-9.6557,-9.6519,-9.5711,-9.6519,-9.6865,-9.5749,-9.6288,-9.6634,-9.6326,-9.6288,-9.6288,-9.6288,-9.6019,-9.5826,-9.5826,-9.5826,-9.5826,-9.5826,-9.6134,-9.6288,-9.6288,-9.6288,-9.6288,-9.6288,-9.6288,-9.6288,-9.6288,-9.6308,-9.6654,-9.7288,-9.7673,-9.8134,-9.8711,-9.9538,-9.9962,-9.9962,-9.9135,-9.9135,-9.9635,-9.9904,-10.0212,-10.0596,-10.1096,-10.1289,-10.1289,-9.6288,-9.6288,-9.6365,-9.6634,-9.648,-9.6865,-9.8519,-9.8288,-9.8134,-9.8711,-9.9019,-9.8557,-9.6865,-9.7942,-9.8673,-9.8404,-9.9173,-9.9942,-10.0519,-9.975,-9.9019,-9.8404,-9.7596,-9.725,-9.748,-9.698,-9.7519,-9.9211,-9.9211,-9.9635,-10.0481,-10.1019,-10.1289,-10.1289,-10.1289,-10.1289,-10.1289,-10.1289,-10.1289,-10.1289,-10.1289,-10.1289,-10.1289,-10.1289,-10.1289,-10.1289,-10.1289,-10.1289,-10.1096,-10.0096,-9.9288,-9.8634,-9.7673,-9.6903,-9.6365,-9.6596,-9.6715,-9.6846,-9.7275,-9.7448,-9.749,-9.742,-9.7213,-9.6944,-9.6669,-9.6426,-9.6288,-9.6288,-9.6288,-9.6288,-9.6288,-9.6288,-9.648,-9.7019,-9.6673,-9.648,-9.7057,-9.6634,-9.6288,-9.6288,-9.6519,-9.6596,-9.6326,-9.6288,-9.6288,-9.6288,-9.6057,-9.6019,-9.6288,-9.6288,-9.6288,-9.6288,-9.6288,-9.6288,-9.6288,-9.6288,-9.6288,-9.6288,-9.6308,-9.7057,-9.8461,-9.9249,-9.9615,-9.9712,-9.9981,-10.0289,-10.0519,-9.9846,-9.9577,-9.9712,-10.0885,-10.1,-10.0481,-10.1096,-10.1289,-10.1289,-9.6288,-9.6288,-9.6557,-9.7365,-9.6826,-9.6865,-9.8519,-9.8788,-9.8788,-9.8788,-9.9558,-9.9442,-9.7673,-9.8288,-9.8442,-9.7596,-9.8288,-9.8788,-9.8788,-9.798,-9.7519,-9.7519,-9.6749,-9.6673,-9.748,-9.748,-9.8327,-10.0096,-10.0096,-10.0481,-10.1289,-10.1289,-10.1289,-10.1289,-10.1289,-10.1289,-10.1289,-10.1289,-10.1289,-10.1289,-10.1289,-10.1289,-10.1289,-10.1289,-10.1289,-10.1289,-10.1289,-10.1289,-10.1019,-9.9365,-9.8788,-9.8519,-9.6826,-9.6288,-9.648,-9.725,-9.7257,-9.7207,-9.8053,-9.8022,-9.7653,-9.7437,-9.7213,-9.6944,-9.6669,-9.6426,-9.6288,-9.6288,-9.6288,-9.6288,-9.6288,-9.6288,-9.6288,-9.6288,-9.6288,-9.6288,-9.6288,-9.6288,-9.6288,-9.6326,-9.7019,-9.7211,-9.6403,-9.6326,-9.6326,-9.6326,-9.5518,-9.5403,-9.6249,-9.6288,-9.6288,-9.6288,-9.6288,-9.6288,-9.6288,-9.6288,-9.6288,-9.6288,-9.6288,-9.7461,-9.9615,-10.0807,-10.0403,-9.8865,-9.9712,-9.9596,-9.8942,-10.0596,-10.0596,-9.975,-10.0904,-10.1289,-10.1289,-10.1289,-10.1289,-10.1289,-9.6288,-9.6288,-9.6557,-9.7365,-9.6826,-9.6865,-9.8519,-9.8288,-9.8096,-9.8711,-9.9558,-9.9442,-9.7673,-9.8288,-9.8442,-9.7596,-9.775,-9.7904,-9.7904,-9.7634,-9.7519,-9.7519,-9.6749,-9.6673,-9.748,-9.6942,-9.7173,-9.8288,-9.8288,-9.8404,-9.8654,-9.925,-9.9846,-10.05,-10.0519,-10.0789,-10.1289,-10.1289,-10.1289,-10.1289,-10.1289,-10.1289,-10.1289,-10.1289,-10.1289,-10.1289,-10.1289,-10.1289,-10.1212,-10.0712,-9.9788,-9.8519,-9.6826,-9.6288,-9.648,-9.725,-9.7683,-9.7985,-9.8209,-9.8338,-9.8213,-9.7323,-9.7065,-9.6893,-9.6474,-9.6358,-9.6288,-9.6288,-9.6288,-9.6288,-9.6288,-9.6288,-9.6288,-9.6288,-9.6288,-9.6288,-9.6288,-9.6288,-9.6519,-9.7057,-9.7365,-9.7634,-9.8019,-9.8057,-9.8057,-9.8057,-9.725,-9.6865,-9.7134,-9.6596,-9.6288,-9.6288,-9.6288,-9.6288,-9.6288,-9.6308,-9.6308,-9.6308,-9.6309,-9.727,-9.9096,-10.0616,-10.1,-10.0596,-10.0789,-10.0789,-10.0596,-10.1096,-10.1096,-10.0789,-10.1212,-10.1289,-10.1289,-10.1289,-10.1289,-10.1404,-9.6288,-9.6557,-9.6942,-9.7403,-9.7096,-9.7134,-9.8134,-9.8134,-9.8211,-9.8711,-9.9558,-9.9558,-9.8173,-9.8173,-9.7942,-9.7096,-9.7019,-9.7019,-9.7019,-9.7019,-9.7019,-9.7019,-9.6557,-9.6673,-9.748,-9.6711,-9.6711,-9.7519,-9.7519,-9.7673,-9.8057,-9.8557,-9.9288,-10.0115,-10.0096,-10.0481,-10.1289,-10.1289,-10.1289,-10.1289,-10.1289,-10.1289,-10.1289,-10.1289,-10.1289,-10.1289,-10.1289,-10.1289,-10.1289,-10.0904,-9.9673,-9.8057,-9.6711,-9.6288,-9.648,-9.725,-9.7877,-9.8305,-9.8287,-9.8499,-9.8508,-9.7697,-9.7168,-9.6759,-9.639,-9.6288,-9.6288,-9.6288,-9.6288,-9.6288,-9.6288,-9.6288,-9.6288,-9.6288,-9.6288,-9.6288,-9.6288,-9.6288,-9.6596,-9.7403,-9.7788,-9.8211,-9.875,-9.9096,-9.9173,-9.8827,-9.8288,-9.7865,-9.7519,-9.6749,-9.6288,-9.6288,-9.6288,-9.6288,-9.6288,-9.6731,-9.7154,-9.7596,-9.7404,-9.8173,-9.9827,-10.0789,-10.1289,-10.1289,-10.1289,-10.1289,-10.1289,-10.1289,-10.1289,-10.1289,-10.1289,-10.1289,-10.1289,-10.1289,-10.152,-10.1904,-9.6403,-9.7019,-9.7519,-9.7596,-9.7557,-9.7519,-9.7596,-9.8288,-9.8827,-9.8904,-9.9596,-9.975,-9.8904,-9.8019,-9.7173,-9.6365,-9.6288,-9.6288,-9.6288,-9.6249,-9.6249,-9.6403,-9.6249,-9.6596,-9.748,-9.6711,-9.6634,-9.7288,-9.7365,-9.775,-9.8442,-9.8519,-9.9058,-9.9981,-9.9981,-10.0481,-10.1289,-10.1289,-10.1289,-10.1289,-10.1289,-10.1289,-10.1289,-10.1289,-10.1289,-10.1289,-10.1289,-10.1289,-10.1212,-10.0289,-9.8942,-9.7442,-9.6596,-9.6288,-9.6442,-9.7305,-9.7944,-9.8383,-9.8354,-9.8538,-9.8687,-9.8389,-9.7479,-9.6652,-9.6604,-9.6497,-9.642,-9.6438,-9.6381,-9.6343,-9.6288,-9.6288,-9.6288,-9.6288,-9.6288,-9.6288,-9.6288,-9.6288,-9.6634,-9.7519,-9.8327,-9.8865,-9.9019,-9.975,-9.9865,-9.9058,-9.8865,-9.8442,-9.7673,-9.6788,-9.6288,-9.6288,-9.6288,-9.6326,-9.6403,-9.7385,-9.8442,-9.9538,-9.9192,-9.9808,-10.1289,-10.1289,-10.1308,-10.1289,-10.1289,-10.1289,-10.1289,-10.1289,-10.1289,-10.1289,-10.1289,-10.1289,-10.1289,-10.1404,-10.1904,-10.2597,-9.7134,-9.7365,-9.7711,-9.8404,-9.7942,-9.775,-9.8404,-9.8673,-9.9058,-9.9712,-9.9981,-9.975,-9.8904,-9.8019,-9.7173,-9.6365,-9.6288,-9.6288,-9.6288,-9.5672,-9.5865,-9.7173,-9.598,-9.598,-9.7462,-9.6711,-9.6057,-9.5518,-9.6249,-9.6326,-9.5826,-9.6519,-9.7634,-9.9077,-9.9096,-9.9904,-10.1289,-10.1289,-10.1289,-10.1289,-10.1289,-10.1289,-10.1289,-10.1289,-10.1289,-10.1289,-10.1289,-10.1289,-10.1096,-9.9596,-9.8827,-9.825,-9.6788,-9.6288,-9.6515,-9.7526,-9.853,-9.9207,-9.8689,-9.8967,-9.9233,-9.85,-9.7805,-9.7521,-9.8385,-9.8044,-9.7542,-9.7557,-9.7015,-9.6483,-9.6322,-9.6288,-9.6288,-9.6288,-9.6288,-9.6288,-9.6288,-9.6288,-9.6865,-9.8327,-9.8673,-9.9327,-10.0596,-10.0904,-10.1019,-10.0789,-9.9558,-9.8711,-9.8519,-9.7096,-9.6288,-9.6288,-9.6288,-9.6596,-9.725,-9.7692,-9.8269,-9.9,-10.0212,-10.0904,-10.1289,-10.1289,-10.1289,-10.1289,-10.1289,-10.1289,-10.1289,-10.1289,-10.1289,-10.1289,-10.1289,-10.1289,-10.1404,-10.2289,-10.2597,-10.2789,-9.7326,-9.7827,-9.8134,-9.8173,-9.8481,-9.8481,-9.7711,-9.8288,-9.8942,-9.9404,-9.9096,-9.8827,-9.8788,-9.7673,-9.6749,-9.6326,-9.6288,-9.6288,-9.6288,-9.5865,-9.6019,-9.6883,-9.5691,-9.5595,-9.6885,-9.6115,-9.5654,-9.5634,-9.6095,-9.6057,-9.5634,-9.648,-9.7557,-9.8808,-9.9211,-10.0096,-10.1289,-10.1289,-10.1289,-10.1289,-10.1289,-10.1289,-10.1289,-10.1289,-10.1289,-10.1289,-10.1289,-10.1289,-10.1019,-9.9365,-9.8788,-9.8519,-9.6826,-9.6288,-9.6417,-9.7092,-9.8085,-9.8826,-9.8185,-9.8811,-9.9473,-9.8987,-9.882,-9.8803,-9.9134,-9.8525,-9.7947,-9.8061,-9.7303,-9.657,-9.6474,-9.6373,-9.6288,-9.6288,-9.6288,-9.6288,-9.6288,-9.6634,-9.7365,-9.8634,-9.9173,-9.9904,-10.1212,-10.1289,-10.1096,-10.0789,-9.9519,-9.8634,-9.8211,-9.7365,-9.6711,-9.6326,-9.6788,-9.725,-9.7673,-9.8365,-9.9135,-10.0,-10.0904,-10.1289,-10.1289,-10.1289,-10.1289,-10.1289,-10.1289,-10.1289,-10.1289,-10.1289,-10.1289,-10.1289,-10.1289,-10.1289,-10.1404,-10.2404,-10.3212,-10.3982,-9.775,-9.8519,-9.8788,-9.8057,-9.9135,-9.9327,-9.7057,-9.7904,-9.8788,-9.8788,-9.8057,-9.7788,-9.8481,-9.7326,-9.6442,-9.6326,-9.6442,-9.6442,-9.6326,-9.6172,-9.6134,-9.6286,-9.546,-9.5403,-9.6288,-9.5577,-9.5577,-9.6288,-9.6288,-9.6288,-9.6326,-9.7134,-9.798,-9.8827,-9.9712,-10.0481,-10.1289,-10.1212,-10.1212,-10.1289,-10.1289,-10.1289,-10.1289,-10.1289,-10.1289,-10.1289,-10.1289,-10.1289,-10.1019,-9.9365,-9.8788,-9.8519,-9.6826,-9.6288,-9.634,-9.6551,-9.7378,-9.8102,-9.7487,-9.8416,-9.9511,-9.9462,-9.9788,-10.0084,-9.9778,-9.9008,-9.844,-9.8548,-9.7691,-9.6889,-9.6654,-9.6474,-9.634,-9.6306,-9.6288,-9.6288,-9.6288,-9.698,-9.7827,-9.8711,-9.9673,-10.0596,-10.1212,-10.1212,-10.0789,-10.0192,-9.9288,-9.8481,-9.775,-9.7711,-9.7365,-9.6596,-9.7519,-9.798,-9.7904,-9.9077,-10.0192,-10.1289,-10.1289,-10.1289,-10.1289,-10.1289,-10.1289,-10.1289,-10.1289,-10.1289,-10.1289,-10.1289,-10.1289,-10.1289,-10.1289,-10.1404,-10.1712,-10.2712,-10.3982,-10.5405,-9.9442,-9.9827,-9.9865,-9.975,-9.9942,-9.9712,-9.8634,-9.8634,-9.8788,-9.8788,-9.8057,-9.7557,-9.7673,-9.748,-9.7057,-9.6365,-9.6923,-9.7038,-9.6365,-9.5615,-9.55,-9.6249,-9.548,-9.5421,-9.6286,-9.6172,-9.6172,-9.6288,-9.6288,-9.6288,-9.6326,-9.7115,-9.7962,-9.8827,-9.9712,-10.0481,-10.1289,-10.0596,-10.0712,-10.1289,-10.1308,-10.1308,-10.1289,-10.1289,-10.1289,-10.1289,-10.1289,-10.1289,-10.1019,-9.9365,-9.8788,-9.8519,-9.6826,-9.6288,-9.634,-9.6551,-9.7249,-9.7806,-9.7227,-9.8115,-9.9266,-9.9239,-9.9788,-10.0606,-10.149,-10.0999,-10.03,-9.9773,-9.901,-9.8042,-9.6825,-9.6585,-9.6514,-9.6322,-9.6288,-9.6288,-9.6288,-9.698,-9.7827,-9.8711,-10.0212,-10.1212,-10.1289,-10.0712,-10.0212,-10.0096,-9.9288,-9.875,-9.8634,-9.8634,-9.8327,-9.7692,-9.8327,-9.8423,-9.7885,-9.9327,-10.0481,-10.1289,-10.1289,-10.1289,-10.1289,-10.1289,-10.1289,-10.1289,-10.1289,-10.1289,-10.1289,-10.1289,-10.1289,-10.1289,-10.1289,-10.1904,-10.2904,-10.4289,-10.5405,-10.629,-9.9827,-10.0096,-10.0096,-10.0096,-10.0096,-9.9635,-9.8288,-9.8481,-9.8634,-9.8134,-9.775,-9.7519,-9.7519,-9.7519,-9.7557,-9.7673,-9.8019,-9.7865,-9.7037,-9.6596,-9.6365,-9.6288,-9.548,-9.5421,-9.6268,-9.5806,-9.5806,-9.6288,-9.6288,-9.6288,-9.6326,-9.7634,-9.8442,-9.8865,-10.0212,-10.0712,-10.0596,-10.0289,-10.0289,-10.0596,-10.0596,-10.0596,-10.0616,-10.0616,-10.0308,-9.9981,-10.0481,-10.0596,-10.0481,-9.9788,-9.9211,-9.8596,-9.7365,-9.6673,-9.634,-9.6551,-9.6859,-9.7134,-9.7022,-9.8085,-9.9207,-9.9207,-10.0175,-10.1218,-10.131,-10.1197,-10.0898,-10.0203,-9.9364,-9.8324,-9.7069,-9.7122,-9.7247,-9.7015,-9.698,-9.7134,-9.7634,-9.8404,-9.925,-10.0096,-10.0789,-10.1289,-10.1289,-10.0596,-10.0096,-10.0096,-9.9288,-9.8788,-9.8788,-9.9096,-9.8981,-9.8442,-9.9577,-10.0115,-9.9788,-10.1096,-10.2116,-10.2712,-10.2385,-10.1885,-10.1308,-10.1308,-10.1308,-10.1308,-10.1308,-10.1289,-10.1289,-10.1289,-10.1712,-10.2212,-10.15,-10.2385,-10.3982,-10.4789,-10.5982,-10.7213]},{"header":{"parameterUnit":"m.s-1","parameterCategory":1,"la1":30.6,"la2":28.766,"lo1":-90.7593,"lo2":-88.6598,"dx":0.0162,"dy":0.0183,"nx":116,"ny":114,"refTime":"2022-12-13T18:00:00:Z","depth":0,"parameterNumber":3,"parameterNumberName":"V-component_of_WINDS"},"data":[0.0,0.0,0.0,0.0,0.0,0.0,0.0,0.0,0.0,0.0,0.0,0.0,0.0,0.0,0.0,0.0,0.0,0.0,0.0,0.0,0.0,0.0,0.0,0.0,0.0,0.0,0.0,0.0,0.0,0.0,0.0,0.0,0.0,0.0,0.0,0.0,0.0,0.0,0.0,0.0,0.0,0.0,0.0,0.0,0.0,0.0,0.0,0.0,0.0,0.0,0.0,0.0,0.0,0.0,0.0,0.0,0.0,0.0,0.0,0.0,0.0,0.0,0.0,0.0,0.0,0.0,0.0,0.0,0.0,0.0,0.0,0.0,0.0,0.0,0.0,0.0,0.0,0.0,0.0,0.0,0.0,0.0,0.0,0.0,0.0,0.0,0.0,0.0,0.0,0.0,0.0,0.0,0.0,0.0,0.0,0.0,0.0,0.0,0.0,0.0,0.0,0.0,0.0,0.0,0.0,0.0,0.0,0.0,0.0,0.0,0.0,0.0,0.0,0.0,0.0,0.0,0.0,0.0,0.0,0.0,0.0,0.0,0.0,0.0,0.0,0.0,0.0,0.0,0.0,0.0,0.0,0.0,0.0,0.0,0.0,0.0,0.0,0.0,0.0,0.0,0.0,0.0,0.0,0.0,0.0,0.0,0.0,0.0,0.0,0.0,0.0,0.0,0.0,0.0,0.0,0.0,0.0,0.0,0.0,0.0,0.0,0.0,0.0,0.0,0.0,0.0,0.0,0.0,0.0,0.0,0.0,0.0,0.0,0.0,0.0,0.0,0.0,0.0,0.0,0.0,0.0,0.0,0.0,0.0,0.0,0.0,0.0,0.0,0.0,0.0,0.0,0.0,0.0,0.0,0.0,0.0,0.0,0.0,0.0,0.0,0.0,0.0,0.0,0.0,0.0,0.0,0.0,0.0,0.0,0.0,0.0,0.0,0.0,0.0,0.0,0.0,0.0,0.0,0.0,0.0,0.0,0.0,0.0,0.0,0.0,0.0,0.0,0.0,0.0,0.0,0.0,0.0,0.0,0.0,0.0,0.0,0.0,0.0,0.0,0.0,0.0,0.0,0.0,0.0,0.0,0.0,0.0,0.0,0.0,0.0,0.0,0.0,0.0,0.0,0.0,0.0,0.0,0.0,0.0,0.0,0.0,0.0,0.0,0.0,0.0,0.0,0.0,0.0,0.0,0.0,0.0,0.0,0.0,0.0,0.0,0.0,0.0,0.0,0.0,0.0,0.0,0.0,0.0,0.0,0.0,0.0,0.0,0.0,0.0,0.0,0.0,0.0,0.0,0.0,0.0,0.0,0.0,0.0,0.0,0.0,0.0,0.0,0.0,0.0,0.0,0.0,0.0,0.0,0.0,0.0,0.0,0.0,0.0,0.0,0.0,0.0,0.0,0.0,0.0,0.0,0.0,0.0,0.0,0.0,0.0,0.0,0.0,0.0,0.0,0.0,0.0,0.0,0.0,0.0,0.0,0.0,0.0,0.0,0.0,0.0,0.0,0.0,0.0,0.0,0.0,0.0,0.0,0.0,0.0,0.0,0.0,0.0,0.0,0.0,0.0,0.0,0.0,0.0,0.0,0.0,0.0,0.0,0.0,0.0,0.0,0.0,0.0,0.0,0.0,0.0,0.0,0.0,0.0,0.0,0.0,0.0,0.0,0.0,0.0,0.0,0.0,0.0,0.0,0.0,0.0,0.0,0.0,0.0,0.0,0.0,0.0,0.0,0.0,0.0,0.0,0.0,0.0,0.0,0.0,0.0,0.0,0.0,0.0,0.0,0.0,0.0,0.0,0.0,0.0,0.0,0.0,0.0,0.0,0.0,0.0,0.0,0.0,0.0,0.0,0.0,0.0,0.0,0.0,0.0,0.0,0.0,0.0,0.0,0.0,0.0,0.0,0.0,0.0,0.0,0.0,0.0,0.0,0.0,0.0,0.0,0.0,0.0,0.0,0.0,0.0,0.0,0.0,0.0,0.0,0.0,0.0,0.0,0.0,0.0,0.0,0.0,0.0,0.0,0.0,0.0,0.0,0.0,0.0,0.0,0.0,0.0,0.0,0.0,0.0,0.0,0.0,0.0,0.0,0.0,0.0,0.0,0.0,0.0,0.0,0.0,0.0,0.0,0.0,0.0,0.0,0.0,0.0,0.0,0.0,0.0,0.0,0.0,0.0,0.0,0.0,0.0,0.0,0.0,0.0,0.0,0.0,0.0,0.0,0.0,0.0,0.0,0.0,0.0,0.0,0.0,0.0,0.0,0.0,0.0,0.0,0.0,0.0,0.0,0.0,0.0,0.0,0.0,0.0,0.0,0.0,0.0,0.0,0.0,0.0,0.0,0.0,0.0,0.0,0.0,0.0,0.0,0.0,0.0,0.0,0.0,0.0,0.0,0.0,0.0,0.0,0.0,0.0,0.0,0.0,0.0,0.0,0.0,0.0,0.0,0.0,0.0,0.0,0.0,0.0,0.0,0.0,0.0,0.0,0.0,0.0,0.0,0.0,0.0,0.0,0.0,0.0,0.0,0.0,0.0,0.0,0.0,0.0,0.0,0.0,0.0,0.0,0.0,0.0,0.0,0.0,0.0,0.0,0.0,0.0,0.0,0.0,0.0,0.0,0.0,0.0,0.0,0.0,0.0,0.0,0.0,0.0,0.0,0.0,0.0,0.0,0.0,0.0,0.0,0.0,0.0,0.0,0.0,0.0,0.0,0.0,0.0,0.0,0.0,0.0,0.0,0.0,0.0,0.0,0.0,0.0,0.0,0.0,0.0,0.0,0.0,0.0,0.0,0.0,0.0,0.0,0.0,0.0,0.0,0.0,0.0,0.0,0.0,0.0,0.0,0.0,0.0,0.0,0.0,0.0,0.0,0.0,0.0,0.0,0.0,0.0,0.0,0.0,0.0,0.0,0.0,0.0,0.0,0.0,0.0,0.0,0.0,0.0,0.0,0.0,0.0,0.0,0.0,0.0,0.0,0.0,0.0,0.0,0.0,0.0,0.0,0.0,0.0,0.0,0.0,0.0,0.0,0.0,0.0,0.0,0.0,0.0,0.0,0.0,0.0,0.0,0.0,0.0,0.0,0.0,0.0,0.0,0.0,0.0,0.0,0.0,0.0,0.0,0.0,0.0,0.0,0.0,0.0,0.0,0.0,0.0,0.0,0.0,0.0,0.0,0.0,0.0,0.0,0.0,0.0,0.0,0.0,0.0,0.0,0.0,0.0,0.0,0.0,0.0,0.0,0.0,0.0,0.0,0.0,0.0,0.0,0.0,0.0,0.0,0.0,0.0,0.0,0.0,0.0,0.0,0.0,0.0,0.0,0.0,0.0,0.0,0.0,0.0,0.0,0.0,0.0,0.0,0.0,0.0,0.0,0.0,0.0,0.0,0.0,0.0,0.0,0.0,0.0,0.0,0.0,0.0,0.0,0.0,0.0,0.0,0.0,0.0,0.0,0.0,0.0,0.0,0.0,0.0,0.0,0.0,0.0,0.0,0.0,0.0,0.0,0.0,0.0,0.0,0.0,0.0,0.0,0.0,0.0,0.0,0.0,0.0,0.0,0.0,0.0,0.0,0.0,0.0,0.0,0.0,0.0,0.0,0.0,0.0,0.0,0.0,0.0,0.0,0.0,0.0,0.0,0.0,0.0,0.0,0.0,0.0,0.0,0.0,0.0,0.0,0.0,0.0,0.0,0.0,0.0,0.0,0.0,0.0,0.0,0.0,0.0,0.0,0.0,0.0,0.0,0.0,0.0,0.0,0.0,0.0,0.0,0.0,0.0,0.0,0.0,0.0,0.0,0.0,0.0,0.0,0.0,0.0,0.0,0.0,0.0,0.0,0.0,0.0,0.0,0.0,0.0,0.0,0.0,0.0,0.0,0.0,0.0,0.0,0.0,0.0,0.0,0.0,0.0,0.0,0.0,0.0,0.0,0.0,0.0,0.0,0.0,0.0,0.0,0.0,0.0,0.0,0.0,0.0,0.0,0.0,0.0,0.0,0.0,0.0,0.0,0.0,0.0,0.0,0.0,0.0,0.0,0.0,0.0,0.0,0.0,0.0,0.0,0.0,0.0,0.0,0.0,0.0,0.0,0.0,0.0,0.0,0.0,0.0,0.0,0.0,0.0,0.0,0.0,0.0,0.0,0.0,0.0,0.0,0.0,0.0,0.0,0.0,0.0,0.0,0.0,0.0,0.0,0.0,0.0,0.0,0.0,0.0,0.0,0.0,0.0,0.0,0.0,0.0,0.0,0.0,0.0,0.0,0.0,0.0,0.0,0.0,0.0,0.0,0.0,0.0,0.0,0.0,0.0,0.0,0.0,0.0,0.0,0.0,0.0,0.0,0.0,0.0,0.0,0.0,0.0,0.0,0.0,0.0,0.0,0.0,0.0,0.0,0.0,0.0,0.0,0.0,0.0,0.0,0.0,0.0,0.0,0.0,0.0,0.0,0.0,0.0,0.0,0.0,0.0,0.0,0.0,0.0,0.0,0.0,0.0,0.0,0.0,0.0,0.0,0.0,0.0,0.0,0.0,0.0,0.0,0.0,0.0,0.0,0.0,0.0,0.0,0.0,0.0,0.0,0.0,0.0,0.0,0.0,0.0,0.0,0.0,0.0,0.0,0.0,0.0,0.0,0.0,0.0,0.0,0.0,0.0,0.0,0.0,0.0,0.0,0.0,0.0,0.0,0.0,0.0,0.0,0.0,0.0,0.0,0.0,0.0,0.0,0.0,0.0,0.0,0.0,0.0,0.0,0.0,0.0,0.0,0.0,0.0,0.0,0.0,0.0,0.0,0.0,0.0,0.0,0.0,0.0,0.0,0.0,0.0,0.0,0.0,0.0,0.0,0.0,0.0,0.0,0.0,0.0,0.0,0.0,0.0,0.0,0.0,0.0,0.0,0.0,0.0,0.0,0.0,0.0,0.0,0.0,0.0,0.0,0.0,0.0,0.0,0.0,0.0,0.0,0.0,0.0,0.0,0.0,0.0,0.0,0.0,0.0,0.0,0.0,0.0,0.0,0.0,0.0,0.0,0.0,0.0,0.0,0.0,0.0,0.0,0.0,0.0,0.0,0.0,0.0,0.0,0.0,0.0,0.0,0.0,0.0,0.0,0.0,0.0,0.0,0.0,0.0,0.0,0.0,0.0,0.0,0.0,0.0,0.0,0.0,0.0,0.0,0.0,0.0,0.0,0.0,0.0,0.0,0.0,0.0,0.0,0.0,0.0,0.0,0.0,0.0,0.0,0.0,0.0,0.0,0.0,0.0,0.0,0.0,0.0,0.0,0.0,0.0,0.0,0.0,0.0,0.0,0.0,0.0,0.0,0.0,0.0,0.0,0.0,0.0,0.0,0.0,0.0,0.0,0.0,0.0,0.0,0.0,0.0,0.0,0.0,0.0,0.0,0.0,0.0,0.0,0.0,0.0,0.0,0.0,0.0,0.0,0.0,0.0,0.0,0.0,0.0,0.0,0.0,0.0,0.0,0.0,0.0,0.0,0.0,0.0,0.0,0.0,0.0,0.0,0.0,0.0,0.0,0.0,0.0,0.0,0.0,0.0,0.0,0.0,0.0,0.0,0.0,0.0,0.0,0.0,0.0,0.0,0.0,0.0,0.0,0.0,0.0,0.0,0.0,0.0,0.0,0.0,0.0,0.0,0.0,0.0,0.0,0.0,0.0,0.0,0.0,0.0,0.0,0.0,0.0,0.0,0.0,0.0,0.0,0.0,0.0,0.0,0.0,0.0,0.0,0.0,0.0,0.0,0.0,0.0,0.0,0.0,0.0,0.0,0.0,0.0,0.0,0.0,0.0,0.0,0.0,0.0,0.0,0.0,0.0,0.0,0.0,0.0,0.0,0.0,0.0,0.0,0.0,0.0,0.0,0.0,0.0,0.0,0.0,0.0,0.0,0.0,0.0,0.0,0.0,0.0,0.0,0.0,0.0,0.0,0.0,0.0,0.0,0.0,0.0,0.0,0.0,0.0,0.0,0.0,0.0,0.0,0.0,0.0,0.0,0.0,0.0,0.0,0.0,0.0,0.0,0.0,0.0,0.0,0.0,0.0,0.0,0.0,0.0,0.0,0.0,0.0,0.0,0.0,2.9285,2.6811,0.0,0.0,0.0,0.0,0.0,0.0,0.0,0.0,0.0,0.0,0.0,0.0,0.0,0.0,0.0,0.0,0.0,0.0,0.0,0.0,0.0,0.0,0.0,0.0,0.0,0.0,0.0,0.0,0.0,0.0,0.0,0.0,0.0,0.0,0.0,0.0,0.736,0.757,0.9681,1.1904,1.4234,1.4506,1.4464,1.4162,0.0,0.0,0.0,0.0,0.0,0.0,0.0,0.0,0.0,0.0,0.0,0.0,0.0,0.0,0.0,0.0,0.0,0.0,0.0,0.0,0.0,0.0,0.0,0.0,0.0,0.0,0.0,0.0,0.0,0.0,0.0,0.0,0.0,0.0,0.0,0.0,0.0,0.0,0.0,0.0,0.0,0.0,0.0,0.0,0.0,0.0,0.0,0.0,0.0,0.0,0.0,0.0,0.0,0.0,0.0,0.0,0.0,0.0,0.0,0.0,0.0,0.0,0.0,0.0,0.0,0.0,0.0,0.0,0.0,0.0,3.1177,2.955,0.0,0.0,0.0,0.0,0.0,0.0,0.0,0.0,0.0,0.0,0.0,0.0,0.0,0.0,0.0,0.0,0.0,0.0,0.0,0.0,0.0,0.0,0.0,0.8428,0.8822,1.019,1.069,1.0739,0.0,0.0,0.0,0.0,0.0,0.0,0.722,0.7611,0.8132,0.8895,1.1639,1.497,1.8705,2.0172,1.9733,1.779,1.5872,0.0,0.0,0.0,0.0,0.0,0.0,0.0,0.0,0.0,0.0,0.0,0.0,0.0,0.0,0.0,0.0,0.0,0.0,0.0,0.0,0.0,0.0,0.0,0.0,0.0,0.0,0.0,0.0,0.0,0.0,0.0,0.0,0.0,0.0,0.0,0.0,0.0,0.0,0.0,0.0,0.0,0.0,0.0,0.0,0.0,0.0,0.0,0.0,0.0,0.0,0.0,0.0,0.0,0.0,0.0,0.0,0.0,0.0,0.0,0.0,0.0,0.0,0.0,3.2753,3.2835,3.2855,3.2844,3.345,3.4389,3.2931,3.2568,3.2777,2.9519,0.0,0.0,0.0,0.0,0.0,0.0,0.0,0.0,0.0,0.0,0.0,0.0,0.0,0.0,0.0,0.0,0.0,0.0,0.0,0.0,0.0,0.9897,1.0988,1.3308,1.2127,1.1311,1.1515,0.0,0.0,0.0,0.0,0.7767,0.7726,0.8275,0.9442,1.1261,1.6342,2.0039,2.2256,2.2964,2.3017,2.2321,2.0273,1.9266,1.8905,0.0,0.0,0.0,0.0,0.0,0.0,0.0,0.0,0.0,0.0,0.0,0.0,0.0,0.0,0.0,0.0,0.0,0.0,0.0,0.0,0.0,0.0,0.0,0.0,0.0,0.0,0.0,0.0,0.0,0.0,0.0,0.0,0.0,0.0,0.0,0.0,0.0,0.0,0.0,0.0,0.0,1.9573,1.9847,0.0,0.0,0.0,0.0,0.0,0.0,0.0,0.0,0.0,0.0,0.0,0.0,0.0,2.4993,2.7024,2.9707,3.1949,3.3828,3.4949,3.5524,3.5524,3.5469,3.5586,3.577,3.551,0.0,3.3912,3.3389,0.0,0.0,0.0,0.0,0.0,0.0,0.0,0.0,0.0,0.0,0.0,0.0,0.0,0.0,0.0,0.0,0.0,0.0,0.0,0.0,0.0,1.1595,1.2959,1.4364,1.3874,1.2993,1.1845,1.0858,0.0,0.0,0.818,0.8228,0.8316,0.8825,1.0988,1.4942,1.8902,2.177,2.3621,2.4062,2.4008,2.3541,2.2792,2.1764,2.0556,1.9052,0.0,0.0,0.0,0.0,0.0,0.0,0.0,0.0,0.0,0.0,0.0,0.0,0.0,0.0,0.0,0.0,0.0,0.0,0.0,0.0,0.0,0.0,0.0,0.0,0.0,0.0,0.0,0.0,0.0,0.0,0.0,0.0,0.0,0.0,0.0,0.0,0.0,0.0,0.0,1.9292,1.9907,2.0201,1.9973,1.9575,0.0,0.0,0.0,0.0,0.0,0.0,0.0,0.0,0.0,2.4147,2.496,2.6496,2.889,3.116,3.3292,3.5176,3.5742,3.6016,3.6035,3.6279,3.6415,3.6435,3.666,3.6406,3.5781,3.457,3.3516,3.2578,0.0,0.0,0.0,0.0,3.123,3.123,0.0,0.0,0.0,0.0,0.0,0.0,0.0,0.0,0.0,0.0,0.0,0.0,1.2172,1.3332,1.4643,1.6301,1.609,1.5051,1.2989,1.2257,1.091,0.8625,0.856,0.8669,0.8818,1.0529,1.378,1.853,2.1112,2.3062,2.4436,2.4649,2.4476,2.3995,2.4142,2.342,2.211,2.0775,1.9439,1.809,0.0,0.0,0.0,0.0,0.0,0.0,0.0,0.0,0.0,0.0,0.0,0.0,0.0,0.0,0.0,0.0,0.0,0.0,0.0,0.0,0.0,0.0,0.0,0.0,0.0,0.0,0.0,0.0,0.0,0.0,0.0,0.0,0.0,0.0,0.0,0.0,0.0,2.004,2.0441,2.0655,2.1189,2.1271,0.0,0.0,0.0,0.0,0.0,0.0,2.5869,2.5504,2.5643,2.6493,2.6051,2.722,3.0293,3.1824,3.382,3.6191,3.6289,3.6348,3.6367,3.6708,3.6813,3.6903,3.7207,3.7305,3.7168,3.5566,3.4766,3.4473,3.3398,3.2851,3.2695,3.3125,3.3086,3.3047,0.0,0.0,0.0,0.0,0.0,0.0,0.0,0.0,0.0,0.0,0.0,1.2478,1.5486,1.4966,1.6087,2.0404,1.9063,1.7314,1.5793,1.3492,1.1257,0.9229,0.8988,0.8981,0.9187,1.4196,1.8328,2.1363,2.3738,2.4962,2.5037,2.505,2.489,2.4583,2.4315,2.3995,2.3567,2.215,2.1256,2.0668,1.7809,0.0,0.0,0.0,0.0,0.0,0.0,0.0,0.0,0.0,0.0,0.0,0.0,0.0,0.0,0.0,0.0,0.0,0.0,0.0,0.0,0.0,0.0,0.0,0.0,0.0,0.0,0.0,0.0,0.0,0.0,0.0,0.0,0.0,0.0,0.0,0.0,0.0,0.0,2.1897,2.397,0.0,0.0,0.0,0.0,2.734,2.7674,2.8143,2.8777,2.7305,2.6783,2.7401,2.5643,2.6503,3.0239,3.0871,3.3003,3.6641,3.7031,3.7226,3.7226,3.7266,3.7266,3.7285,3.7285,3.7305,3.7285,3.7187,3.666,3.5879,3.541,3.4707,3.4023,3.4453,3.459,3.4766,0.0,0.0,0.0,0.8444,0.9867,1.1144,1.1783,1.3454,1.4299,1.3243,1.4292,1.5497,1.6556,1.6483,1.7729,2.1091,1.8735,1.673,1.6059,1.3797,1.1724,1.0129,0.9686,1.0443,1.2507,1.6288,1.9376,2.1757,2.4134,2.5264,2.5077,2.5077,2.4917,2.4636,2.4529,2.4422,2.4262,2.3367,2.2472,2.155,2.012,1.8397,0.0,0.0,0.0,0.0,0.0,0.0,0.0,0.0,0.0,0.0,0.0,0.0,0.0,0.0,0.0,0.0,0.0,0.0,0.0,0.0,0.0,0.0,0.0,0.0,0.0,0.0,0.0,0.0,0.0,0.0,0.0,0.0,0.0,0.0,0.0,0.0,0.0,2.3969,2.5091,0.0,2.644,2.7715,2.8533,2.8521,3.0308,3.0925,2.9854,2.9288,2.8506,2.7563,2.5834,2.679,3.0728,3.1092,3.3247,3.707,3.7226,3.7305,3.7305,3.7578,3.7695,3.7715,3.8008,3.8125,3.8125,3.8125,3.7617,3.6836,3.668,3.6426,3.6172,3.6309,3.6367,3.6445,0.0,0.7455,0.0,0.8774,1.0218,1.1384,1.1672,1.3391,1.4306,1.3225,1.4316,1.5459,1.6147,1.6115,1.705,1.9703,1.7838,1.6253,1.5567,1.3877,1.2187,1.0627,1.1026,1.2653,1.5609,1.8412,2.0876,2.2943,2.4553,2.5264,2.5077,2.497,2.4823,2.4636,2.4636,2.4636,2.4609,2.4222,2.3554,2.2659,2.1764,2.0227,1.8425,0.0,0.0,0.0,0.0,0.0,0.0,0.0,0.0,0.0,0.0,0.0,0.0,0.0,0.0,0.0,0.0,0.0,0.0,0.0,0.0,0.0,0.0,0.0,0.0,0.0,0.0,0.0,0.0,0.0,0.0,0.0,0.0,0.0,0.0,2.2271,2.3379,2.4381,2.5569,2.6563,2.711,2.917,3.0419,3.0419,3.2157,3.2648,3.1486,3.0222,2.9039,2.7984,2.6196,2.688,3.0208,3.117,3.327,3.6466,3.7352,3.7734,3.7734,3.8008,3.8144,3.8164,3.8457,3.8574,3.8574,3.8574,3.8242,3.7715,3.7559,3.75,3.75,3.7344,3.7305,3.7324,0.7312,0.7426,0.7482,0.7773,0.9923,1.1153,0.974,1.2098,1.3668,1.2536,1.1808,1.2288,1.4549,1.3879,1.4205,1.6415,1.6646,1.6034,1.4478,1.3789,1.261,1.0871,1.3035,1.5477,1.8071,2.0615,2.288,2.4988,2.5002,2.5002,2.5064,2.477,2.4636,2.4636,2.4636,2.4636,2.4636,2.4636,2.4476,2.4088,2.2645,2.1697,2.0935,0.0,0.0,0.0,0.0,0.0,0.0,0.0,0.0,0.0,0.0,0.0,0.0,0.0,0.0,0.0,0.0,0.0,0.0,0.0,0.0,0.0,0.0,0.0,0.0,0.0,0.0,0.0,0.0,0.0,0.0,0.0,0.0,0.0,2.2592,2.2993,2.3273,2.309,2.5683,2.7188,2.642,3.0461,3.3101,3.3119,3.3119,3.3211,3.3464,2.9945,2.8148,2.8697,2.6634,2.6544,2.8803,3.0851,3.2872,3.4864,3.7302,3.8501,3.8501,3.8594,3.8594,3.8594,3.8594,3.8594,3.8594,3.8574,3.8574,3.8535,3.8105,3.7949,3.7891,3.748,3.7344,3.7402,0.7333,0.7631,0.7916,0.8113,0.943,1.0311,0.9921,1.1579,1.2802,1.2558,1.3063,1.377,1.4838,1.3958,1.4214,1.6425,1.4379,1.3413,1.4229,1.2525,1.2119,1.3497,1.4807,1.6518,1.8699,1.9521,2.0856,2.2544,2.2739,2.3505,2.4756,2.4676,2.4636,2.4636,2.4636,2.4636,2.4636,2.4636,2.4596,2.4462,2.3848,2.2979,2.1951,0.0,0.0,0.0,0.0,0.0,0.0,0.0,0.0,0.0,0.0,0.0,0.0,0.0,0.0,0.0,0.0,0.0,0.0,0.0,0.0,0.0,0.0,0.0,0.0,0.0,0.0,0.0,0.0,0.0,0.0,0.0,2.3006,2.3928,2.346,2.4088,2.4989,2.6085,2.6993,2.7946,2.9055,3.0339,3.1206,3.1405,3.1422,3.0943,2.9855,2.8864,2.7682,2.6454,2.6076,2.6871,2.8958,2.973,3.113,3.3197,3.5296,3.6349,3.6423,3.8185,3.9023,3.9023,3.9023,3.9023,3.9004,3.8691,3.8574,3.8555,3.8437,3.8398,3.8379,3.8262,3.8223,3.8242,0.7434,0.7773,0.8056,0.8323,0.9486,1.0199,0.9532,1.0879,1.1764,1.1316,1.1983,1.2647,1.3078,1.2724,1.295,1.4207,1.263,1.1973,1.299,1.1815,1.2216,1.4847,1.5607,1.7244,2.0134,2.0274,2.1162,2.2881,2.3042,2.3578,2.4636,2.4636,2.4636,2.4636,2.4636,2.4636,2.4636,2.4636,2.4636,2.4623,2.4449,2.3901,2.31,2.2525,2.1683,2.0762,2.0214,1.984,1.9599,1.9639,0.0,0.0,0.0,0.0,0.0,0.0,0.0,0.0,0.0,0.0,0.0,0.0,0.0,0.0,0.0,0.0,0.0,0.0,0.0,0.0,0.0,0.0,0.0,0.0,2.4235,2.5024,2.473,2.4917,2.5459,2.6365,2.6369,2.6707,2.7837,2.8753,2.9416,2.9549,2.9707,2.9427,2.8596,2.7824,2.6976,2.6052,2.6144,2.6795,2.8109,2.909,3.0245,3.1415,3.3576,3.462,3.4713,3.703,3.8085,3.816,3.9099,3.9492,3.9473,3.9238,3.9121,3.9101,0.0,0.0,0.0,0.0,3.8691,3.8828,0.7597,0.7862,0.8147,0.8411,0.9662,1.0195,0.8897,1.0021,1.0642,0.9555,0.9842,1.0238,1.048,1.09,1.1234,1.1234,1.1443,1.1558,1.1423,1.1579,1.278,1.5404,1.571,1.7492,2.1063,2.1258,2.2126,2.3944,2.3944,2.4179,2.4636,2.4636,2.4636,2.4636,2.4636,2.4636,2.4636,2.4636,2.4636,2.4636,2.4636,2.4476,2.4195,2.3634,2.326,2.2968,2.2164,2.163,2.1376,2.1149,0.0,0.0,0.0,0.0,0.0,0.0,0.0,0.0,0.0,0.0,0.0,0.0,0.0,0.0,0.0,0.0,0.0,0.0,0.0,0.0,0.0,0.0,0.0,0.0,2.5625,2.6306,2.6039,2.5531,2.517,2.513,2.4863,2.4703,2.473,2.6464,2.7585,2.7644,2.7923,2.8232,2.8556,2.6912,0.0,0.0,0.0,2.66,2.6813,2.8696,2.9603,2.9607,3.1919,3.3027,3.3106,3.5271,3.6469,3.6796,3.8766,3.9734,3.9961,3.9922,3.9902,3.9824,3.9023,3.873,3.873,3.873,3.8965,3.9277,0.7767,0.8018,0.8241,0.8303,0.8587,0.8754,0.8559,0.8994,0.9398,0.9576,0.9849,1.0209,1.0629,1.0968,1.1234,1.1234,1.1443,1.1606,1.1579,1.183,1.3036,1.5378,1.5684,1.6173,1.713,1.6888,1.7778,1.9779,1.9779,2.1452,2.4636,2.4636,2.4636,2.4636,2.4636,2.4636,2.4636,2.4636,2.4636,2.4636,2.4636,2.4609,2.4516,2.4168,2.3995,2.3888,2.3487,2.33,2.3287,2.346,2.2846,2.2031,2.2271,2.167,0.0,0.0,0.0,0.0,0.0,0.0,0.0,0.0,0.0,0.0,0.0,0.0,0.0,0.0,0.0,0.0,0.0,0.0,0.0,2.4522,2.5625,2.6373,2.6319,2.6012,2.5705,2.5464,2.517,2.509,2.5317,2.5547,2.5869,2.6348,2.6443,2.6607,2.6816,2.6516,2.6346,2.6466,2.6627,2.6747,2.6772,2.75,2.7796,2.7812,2.9931,0.0,3.098,3.3399,3.545,3.721,3.76,3.8798,4.0371,4.0039,3.9902,3.9883,3.9707,3.9648,3.9648,3.9648,3.9687,3.9766,0.7943,0.8113,0.832,0.832,0.8381,0.8425,0.8574,0.8852,0.9205,0.9659,0.991,1.0188,1.0568,1.0609,1.0636,1.0717,1.0995,1.1294,1.1599,1.1898,1.3161,1.5531,1.4726,1.5241,1.729,1.7111,1.8042,2.008,2.1141,2.2657,2.4562,2.3574,2.3648,2.4562,2.3574,2.3648,2.4636,2.4636,2.4636,2.4636,2.4636,2.4636,2.4623,2.4476,2.4422,2.4396,2.4262,2.4209,2.4222,2.4369,2.4022,2.3527,2.3527,2.3033,2.2231,0.0,0.0,0.0,0.0,0.0,0.0,0.0,0.0,0.0,0.0,0.0,0.0,0.0,0.0,2.3703,2.4875,0.0,2.4997,2.5438,2.6012,2.6386,2.6386,2.6266,2.6066,2.5772,2.5611,2.5571,2.5718,2.5865,2.6012,2.6159,2.6306,2.6386,2.6386,2.6573,2.6574,2.66,2.6852,2.7066,2.7068,2.7319,2.7513,2.7551,2.8703,2.9224,2.9321,3.165,3.3338,3.4468,3.6641,3.8176,3.929,4.0221,4.0527,4.0527,4.0527,4.0273,3.9902,3.9902,4.0019,4.0215,0.7975,0.8092,0.8194,0.8221,0.8316,0.8445,0.8601,0.8852,0.9241,0.9632,0.9822,1.0019,1.029,1.0107,1.0039,1.0222,1.0534,1.0975,1.1579,1.1898,1.2993,1.5061,1.3539,1.4167,1.7369,1.7815,1.8929,2.0923,2.2584,2.3533,2.3862,2.1831,2.1745,2.326,2.1644,2.1891,2.341,2.3844,2.4031,2.4031,2.4414,2.4636,2.4636,2.4636,2.4636,2.4636,2.4636,2.4636,2.4636,2.4636,2.4636,2.4596,2.4369,2.4209,2.3834,2.2472,2.2405,0.0,0.0,0.0,0.0,0.0,0.0,0.0,0.0,2.2686,2.3515,2.5568,2.5115,2.492,2.7056,2.6271,2.5571,2.6279,2.6386,2.6386,2.6386,2.6386,2.6319,2.6146,2.6079,2.6092,2.6278,2.6587,2.6734,2.6613,2.676,2.68,2.6573,2.6813,2.7,2.6986,2.733,2.7503,2.7466,2.7762,2.7866,2.7759,2.8039,2.8221,2.8221,3.0024,3.0993,3.164,3.6023,3.7896,3.8054,4.0275,4.1172,4.1172,4.1172,4.0742,4.0137,4.0137,4.0351,4.0644,0.7868,0.7848,0.7902,0.7988,0.8029,0.814,0.8296,0.8459,0.8716,0.9228,0.9361,0.9517,0.9686,0.968,0.9774,1.0115,1.0473,1.0975,1.1579,1.1898,1.2347,1.2817,1.2677,1.2747,1.319,1.4935,1.6736,1.8492,1.8863,1.979,2.127,1.9373,1.8644,1.8801,1.8695,1.8789,1.9096,2.1124,2.1975,2.2049,2.387,2.4636,2.4636,2.4636,2.4636,2.4636,2.4636,2.4636,2.4636,2.4636,2.4636,2.4549,2.4596,2.4917,2.513,2.4182,2.3955,2.3741,2.2512,2.2084,2.2098,2.2552,2.2926,2.3581,0.0,2.5117,2.5085,2.6121,2.6195,2.6197,2.6486,2.637,2.6279,2.6373,2.6386,2.6386,2.6386,2.6386,2.6466,2.6694,2.6493,2.6547,2.7068,2.6934,2.6934,2.7176,2.7189,2.7201,2.7175,2.7455,2.7626,2.7601,2.8127,2.8372,2.8125,2.8372,2.8377,2.8136,2.8136,2.8221,2.8234,2.8473,2.9607,3.164,3.6023,3.7896,3.8054,4.0275,4.1172,4.1172,4.1172,4.1113,4.1035,4.1035,4.1055,4.1094,0.7907,0.7894,0.7914,0.7982,0.7914,0.7957,0.8113,0.8336,0.8615,0.8981,0.9083,0.9178,0.9327,0.9191,0.9103,0.9193,0.9788,1.0453,1.1056,1.1538,1.1979,1.2366,1.2379,1.242,1.2501,1.4373,1.5714,1.6451,1.7591,1.8581,1.9224,1.7258,1.6965,1.8061,1.6904,1.709,1.8267,1.918,1.9591,1.9749,2.1909,2.2043,2.123,2.3658,2.3116,2.1429,2.3615,2.3697,0.0,2.2644,2.2756,2.298,2.3067,2.3828,2.4676,2.4315,2.4209,2.4249,2.4422,2.4008,2.3674,2.4262,2.4636,2.501,2.5571,2.5504,2.59,2.7763,2.7227,2.6768,2.7919,2.7148,2.6386,2.6386,2.6533,2.664,2.664,2.6787,2.7014,2.7295,2.7228,2.7255,2.7495,2.7562,2.7618,2.7497,2.7533,2.7503,2.7522,2.7802,2.8083,2.8207,2.8612,2.881,2.8713,2.8636,2.8537,2.8417,2.823,2.8323,2.8657,2.8484,2.9564,3.1843,3.4965,3.6874,3.8054,4.0275,4.1172,4.1172,4.1172,4.1172,4.1172,4.1172,4.1172,4.1016,0.7934,0.7928,0.7914,0.7874,0.7862,0.7862,0.7968,0.8221,0.8452,0.8723,0.8757,0.8777,0.8838,0.8655,0.8513,0.8486,0.9232,0.9992,1.0677,1.1246,1.1755,1.221,1.223,1.2257,1.2311,1.4212,1.5123,1.5021,1.6412,1.7038,1.6907,1.4954,1.4834,1.6202,1.4799,1.4987,1.6369,1.701,1.7258,1.7487,1.9694,1.9634,1.862,2.1719,2.1061,1.8893,2.2214,2.2153,2.0477,2.0272,2.0375,2.0665,2.0706,2.1983,2.3352,2.343,2.3766,2.4249,2.5024,2.4943,2.4796,2.5464,2.5985,2.6239,2.5945,2.5879,2.6347,2.8224,2.7384,2.6847,2.8296,2.7384,2.6413,2.6493,2.668,2.6854,2.6934,2.7134,2.7375,2.7669,2.7696,2.7736,2.7816,2.81,2.814,2.7843,2.7901,2.7994,2.7906,2.8323,2.8617,2.8845,2.9125,2.9245,2.9165,2.8951,2.8804,2.8724,2.8497,2.8657,2.9152,2.8858,2.9556,3.1189,3.3239,3.5277,3.7321,3.9542,4.0703,4.1172,4.1172,4.1172,4.1172,4.1172,4.1172,4.0841,0.7848,0.7821,0.7773,0.7638,0.7726,0.7862,0.7968,0.7995,0.8113,0.8269,0.834,0.8235,0.8042,0.8015,0.8174,0.8459,0.9042,0.9774,1.0663,1.1145,1.1599,1.2121,1.2142,1.1999,1.1857,1.3865,1.4685,1.4248,1.4388,1.4371,1.4062,1.2308,1.155,1.1635,1.178,1.191,1.2136,1.4261,1.5211,1.5376,1.7546,1.8377,1.8323,1.8632,1.8523,1.8373,2.0561,1.9971,1.8114,1.7736,1.7732,1.7809,1.7669,1.9338,2.1342,2.1594,2.2671,2.3728,2.3474,2.4008,2.485,2.5732,2.6666,2.7148,2.6854,2.6787,2.6707,2.6519,2.6465,2.6386,2.6465,2.6465,2.648,2.676,2.6814,2.6921,2.7215,2.7255,2.7375,2.7669,2.7696,2.7816,2.8181,2.8221,2.8221,2.8221,2.8516,2.8631,2.8612,2.9179,2.9446,2.9459,2.974,2.9753,2.9472,2.9459,2.9312,2.9032,2.9018,2.9179,2.9459,2.9165,2.9032,2.9179,3.1119,3.3109,3.5328,3.7467,3.9472,4.1172,4.1172,4.1172,4.1172,4.1172,4.1172,4.0841,0.7921,0.7914,0.7901,0.7853,0.788,0.7928,0.7982,0.7988,0.8008,0.8113,0.8119,0.0,0.0,0.0,0.0,0.0,0.8798,0.9381,1.008,1.0636,1.1104,1.1521,1.166,1.1742,1.1694,1.2294,1.247,1.2359,1.2318,1.2237,1.2116,1.1559,1.124,1.1246,1.145,1.1484,1.1466,1.2258,1.2615,1.2745,1.4934,1.5061,1.4343,1.7233,1.6527,1.4196,0.0,1.6177,1.5468,1.5275,1.5399,1.5663,1.5886,1.7942,2.0491,2.1779,2.2946,2.3955,2.4836,2.5424,2.6052,2.7216,2.7482,2.7522,2.7428,2.7108,2.6854,2.6947,2.6653,2.6453,2.664,2.652,2.648,2.6774,2.6987,2.7215,2.7509,2.7722,2.7966,2.7976,2.7989,2.8114,2.8221,2.8221,2.8221,2.8221,2.8484,2.8678,2.8838,2.9285,2.9566,2.9766,2.986,2.9873,2.9766,2.9579,2.9526,2.9633,3.002,3.0047,2.978,3.0074,2.9887,2.9413,3.1498,3.2765,3.3367,3.5361,3.6602,3.7291,3.8499,3.904,3.8998,3.9178,3.9271,3.8951,0.7988,0.7988,0.7988,0.7988,0.7988,0.0,0.0,0.0,0.0,0.0,0.0,0.0,0.0,0.0,0.0,0.0,0.0,0.9028,0.9625,1.008,1.05,1.0907,1.1009,1.1084,1.1138,1.0934,1.088,1.0995,1.0894,1.09,1.1002,1.1063,1.1084,1.109,1.1246,1.1253,1.1241,1.1267,1.1287,1.1392,1.2772,1.2697,1.1886,1.4601,1.3839,0.0,1.2543,1.277,1.2644,1.2576,1.2818,1.3246,1.4036,1.6823,2.0151,2.2052,2.322,2.4249,2.5718,2.6253,2.6667,2.7939,2.8003,2.7829,2.7722,2.7402,2.7161,2.7241,2.68,2.648,2.6774,2.6587,2.652,2.6921,2.7228,2.7522,2.7816,2.8016,2.8221,2.8221,2.8221,2.8221,2.8221,2.827,2.8337,2.831,2.8644,2.8951,2.9192,2.9472,2.9726,2.9913,2.9913,2.9913,2.9913,2.9833,2.994,3.0234,3.0608,3.0541,3.0087,3.0354,3.0167,2.9722,3.0983,3.199,3.2722,3.3947,3.4854,3.5543,3.6654,3.7003,3.702,3.7125,3.6761,3.6058,0.8002,0.8015,0.8022,0.0,0.0,0.0,0.0,0.0,0.0,0.0,0.0,0.0,0.0,0.0,0.0,0.0,0.0,0.0,0.93,0.9496,0.9842,1.0412,1.0181,1.0107,1.0256,0.9971,0.9964,1.0256,1.0263,1.0412,1.069,1.0772,1.0847,1.0853,1.1063,1.1193,1.1118,1.1193,1.1206,1.1307,1.1172,1.1118,1.1104,1.0975,1.0649,1.027,1.0276,1.008,0.9849,0.9957,1.0354,1.1055,1.2825,1.6398,2.0295,2.2392,2.3607,2.4623,2.6026,2.644,2.6747,2.7953,2.8221,2.8154,2.7789,2.7709,2.7615,2.7308,2.6774,2.644,2.6694,2.6533,2.656,2.7121,2.7482,2.7802,2.8181,2.8221,2.8221,2.8221,2.8221,2.8234,2.8248,2.8425,2.8625,2.8657,2.9098,2.938,2.9472,2.9753,2.9913,2.9913,2.9913,2.9913,2.9913,3.0221,3.0515,3.0795,3.0716,3.0464,3.0159,2.979,2.9657,2.9721,2.9455,3.0798,3.3073,3.3073,3.4073,3.569,3.5502,3.5339,3.529,3.5063,3.4029,3.2684,0.0,0.0,0.0,0.0,0.0,0.0,0.0,0.0,0.0,0.0,0.0,0.0,0.0,0.0,0.0,0.0,0.0,0.0,0.8696,0.9062,0.9388,0.9652,0.9802,0.9897,0.9937,0.9863,0.9863,0.9937,1.0053,1.0085,1.0159,1.0378,1.0453,1.046,1.0602,1.0602,1.0514,1.0616,1.0561,1.0399,1.0473,1.0507,1.0514,1.0582,1.0399,1.019,1.0243,1.008,0.9876,1.0256,1.2,1.4674,1.8248,2.0327,2.1825,2.3896,2.5144,2.5959,2.6547,2.7188,2.7846,2.8154,2.8221,2.8207,2.8127,2.7856,2.7549,2.7041,2.648,2.5959,2.5598,2.5825,2.6186,2.656,2.7256,2.7805,2.8181,2.8221,2.8221,2.8221,2.8221,2.8328,2.8556,2.8577,2.8818,2.9232,2.9427,2.9494,2.9486,2.9753,2.9913,2.9913,2.9913,2.9913,2.9913,3.0421,3.0715,3.0795,2.9093,2.8091,2.7549,2.5615,2.5674,2.716,2.7384,2.886,3.1125,3.1125,3.1429,3.193,3.326,3.3655,3.3456,3.3624,3.3308,3.2483,0.0,0.0,0.0,0.0,0.0,0.0,0.0,0.0,0.0,0.0,0.0,0.0,0.0,0.0,0.0,0.0,0.0,0.0,0.0,0.8681,0.8914,0.9076,0.9123,0.9198,0.9334,0.9266,0.9361,0.9625,0.9713,0.9856,0.9984,1.0073,1.008,1.008,1.0161,1.0154,1.0086,1.0161,1.0141,0.0,0.0,0.9985,0.9985,0.9998,0.9863,0.9746,0.9903,1.0168,1.061,1.206,1.4316,1.7131,2.05,2.2374,2.363,2.5249,2.6092,2.6707,2.7255,2.7762,2.8221,2.8221,2.7448,2.6837,2.7476,2.6674,2.5834,2.599,2.5692,2.5277,2.4943,2.5478,2.6077,2.6381,2.7257,2.798,2.8194,2.8221,2.8221,2.8221,2.8297,2.847,2.8657,2.8878,2.9158,2.9472,2.9486,2.9539,2.9673,2.982,2.9913,2.9913,2.9913,3.0047,3.0301,3.0635,3.0862,3.0982,2.8531,2.7157,2.6677,2.4034,2.4166,2.6466,2.6605,2.8247,3.0742,3.0742,3.0742,3.0794,3.1743,3.2044,3.1873,3.1774,3.1717,3.1511,0.0,0.0,0.0,0.0,0.0,0.0,0.0,0.0,0.0,0.8224,0.811,0.8049,0.8049,0.8049,0.0,0.0,0.0,0.0,0.0,0.0,0.8404,0.8696,0.8445,0.8425,0.8703,0.8581,0.8771,0.9293,0.9334,0.9551,0.9869,0.9815,0.9761,0.9761,0.9761,0.9761,0.9761,0.9761,0.9829,0.9849,0.9673,0.9564,0.9537,0.0,0.9357,0.9282,0.9551,1.0297,1.1552,1.4225,1.659,1.8811,2.1186,2.3543,2.5638,2.64,2.68,2.7161,2.802,2.8221,2.8221,2.8221,2.6418,2.5095,2.658,2.5013,2.3668,2.4744,2.473,2.4489,2.4409,2.5157,2.5953,2.6266,2.731,2.8039,2.8136,2.8221,2.8248,2.8301,2.8438,2.8665,2.8745,2.9168,2.9472,2.9553,2.9539,2.9646,2.99,2.9913,2.9913,2.9913,2.9913,3.0194,3.0782,3.0795,3.073,3.0582,2.7872,2.6293,2.5735,2.282,2.3334,2.6363,2.6283,2.8167,3.1223,3.1276,3.1289,3.1263,3.1009,3.0889,3.0782,3.0274,3.0207,3.0327,0.0,0.0,0.0,0.0,0.0,0.0,0.0,0.0,0.0,0.0,0.8791,0.8404,0.0,0.0,0.0,0.0,0.0,0.0,0.0,0.0,0.0,0.8696,0.854,0.8526,0.871,0.8682,0.8723,0.8825,0.9076,0.9289,0.9371,0.9408,0.9456,0.9456,0.9456,0.9456,0.9456,0.9456,0.9401,0.9371,0.9388,0.9347,0.9303,0.934,0.9367,0.0,0.9822,1.0348,1.1379,1.4391,1.7463,2.0331,2.2797,2.5464,2.7725,2.7872,2.7953,2.8033,2.8181,2.8221,2.8221,2.8221,2.6418,2.5144,2.683,2.4988,2.3241,2.4193,2.4128,2.3768,2.326,2.4102,2.5104,2.5903,2.6714,2.7467,2.8136,2.8221,2.827,2.8604,2.8644,2.8918,2.9602,2.9574,2.9633,2.982,2.9847,2.986,2.9913,2.9913,2.9913,2.9913,2.9913,3.0194,3.0782,3.0795,2.9778,2.7824,2.5224,2.2739,2.0166,1.7608,1.9083,2.3696,2.3853,2.6723,3.1249,3.149,3.1597,3.1583,3.1543,3.137,3.1142,3.1036,3.0728,3.0354,0.0,0.0,0.0,0.0,0.0,0.0,0.0,0.9286,0.9476,0.9998,0.9754,0.9381,0.8994,0.8669,0.8452,0.0,0.0,0.0,0.0,0.0,0.0,0.8587,0.852,0.852,0.8587,0.8669,0.875,0.8832,0.0,0.9083,0.9207,0.915,0.915,0.915,0.915,0.915,0.9157,0.9232,0.9275,0.9221,0.932,0.934,0.9344,0.9442,0.9544,0.0,1.0032,1.0555,1.1276,1.2854,1.5642,1.9019,2.1556,2.4205,2.6418,2.6418,2.7279,2.8221,2.8221,2.8221,2.8221,2.8221,2.5543,2.3201,2.4573,2.2563,2.0616,2.1395,2.2306,2.2752,2.2458,2.3544,2.4543,2.517,2.625,2.7304,2.805,2.8197,2.827,2.8631,2.8778,2.9105,2.9636,2.9722,2.9766,2.99,2.9913,2.9913,2.9913,2.9913,2.9913,2.9913,2.9913,3.0194,3.0782,3.0795,2.9554,2.7098,2.4638,2.1819,1.8921,1.7804,1.9544,2.3422,2.4861,2.7818,3.1463,3.161,3.1664,3.1664,3.1664,3.1583,3.1423,3.1116,3.0822,3.0568,0.0,0.0,0.0,0.0,0.0,0.0,0.0,0.9707,0.9964,1.0683,1.067,1.0351,0.9734,0.913,0.8703,0.0,0.0,0.0,0.0,0.0,0.0,0.0,0.0,0.0,0.8533,0.0,0.0,0.8838,0.8865,0.0,0.0,0.0,0.0,0.0,0.9035,0.9035,0.9042,0.915,0.9262,0.0,0.0,0.9429,0.9449,0.0,0.0,0.0,0.0,1.0595,1.107,1.1382,1.3379,1.6199,1.8449,2.1408,2.3898,2.3926,2.5592,2.7363,2.6842,2.7448,2.7968,2.6927,2.3898,2.1312,2.1908,1.9667,1.781,1.9027,2.0364,2.1529,2.1991,2.3102,2.4107,2.4629,2.5872,2.7066,2.8056,2.8133,2.8203,2.8644,2.8898,2.9179,2.9539,2.978,2.9913,2.9913,2.9913,2.9913,2.9913,2.9913,2.9913,2.9913,2.9913,3.0194,3.0782,3.0795,2.9276,2.6245,2.4355,2.1848,1.9091,1.9219,2.1206,2.4525,2.6587,2.9078,3.1664,3.1664,3.1664,3.1664,3.1664,3.1664,3.161,3.1156,3.0942,3.0849,0.0,0.0,0.0,0.0,0.0,0.0,0.0,1.0012,1.0419,1.1558,1.117,1.0759,1.0622,1.0059,0.9429,0.0,0.0,0.0,0.0,0.0,0.0,0.0,0.0,0.0,0.0,0.0,0.0,0.873,0.8817,0.0,0.0,0.0,0.0,0.0,0.0,0.934,0.934,0.9354,0.0,0.0,0.0,0.0,0.0,0.0,0.0,0.0,0.0,1.0399,1.0683,1.1511,1.2017,1.2496,1.3538,1.7397,2.1525,2.1405,2.3121,2.4605,2.2428,2.4935,2.7181,2.2944,2.148,2.1013,2.0198,1.757,1.6187,1.9001,1.9397,1.9944,2.2004,2.2699,2.35,2.4904,2.5591,2.6413,2.7988,2.7902,2.7959,2.8898,2.9018,2.9259,2.982,2.99,2.9913,2.9913,2.9913,2.9913,2.9913,2.9913,2.9913,2.9913,2.9913,3.0194,3.0782,3.0795,2.8415,2.379,2.3496,2.1865,1.8896,1.9159,2.2072,2.6853,2.7381,2.9173,3.1664,3.1664,3.1664,3.1664,3.1664,3.1664,3.1664,3.161,3.1423,3.1183,0.0,0.0,0.0,0.0,0.0,0.0,0.9971,1.0053,1.0453,1.1558,1.1416,1.1158,1.1002,1.0527,0.9856,0.8927,0.0,0.0,0.0,0.0,0.0,0.0,0.0,0.0,0.0,0.0,0.8893,0.8974,0.9035,0.0,0.0,0.0,0.0,0.0,0.0,0.9381,0.9388,0.9483,0.0,0.0,0.0,0.0,0.0,0.0,0.0,0.0,0.0,0.0,1.0697,1.1076,1.1599,1.202,1.2284,1.4199,1.6726,1.8331,2.0507,2.2246,2.1439,2.26,2.3555,2.1653,2.0086,1.8788,1.7941,1.632,1.5278,1.6097,1.7636,1.9184,2.046,2.1784,2.2977,2.4293,2.5106,2.5974,2.6988,2.731,2.7696,2.8417,2.8671,2.9085,2.9847,2.9913,2.9913,2.9913,2.9913,2.9913,2.9913,3.0087,3.0181,3.0181,3.0354,3.0635,3.1049,3.0875,2.9077,2.5671,2.5671,2.4082,2.1468,2.3394,2.5417,2.7428,2.9243,3.0691,3.1664,3.1664,3.1664,3.1664,3.1664,3.1664,3.165,3.1463,3.133,3.1223,0.0,0.0,0.0,0.0,0.0,0.9483,0.9978,1.0127,1.0514,1.143,1.1457,1.1314,1.1124,1.0656,1.0032,0.9211,0.8959,0.0,0.0,0.0,0.0,0.0,0.0,0.0,0.0,0.0,0.9049,0.9207,0.9303,0.934,0.0,0.0,0.951,0.951,0.0,0.0,0.0,0.0,0.0,0.0,0.0,0.0,0.0,0.0,0.0,0.0,0.0,0.0,0.0,0.0,0.0,1.1735,1.1762,1.223,1.3207,1.5443,1.7922,1.9817,1.9263,2.0135,2.0875,1.9498,1.8268,1.7095,1.5739,1.4844,1.4251,1.4057,1.5682,1.7652,1.9298,2.065,2.206,2.3614,2.4556,2.5405,2.6293,2.6747,2.7255,2.7936,2.8203,2.8684,2.9566,2.982,2.9913,2.9913,2.9913,2.9913,2.9913,3.0194,3.0354,3.0354,3.0635,3.0929,3.1223,3.1022,2.9682,2.7204,2.7204,2.6128,2.4309,2.651,2.7854,2.874,3.076,3.1664,3.1664,3.1664,3.1664,3.1664,3.1664,3.1664,3.1637,3.1436,3.1356,3.1356,0.0,0.0,0.0,0.0,0.0,0.0,0.9896,1.0297,1.0704,1.1314,1.1396,1.128,1.0914,1.0419,0.9992,0.9632,0.9198,0.0,0.0,0.0,0.0,0.0,0.0,0.0,0.0,0.0,0.9207,0.9207,0.9456,0.9605,0.9612,0.9747,0.9815,0.9815,0.0,0.0,0.0,0.0,0.0,0.0,0.0,0.0,0.9822,0.0,0.0,0.0,0.0,0.0,0.0,0.0,0.0,0.0,0.0,1.1728,1.202,1.2995,1.5218,1.6916,1.4714,1.7628,2.0096,1.5521,1.5869,1.6516,1.3658,1.2695,1.2639,1.375,1.3729,1.4791,1.8823,1.9519,2.0311,2.3027,2.3892,2.473,2.6186,2.64,2.672,2.7602,2.7709,2.8056,2.8965,2.9579,2.9913,2.9913,2.9913,2.9913,2.9913,3.0194,3.0354,3.0354,3.0635,3.0929,3.1223,3.1223,2.9965,2.757,2.757,2.7334,2.7098,2.7357,2.8823,3.1142,3.1543,3.1664,3.1664,3.1664,3.1664,3.1664,3.1664,3.1664,3.1664,3.1664,3.1664,3.1664,0.0,0.0,0.0,0.0,0.0,0.0,0.0,0.9829,1.01,1.0697,1.0602,1.0489,1.0772,1.0168,0.9795,0.9835,0.9256,0.0,0.0,0.0,0.0,0.0,0.0,0.0,0.0,0.9187,0.9354,0.9768,0.9964,1.0168,1.0365,1.031,1.0229,1.0127,0.9917,0.9822,0.0,0.0,0.0,0.0,0.0,0.9822,0.9836,0.0,0.0,0.0,0.0,0.0,0.0,0.0,0.0,0.0,0.0,0.0,0.0,1.2298,1.3424,1.4397,1.3818,1.481,1.5663,1.4041,1.4111,1.4141,1.2917,1.2461,1.2299,1.2359,1.3122,1.4673,1.7444,1.8822,2.0589,2.3713,2.4416,2.4877,2.5945,2.6519,2.7028,2.7615,2.8591,2.9325,2.9606,2.9806,2.9913,2.9913,2.9913,2.9913,2.9913,3.0194,3.0448,3.0648,3.0942,3.1236,3.153,3.1129,3.065,3.0071,2.9878,2.984,2.9943,3.0226,3.0841,3.153,3.1623,3.1664,3.1664,3.1664,3.1664,3.1664,3.1664,3.1664,3.1664,3.1664,3.1664,3.1664,0.0,0.0,0.0,0.0,0.0,0.0,0.0,0.9537,0.9761,1.0181,1.008,1.0051,1.0514,0.9937,0.9639,0.9876,0.9388,0.0,0.0,0.0,0.0,0.0,0.0,0.0,0.9207,0.9268,0.9537,1.0134,1.0344,1.0595,1.0887,1.0846,1.0663,1.0351,1.0161,0.9978,0.0,0.0,0.0,0.0,0.9822,0.9856,0.9856,0.0,0.0,0.0,0.0,0.0,0.0,0.0,0.0,0.0,0.0,0.0,0.0,0.0,1.2305,1.2745,1.3132,1.3383,1.3519,1.3424,1.32,1.2915,1.2576,1.2305,1.202,1.1687,1.2335,1.366,1.5732,1.6927,1.8524,2.1522,2.2666,2.3625,2.4765,2.5872,2.6881,2.7602,2.8911,2.9713,2.9593,2.9887,3.0034,2.9927,2.9913,2.9913,2.9913,3.01,3.0327,3.0621,3.1022,3.1316,3.1503,3.1249,3.1209,3.1396,3.1209,3.1223,3.1396,3.1583,3.1664,3.1664,3.1664,3.1664,0.0,3.1664,3.1664,3.1664,3.1664,3.108,3.0306,3.1379,3.108,3.021,0.0,0.0,0.0,0.0,0.0,0.0,0.0,0.9395,0.9632,0.9788,0.9795,0.9903,1.0202,0.972,0.9496,0.9781,0.0,0.0,0.0,0.0,0.0,0.0,0.0,0.0,0.9221,0.9327,0.9713,1.0331,1.0622,1.0928,1.1246,1.1375,1.1118,1.0541,1.0521,1.0249,0.0,0.0,0.0,0.0,0.9836,0.9862,0.0,0.0,0.0,0.0,0.0,0.0,0.0,0.0,0.0,0.0,0.0,0.0,0.0,0.0,0.0,0.0,0.0,1.3091,1.3322,1.3308,1.299,1.2644,1.2488,1.2128,0.0,1.1633,1.1491,1.1995,1.406,1.4288,1.4982,1.7377,1.9426,2.1331,2.2948,2.4916,2.6613,2.7696,2.8858,2.9459,2.9165,2.9873,3.0247,2.9967,2.9927,2.9913,2.9913,2.9913,3.0047,3.0314,3.0889,3.1209,3.1223,3.1503,3.165,3.1664,3.165,3.165,3.1664,3.1664,3.1664,3.1664,3.1664,3.1664,3.1664,3.1664,3.1664,3.1677,3.1474,2.9924,2.8068,3.0496,2.9816,2.7588,0.0,0.0,0.0,0.0,0.0,0.0,0.0,0.0,0.0,0.0,0.9557,0.9557,0.9747,0.9537,0.9456,0.0,0.0,0.0,0.0,0.0,0.0,0.0,0.0,0.0,0.9327,0.9585,1.0066,1.0792,1.109,1.1504,1.2026,1.1945,1.1579,1.0995,1.0772,1.0351,0.0,0.0,0.0,0.0,0.9889,0.9957,0.0,0.0,0.0,0.0,1.0622,1.086,0.0,0.0,0.0,0.0,0.0,0.0,0.0,0.0,1.1402,1.1558,1.1857,0.0,1.2522,1.2406,1.2298,1.2176,0.0,1.1904,1.1755,1.1497,1.1416,1.203,1.4234,1.4373,1.5159,1.8035,1.8867,2.0179,2.3232,2.6511,2.8751,2.9032,2.99,3.0368,3.0074,3.0234,3.0327,3.0261,3.0047,2.9913,2.9913,2.9913,2.9953,3.002,3.0595,3.0996,3.1223,3.1289,3.145,3.1664,3.1436,3.145,3.1664,3.1664,3.1664,3.1664,3.1664,3.1664,3.1664,3.1664,3.1664,3.1474,2.9529,2.8368,2.7876,2.8464,2.7095,2.5141,0.0,0.0,0.0,0.0,0.0,0.0,0.0,0.0,0.0,0.0,0.0,0.9442,0.0,0.0,0.0,0.0,0.0,0.0,0.0,0.0,0.0,0.0,0.0,0.9327,0.9483,0.9707,1.0222,1.105,1.128,1.1735,1.2386,1.2305,1.1911,1.124,1.067,1.0132,0.0,0.0,0.0,0.9836,0.9923,0.0,0.0,0.0,0.0,0.0,1.069,1.0914,0.0,1.1402,1.1626,1.1809,0.0,0.0,0.0,0.0,1.1172,1.1219,1.1369,1.1843,1.2284,1.2271,1.2216,1.2142,1.206,1.1884,1.1687,1.1531,1.1497,1.1844,1.3157,1.3386,1.4301,1.6839,1.8475,2.0809,2.498,2.7826,2.9486,2.9486,3.0261,3.0728,3.0568,3.0555,3.0501,3.0368,3.0087,2.9913,2.9913,2.9913,2.998,3.0114,3.0555,3.0862,3.1022,3.1289,3.1517,3.1664,3.1503,3.1517,3.1664,3.1664,3.1664,3.1664,3.1664,3.1664,3.1664,3.1664,3.0985,2.9816,2.8356,2.6312,2.4366,2.5529,2.4366,2.2321,0.0,0.0,0.0,0.0,0.0,0.0,0.0,0.0,0.0,0.0,0.0,0.0,0.0,0.0,0.0,0.0,0.0,0.0,0.0,0.0,0.0,0.0,0.0,0.951,0.9707,0.9829,1.0317,1.1199,1.1396,1.185,1.2535,1.2583,1.2182,1.1389,1.0469,0.999,0.0,0.9863,0.9869,0.9903,0.997,0.0,0.0,0.0,0.0,0.0,0.0,0.0,0.0,1.1565,1.183,1.1986,1.2012,0.0,0.0,0.0,0.0,0.0,1.1179,1.1762,1.2325,1.2332,1.2291,1.2244,1.2196,1.1891,1.1613,1.1592,1.1606,1.1694,1.1925,1.2443,1.3516,1.5472,1.8724,2.2555,2.6852,2.8778,2.9686,2.9686,3.0421,3.0915,3.0862,3.0862,3.0742,3.0448,3.0154,2.9967,2.9913,2.9913,3.0034,3.0287,3.0621,3.0795,3.0795,3.1383,3.1664,3.1664,3.1664,3.1664,3.1664,3.1664,3.1664,3.1664,3.1664,3.1664,3.1664,3.1664,3.021,2.778,2.7384,2.4269,2.0363,2.2906,2.2028,1.9396,0.0,0.0,0.0,0.0,0.0,0.0,0.0,0.0,0.0,0.0,0.0,0.0,0.0,0.0,0.0,0.0,0.0,0.0,0.0,0.0,0.0,0.0,0.9639,0.9761,1.0168,1.0202,1.0588,1.1355,1.1762,1.221,1.2698,1.2949,1.2542,1.1558,1.0907,1.0466,1.0202,1.0066,1.0093,1.0209,1.0236,0.0,0.0,0.0,0.0,0.0,0.0,0.0,0.0,1.0995,1.1355,1.164,1.1382,0.0,0.0,0.0,0.0,0.0,1.1436,1.1999,1.2325,1.1714,1.183,1.2033,1.1782,1.1667,1.1586,1.145,1.1531,1.1816,1.2474,1.3839,1.532,1.6789,2.1116,2.4847,2.6206,2.8796,3.0595,3.0595,3.1156,3.1436,3.1183,3.1156,3.1036,3.0755,3.0461,3.0181,2.9927,2.9913,2.994,2.998,3.0515,3.0795,3.0795,3.1383,3.1664,3.1664,3.1664,3.1664,3.1664,3.1664,3.1664,3.1664,3.1664,3.1664,3.1664,3.1664,3.021,2.7588,2.5335,2.2711,2.0363,2.2906,2.0862,1.6686,0.0,0.0,0.0,0.0,0.0,0.0,0.0,0.0,0.0,0.0,0.0,0.0,0.0,0.0,0.0,0.0,0.0,0.0,0.0,0.0,0.0,1.0175,1.0046,1.0107,1.0385,1.0636,1.1124,1.1877,1.2244,1.2651,1.3085,1.282,1.2271,1.147,1.0955,1.0602,1.0385,1.0236,1.0256,1.0392,0.0,0.0,0.0,0.0,0.0,0.0,0.0,0.0,0.0,0.0,1.1552,1.1816,1.1592,0.0,0.0,0.0,0.0,0.0,1.1294,1.1748,1.2094,1.1925,1.3439,1.4643,1.3165,1.4782,1.5786,1.2885,1.3339,1.4061,1.3127,1.3785,1.5713,1.9471,2.3968,2.7292,2.8118,2.9416,3.0434,3.0755,3.1169,3.1436,3.1463,3.1316,3.1102,3.0808,3.0528,3.0234,2.9927,3.0074,3.0234,3.0381,3.0808,3.1102,3.1263,3.153,3.1664,3.1664,3.1664,3.1664,3.1664,3.1664,3.1664,3.1664,3.1664,3.1664,3.1569,3.021,2.8068,2.5432,2.2799,2.1049,2.0175,2.1343,2.0342,1.8091,0.0,0.0,0.0,0.0,0.0,0.0,0.0,0.0,0.0,0.0,0.0,0.0,0.0,0.0,0.0,0.0,0.0,0.0,0.0,0.0,0.9992,1.0371,1.0385,1.0514,1.0799,1.1111,1.1619,1.2338,1.2705,1.3064,1.339,1.2712,1.2054,1.1423,1.1009,1.0738,1.0588,1.0446,1.0466,1.0595,0.0,0.0,0.0,0.0,0.0,0.0,0.0,0.0,0.0,0.0,0.0,0.0,0.0,0.0,0.0,1.143,1.1219,1.1076,1.1328,1.1674,1.206,1.2372,1.481,1.6444,1.4203,1.7243,1.9054,1.4128,1.508,1.6029,1.3788,1.4112,1.6641,2.2241,2.5884,2.8592,3.001,3.0221,3.0421,3.0942,3.1196,3.1423,3.165,3.1463,3.1183,3.0822,3.0581,3.0301,2.994,3.0194,3.0461,3.0688,3.1036,3.133,3.1557,3.1637,3.1664,3.1664,3.1664,3.1664,3.1664,3.1664,3.1664,3.1664,3.1664,3.1379,3.0592,2.8656,2.5926,2.2809,2.0755,2.0363,2.0853,2.0265,2.0492,2.0682,0.0,0.0,0.0,0.0,0.0,0.0,0.0,0.0,0.0,0.0,0.0,0.0,0.0,0.0,0.0,0.0,0.0,0.0,0.9822,0.9822,0.9897,1.0011,1.0473,1.1016,1.1721,1.164,1.1884,1.2488,1.3064,1.337,1.339,1.2922,1.2305,1.1592,1.1274,1.105,1.084,1.0751,1.0778,1.0833,1.0758,0.0,0.0,0.0,0.0,0.0,0.0,0.0,0.0,0.0,0.0,0.0,0.0,0.0,1.2013,1.1837,1.1681,1.1633,1.1918,1.2223,1.2528,1.2834,1.4304,1.522,1.3788,1.6587,1.8358,1.4259,1.5451,1.6518,1.4181,1.5882,1.9326,2.433,2.5802,2.7433,3.0624,3.1129,3.1249,3.157,3.1623,3.165,3.1664,3.165,3.1396,3.0835,3.0768,3.0515,2.994,3.0194,3.0368,3.0394,3.0929,3.1236,3.1263,3.153,3.1664,3.1664,3.1664,3.1664,3.1664,3.1664,3.1664,3.1664,3.1664,3.0306,2.8068,2.7876,2.4851,2.0265,2.0077,2.1441,2.3296,2.0853,2.1667,2.3157,0.0,0.0,0.0,0.0,0.0,0.0,0.0,0.0,0.0,0.0,0.0,0.0,0.0,0.0,0.0,0.0,0.0,0.0,0.9822,0.9822,0.9971,1.031,1.0582,1.0982,1.1545,1.1959,1.2413,1.2915,1.3336,1.3444,1.3247,1.28,1.2291,1.1735,1.1436,1.0594,0.939,0.9256,0.8601,0.7665,0.8613,0.9019,0.0,0.0,0.0,0.0,0.0,0.0,0.0,0.0,1.1552,1.1742,1.1708,1.1864,1.2013,1.1769,1.166,1.1647,1.1755,1.2135,1.2576,1.2881,1.4514,1.5707,1.4244,1.8882,2.2053,1.7243,1.8443,1.9045,1.4835,1.6603,1.9742,2.2983,2.5275,2.7699,3.0769,3.1223,3.133,3.1637,3.1664,3.1664,3.1664,3.1664,3.1503,3.1089,3.0889,3.0688,3.0474,3.0568,3.0715,3.0889,3.1289,3.1503,3.1503,3.161,3.1757,3.1931,3.1757,3.1664,3.1664,3.1664,3.1664,3.1664,3.1664,3.1175,3.0007,2.6698,2.4172,2.2428,2.265,2.4197,2.6045,2.3542,2.3335,2.353,0.0,0.0,0.0,0.0,0.0,0.0,0.0,0.0,0.0,0.0,0.0,0.0,0.0,0.0,0.0,0.0,0.0,0.0,0.9822,0.9822,0.9978,1.0337,1.0541,1.0839,1.124,1.1979,1.2556,1.2963,1.3315,1.3356,1.3098,1.2691,1.2338,1.2033,1.1735,1.0954,0.9755,0.954,0.8663,0.7663,0.8669,0.9023,0.0,0.0,0.0,0.0,0.0,0.0,0.0,0.0,1.1633,1.1775,1.1816,1.1938,1.2033,1.1877,1.1932,1.2033,1.1986,1.2298,1.2718,1.3024,1.486,1.6194,1.4682,1.9489,2.2855,1.8091,1.848,1.8581,1.5201,1.6239,1.8795,2.215,2.4502,2.7193,3.0833,3.137,3.1436,3.1637,3.1664,3.1664,3.1664,3.1664,3.1543,3.1249,3.0955,3.0795,3.0795,3.0795,3.0929,3.1209,3.1517,3.1664,3.1664,3.1664,3.181,3.2104,3.1904,3.181,3.181,3.181,3.1757,3.1664,3.1664,3.127,3.0115,2.5722,2.3433,2.3023,2.483,2.6624,2.7747,2.524,2.4446,2.3734,0.0,0.0,0.0,0.0,0.0,0.0,0.0,0.0,0.0,0.0,0.0,0.0,0.0,0.0,0.0,0.0,0.0,0.0,0.9822,0.9822,0.989,0.9977,1.0331,1.0629,1.0867,1.1674,1.2196,1.2501,1.2949,1.3098,1.2949,1.2644,1.2501,1.2488,1.2196,1.223,1.2474,1.1952,1.1763,1.1736,1.1518,1.115,1.0887,0.0,0.0,0.0,0.0,0.0,0.0,0.0,1.1735,1.1701,1.2149,1.2182,1.2094,1.2244,1.2603,1.2922,1.2759,1.284,1.3037,1.3322,1.5283,1.6618,1.4776,1.7715,1.9749,1.6039,1.4719,1.4489,1.5072,1.4821,1.6416,2.2274,2.3537,2.5641,3.0946,3.1664,3.1664,3.1664,3.1664,3.1664,3.1664,3.1664,3.1543,3.1249,3.0955,3.0795,3.0808,3.0795,3.0929,3.1223,3.1517,3.1664,3.1664,3.1664,3.1824,3.2104,3.2104,3.2104,3.2104,3.2104,3.1944,3.1664,3.1677,3.021,2.7588,2.5045,2.2542,2.0963,2.619,2.8418,2.8346,2.5545,2.4679,2.405,0.0,0.0,0.0,0.0,0.0,0.0,0.0,0.0,0.0,0.0,0.0,0.0,0.0,0.0,0.0,0.0,0.0,0.0,0.9822,0.9822,0.9842,0.9883,1.0276,1.0487,1.048,1.1002,1.1681,1.2501,1.2637,1.2678,1.2637,1.2542,1.2562,1.2657,1.2569,1.1713,1.0336,1.0044,0.9151,0.8049,0.9192,0.9557,0.9476,0.0,0.0,0.0,0.0,0.0,0.0,0.0,0.0,0.0,1.1925,1.2155,1.2318,1.2047,1.2216,1.2413,1.2047,1.2596,1.3643,1.5272,1.6801,1.8356,1.9777,2.0842,2.0891,1.8274,1.7707,1.7034,1.5448,1.683,1.9295,2.2703,2.5104,2.7782,3.127,3.1664,3.1664,3.1664,3.1664,3.1664,3.1664,3.1664,3.1637,3.1543,3.1076,3.1062,3.1677,3.1129,3.1116,3.1824,3.173,3.1664,3.1664,3.1664,3.1917,3.2412,3.2412,3.2305,3.2104,3.2104,3.1944,3.1677,3.1891,3.1468,3.0306,2.7672,2.636,2.6103,2.7865,2.9555,3.059,2.6361,2.481,2.405,0.0,0.0,0.0,0.0,0.0,0.0,0.0,0.0,0.0,0.0,0.915,0.9286,0.0,0.0,0.0,0.9808,0.9822,0.9822,0.9822,0.9822,0.9849,0.9849,1.0175,1.0358,1.0453,1.0894,1.1375,1.1884,1.2067,1.2244,1.242,1.2657,1.2881,1.3091,1.3207,1.2452,1.1097,1.0841,1.0025,0.8949,0.9937,1.0145,1.0076,0.0,0.0,0.0,0.0,0.0,0.0,0.0,0.0,0.0,1.1816,1.2013,1.2244,1.2271,1.2535,1.2813,1.2779,1.3295,1.418,1.5694,1.7974,2.053,2.3428,2.2464,2.0354,1.8182,1.7529,1.7049,1.5801,1.78,2.0437,2.3084,2.5927,2.8752,3.1379,3.1664,3.1664,3.1664,3.1664,3.1664,3.1664,3.1664,3.1664,3.1664,3.1236,3.1249,3.1891,3.1423,3.1436,3.2078,3.2051,3.2011,3.2011,3.1904,3.2131,3.2719,3.2696,3.2452,3.2278,3.2278,3.2118,3.1851,3.2024,3.1474,3.0433,2.9729,2.9128,2.8682,2.9935,3.1278,3.1966,2.6933,2.5002,2.4177,0.0,0.0,0.0,0.0,0.0,0.0,0.0,0.0,0.0,0.8885,0.8905,0.9083,0.0,0.0,0.0,0.9795,0.9822,0.9822,0.9822,0.9822,0.989,0.9977,1.0024,1.0247,1.0731,1.1131,1.1199,1.086,1.1389,1.1843,1.2284,1.2888,1.3336,1.3641,1.3939,1.3892,1.3566,1.3275,1.2983,1.2698,1.2589,1.2271,1.187,1.187,0.0,0.0,0.0,0.0,0.0,0.0,0.0,0.0,1.1789,1.1837,1.1986,1.2664,1.3193,1.3682,1.419,1.4407,1.4681,1.5276,1.8919,2.2945,2.5218,2.2763,1.9234,1.6774,1.5719,1.5432,1.5981,1.7843,2.033,2.3391,2.6119,2.8752,3.1379,3.1664,3.1664,3.1664,3.1664,3.1664,3.1664,3.1664,3.1664,3.1664,3.1396,3.1383,3.173,3.1677,3.1784,3.2131,3.2358,3.2562,3.2562,3.2198,3.2358,3.2933,3.2652,3.2616,3.2643,3.2643,3.2398,3.2144,3.2144,3.1043,2.933,3.1296,3.1086,2.9767,3.2069,3.3146,3.2659,2.725,2.5215,2.4363,0.0,0.0,0.0,0.0,0.0,0.0,0.0,0.0,0.8885,0.8885,0.9144,0.9313,0.9374,0.9585,0.0,0.9815,0.9822,0.9822,0.9822,0.9822,0.989,0.9977,1.0321,1.0677,1.0826,1.088,1.0833,1.0772,1.1341,1.1789,1.2128,1.284,1.3336,1.3641,1.3939,1.3777,1.3261,1.3085,1.2827,1.2569,1.2779,1.2589,1.2189,1.2189,1.1999,0.0,0.0,0.0,0.0,0.0,0.0,0.0,1.1789,1.1911,1.202,1.206,1.2562,1.3078,1.2963,1.3627,1.4804,1.6928,2.174,2.5047,2.1631,2.1886,2.2104,1.9346,1.7232,1.5927,1.6056,1.8136,2.0703,2.3461,2.6119,2.8752,3.1379,3.1664,3.1664,3.1664,3.1664,3.1664,3.1664,3.1664,3.1664,3.1664,3.1396,3.1557,3.2318,3.1704,3.1664,3.2425,3.2064,3.1864,3.1864,3.1797,3.2064,3.2639,3.2332,3.2318,3.2643,3.2643,3.2519,3.2452,3.2452,3.2583,3.2816,3.2563,3.2491,3.2481,3.2868,3.3013,3.2484,2.7196,2.5215,2.4383,0.0,0.0,0.0,0.0,0.0,0.0,0.0,0.0,0.8905,0.9028,0.9178,0.9327,0.9476,0.9625,0.0,0.0,0.9822,0.9822,0.9822,0.9822,0.9924,1.0148,1.0521,1.069,1.0629,1.069,1.0683,1.0609,1.1138,1.1626,1.2155,1.282,1.3336,1.3641,1.3865,1.3668,1.3166,1.3091,1.2929,1.2732,1.2895,1.2732,1.2386,1.2318,1.206,1.1708,1.1558,0.0,0.0,0.0,0.0,0.0,0.0,0.0,1.1904,1.2182,1.2542,1.2942,1.3349,1.3926,1.5066,1.7788,2.1902,2.4638,2.1792,2.2596,2.313,2.0307,1.7818,1.6083,1.6083,1.8228,2.0853,2.3481,2.6119,2.8752,3.1379,3.1664,3.1664,3.1664,3.1664,3.1664,3.1664,3.1664,3.1664,3.1664,3.153,3.1704,3.2305,3.2038,3.2064,3.2629,3.2385,3.2225,3.2091,3.1944,3.2104,3.2643,3.2238,3.2251,3.2643,3.2643,3.2625,3.2746,3.2746,3.3187,3.3841,3.3213,3.3227,3.3627,3.3467,3.2507,3.0764,2.6708,2.4392,2.2648,0.0,0.0,0.0,0.0,0.0,0.0,0.0,0.0,0.0,0.9234,0.9275,0.9327,0.9585,0.9632,0.9693,0.0,0.0,0.0,0.9822,0.9842,0.9985,1.027,1.0534,1.0582,1.0365,1.0595,1.067,1.0568,1.0995,1.1511,1.2115,1.2813,1.3315,1.3634,1.3749,1.3553,1.3132,1.3105,1.2983,1.2886,1.2861,1.2698,1.2413,1.2298,1.1999,1.1653,1.1626,1.1633,1.1653,1.1626,0.0,0.0,0.0,0.0,1.1775,1.2366,1.261,1.2908,1.3899,1.4319,1.5042,1.7667,2.0485,2.2551,2.1982,2.2596,2.2516,1.988,1.7642,1.6083,1.6083,1.784,2.0371,2.3394,2.5733,2.8164,3.1284,3.1664,3.1664,3.1664,3.1664,3.1664,3.1664,3.1664,3.1664,3.1664,3.1717,3.1877,3.2158,3.2412,3.267,3.271,3.2759,3.2719,3.2478,3.2171,3.2171,3.2465,3.2278,3.2358,3.2692,3.2692,3.2826,3.3053,3.316,3.3521,3.4015,3.3641,3.3681,3.3948,3.3841,3.22,2.9623,2.6342,2.3775,2.131,0.0,0.0,0.0,0.0,0.0,0.0,0.0,0.0,0.0,0.0,0.9462,0.9564,0.9605,0.972,0.9802,0.9822,0.9822,0.9822,0.9822,0.0,0.0,1.0276,1.0432,1.0568,1.0656,1.0704,1.0772,1.082,1.1206,1.1667,1.2271,1.2759,1.322,1.3627,1.3648,1.341,1.2983,1.2847,1.2556,1.2203,1.2461,1.2386,1.2121,1.2101,1.1972,1.1789,1.166,1.1701,1.1782,1.166,1.1789,0.0,0.0,0.0,1.1796,1.1775,1.2128,1.2569,1.2725,1.3532,1.4585,1.5577,1.7954,1.9429,1.7158,1.8656,1.9782,1.7154,1.6374,1.6083,1.6083,1.6374,1.8228,2.3101,2.4172,2.6108,3.0985,3.1664,3.1664,3.1664,3.1664,3.1664,3.1664,3.1664,3.1664,3.1664,3.1904,3.2171,3.2478,3.2616,3.2666,3.2919,3.2465,3.2198,3.2158,3.1877,3.1877,3.2171,3.2385,3.2772,3.3293,3.3293,3.332,3.3387,3.3908,3.4336,3.4603,3.4055,3.4002,3.4215,3.3681,3.324,3.2284,2.7057,2.5009,2.3906,0.0,0.0,0.0,0.0,0.0,0.0,0.0,0.0,0.0,0.0,0.0,0.9639,0.972,0.9781,0.9822,0.9822,0.9822,0.9822,0.9822,0.9903,1.0017,1.0148,1.0209,1.0276,1.028,1.0432,1.0588,1.0819,1.1036,1.1579,1.2413,1.2528,1.2956,1.362,1.337,1.3193,1.3051,1.2651,1.2413,1.2305,1.2271,1.2427,1.263,1.2121,1.2101,1.2271,1.1789,1.1708,1.1823,1.1755,1.1884,1.2026,1.1809,0.0,0.0,0.0,1.1857,1.2291,1.3044,1.3824,1.4577,1.5242,1.7578,1.8986,1.6229,1.7892,1.9298,1.6665,1.6083,1.6083,1.6083,1.6083,1.7353,2.1049,2.2906,2.5238,2.8943,3.0795,3.173,3.1891,3.1904,3.1984,3.2144,3.2011,3.1904,3.1904,3.2024,3.2238,3.2629,3.2706,3.2839,3.2973,3.2572,3.2278,3.2104,3.181,3.1904,3.2358,3.2826,3.2442,3.1185,3.1585,3.2494,3.3935,3.4202,3.4496,3.4736,3.4309,3.4202,3.4282,3.3841,3.2641,3.0647,2.6649,2.4254,2.2526,0.0,0.0,0.0,0.0,0.0,0.0,0.0,0.0,0.0,0.0,0.0,0.97,0.9808,0.0,0.0,0.0,0.9822,0.9836,0.9876,0.9923,0.9984,0.9984,0.995,0.995,0.9984,1.0202,1.0426,1.0717,1.0948,1.1538,1.2447,1.242,1.2861,1.3661,1.3254,1.3091,1.3085,1.2562,1.2366,1.2379,1.2277,1.2562,1.301,1.2528,1.2644,1.2976,1.223,1.2074,1.2196,1.1965,1.1993,1.2088,1.1891,1.183,0.0,0.0,0.0,1.204,1.3234,1.3804,1.4251,1.5045,1.6912,1.7969,1.6153,1.7404,1.8364,1.6467,1.6083,1.6083,1.6083,1.6083,1.7154,2.047,2.2614,2.5045,2.8356,3.0561,3.1864,3.2078,3.2171,3.2305,3.2616,3.2278,3.2104,3.2104,3.2171,3.2318,3.2629,3.2893,3.3093,3.3093,3.2732,3.2478,3.2318,3.2104,3.2265,3.2772,3.3307,3.2175,2.9791,3.0165,3.1566,3.3473,3.3473,3.398,3.4736,3.4442,3.4282,3.4175,3.3881,3.1972,2.9014,2.624,2.3597,2.0977,0.0,0.0,0.0,0.0,0.0,0.0,0.0,0.0,0.0,0.0,0.0,0.9815,0.9822,0.9822,0.9822,0.9822,0.9822,0.9883,0.9963,0.9984,0.9984,0.9984,0.9849,0.0,0.9984,1.0202,1.0426,1.0717,1.1151,1.1687,1.2311,1.2583,1.3112,1.3817,1.3512,1.3227,1.2949,1.263,1.2332,1.2121,1.2528,1.2718,1.2827,1.3485,1.3844,1.3905,1.3159,1.3078,1.3186,1.2338,1.2149,1.223,1.1925,1.183,1.1803,0.0,0.0,0.0,1.2576,1.2807,1.3139,1.4448,1.4879,1.5162,1.578,1.6048,1.6103,1.6049,1.6083,1.6083,1.6083,1.6083,1.7741,2.2906,2.3773,2.5722,3.0795,3.1808,3.2078,3.2104,3.2345,3.2629,3.2643,3.2278,3.2104,3.2104,3.2358,3.2629,3.2643,3.308,3.3387,3.3387,3.2839,3.2666,3.2933,3.2919,3.3066,3.3374,3.3708,3.2673,3.0306,3.0435,3.0681,3.113,3.113,3.2505,3.4736,3.4442,3.4162,3.3881,3.3561,3.1781,2.9014,2.624,2.3597,2.0977,0.0,0.0,0.0,0.0,0.0,0.0,0.0,0.0,0.0,0.0,0.0,0.0,0.0,0.9822,0.9822,0.9822,0.9849,0.997,1.0188,1.0195,1.0154,0.999,1.0093,1.0093,0.999,1.029,1.0514,1.0717,1.0982,1.1463,1.2149,1.2447,1.2929,1.3546,1.3247,1.322,1.3342,1.2657,1.2359,1.2386,1.2834,1.3302,1.377,1.4034,1.4468,1.4835,1.4089,1.3641,1.3349,1.303,1.2637,1.225,1.2047,1.1911,1.1803,1.166,1.1619,1.1782,1.2528,1.2732,1.2935,1.381,1.4462,1.4957,1.5228,1.5655,1.6042,1.6198,1.6151,1.6083,1.6083,1.6083,1.7253,2.0853,2.2799,2.5141,2.8752,3.0837,3.2171,3.2372,3.2639,3.2893,3.308,3.2666,3.2465,3.2652,3.2585,3.2723,3.2812,3.32,3.3414,3.3414,3.3026,3.2879,3.2973,3.316,3.2563,3.1265,3.1536,2.9417,2.5223,2.7052,2.7952,2.8135,2.9808,3.2158,3.4736,3.4442,3.4148,3.3855,3.3534,3.1668,2.9014,2.624,2.3597,2.0961,0.0,0.0,0.0,0.0,0.0,0.0,0.0,0.0,0.9822,0.9822,0.0,0.0,0.0,0.0,0.9978,0.9978,1.0161,1.0297,1.0344,1.0351,1.0304,1.0202,1.0249,1.0256,1.0202,1.0392,1.0568,1.0717,1.0921,1.1328,1.1918,1.2216,1.2698,1.3308,1.2963,1.3112,1.3593,1.2996,1.2705,1.2718,1.3417,1.3851,1.4129,1.4631,1.5004,1.5187,1.4645,1.4224,1.3912,1.381,1.341,1.2901,1.2549,1.2121,1.1742,1.1647,1.1619,1.1728,1.2223,1.2393,1.261,1.3363,1.3892,1.4401,1.5106,1.5499,1.5839,1.6286,1.63,1.6526,1.7414,1.7614,1.8459,2.088,2.2867,2.5259,2.8777,3.107,3.2465,3.2666,3.2946,3.32,3.3387,3.2879,3.2666,3.2959,3.2706,3.2679,3.2959,3.3253,3.332,3.3133,3.3227,3.2775,3.156,3.211,3.1121,2.8722,2.8879,2.7162,2.372,2.5517,2.6872,2.7899,2.958,3.1936,3.4589,3.4295,3.4002,3.3708,3.3494,3.1668,2.9014,2.624,2.3597,2.0952,0.0,0.0,0.0,0.0,0.0,0.0,0.9836,0.9836,0.9836,0.9836,0.0,0.0,0.0,0.0,0.0,1.0304,1.0561,1.0663,1.0514,1.05,1.0493,1.0493,1.0365,1.0358,1.0487,1.0493,1.0568,1.0717,1.1016,1.1314,1.1619,1.1918,1.2454,1.3139,1.2712,1.2929,1.3614,1.36,1.3356,1.3078,1.4245,1.4292,1.3831,1.5296,1.5506,1.4997,1.4848,1.4875,1.4936,1.4645,1.4421,1.4143,1.3376,1.244,1.1626,1.1619,1.1619,1.1619,0.0,0.0,0.0,1.3091,1.3044,1.3268,1.5303,1.5343,1.5242,1.6279,1.649,1.7298,2.0031,2.0528,2.1312,2.3571,2.417,2.6179,3.1417,3.2612,3.2973,3.2973,3.324,3.3414,3.3414,3.2879,3.2666,3.2973,3.2719,3.2679,3.2973,3.3253,3.3146,3.2683,3.3327,3.2161,2.8754,2.9746,2.8862,2.5992,2.6195,2.6306,2.6391,2.617,2.7671,3.0423,3.0176,3.1652,3.4179,3.4002,3.3694,3.3414,3.3414,3.1668,2.9014,2.624,2.3588,2.0944,0.0,0.0,0.0,0.0,0.0,1.0025,1.0134,1.0154,1.0154,0.0,0.0,0.0,1.0243,1.0446,1.0683,1.09,1.09,1.0799,1.0759,1.0717,1.0609,1.0493,1.0561,1.0568,1.0493,1.0602,1.0677,1.0717,1.0914,1.1158,1.1463,1.187,1.2345,1.2854,1.2949,1.3105,1.3275,1.2949,1.2996,1.3329,1.3871,1.4292,1.4692,1.5533,1.5954,1.6083,1.6042,1.571,1.5296,1.5316,1.4577,1.3498,1.2637,1.2094,1.1748,1.1647,1.1619,1.1619,1.1619,0.0,0.0,0.0,0.0,0.0,1.3627,1.4136,1.4719,1.5547,1.5716,1.6076,1.7422,1.9229,2.1401,2.3978,2.6101,2.8634,3.2023,3.2746,3.2973,3.2973,3.324,3.3414,3.3414,3.2879,3.2746,3.3253,3.2826,3.2759,3.3267,3.3374,3.3334,3.3173,3.1554,3.0334,2.965,2.8103,2.5955,2.3322,2.5205,2.5059,2.3179,2.705,2.9376,3.0164,3.2018,3.211,3.1174,3.3081,3.3694,3.3414,3.3414,3.1668,2.9014,2.624,2.3503,2.0762,0.0,0.0,0.989,1.0107,1.0195,1.031,1.0527,1.0561,1.0582,0.0,0.0,0.0,1.0928,1.1077,1.1253,1.1423,1.1307,1.1172,1.105,1.09,1.0744,1.0595,1.0731,1.0772,1.0683,1.0772,1.0745,1.0745,1.0839,1.0975,1.1212,1.1538,1.1925,1.2359,1.2535,1.2752,1.2963,1.2576,1.2793,1.3471,1.4272,1.4665,1.4869,1.5723,1.6008,1.5995,1.6246,1.594,1.5472,1.5872,1.5052,1.3749,1.3105,1.2535,1.2047,1.1714,1.1755,1.187,1.1742,1.1755,1.1837,1.1959,0.0,0.0,1.36,1.4061,1.4638,1.5825,1.6062,1.6592,1.8151,1.9758,2.2091,2.5829,2.786,2.9845,3.2438,3.2973,3.316,3.316,3.3307,3.3414,3.3414,3.3,3.2919,3.3374,3.2986,3.2933,3.3387,3.3414,3.336,3.324,3.0843,2.9147,2.8027,2.552,2.2974,2.0365,2.2885,2.3852,2.3615,2.783,3.0442,3.1697,3.1844,3.1096,2.9656,3.0064,3.0172,3.0129,3.1252,3.0748,2.9014,2.624,2.4187,2.2235,0.0,0.0,0.9951,1.027,1.0446,1.0649,1.0907,1.0954,1.107,0.0,1.1212,1.1389,1.1857,1.1891,1.1884,1.1904,1.1762,1.1545,1.1253,1.1056,1.0826,1.0772,1.0887,1.0887,1.09,1.0887,1.088,1.088,1.0799,1.0806,1.0907,1.1104,1.1396,1.1809,1.1823,1.2135,1.2644,1.2447,1.2793,1.3587,1.4909,1.5099,1.4706,1.5832,1.5872,1.5398,1.594,1.5872,1.5628,1.6218,1.5628,1.4563,1.415,1.3417,1.2569,1.1911,1.2047,1.2338,1.1979,1.1993,1.2162,1.2372,1.2189,0.0,1.4217,1.438,1.4611,1.6246,1.6598,1.7345,1.9971,2.061,2.2442,2.7381,2.8523,2.9711,3.2643,3.3253,3.3414,3.3414,3.3414,3.3414,3.3414,3.3146,3.3093,3.3387,3.2862,3.2835,3.34,3.31,3.2881,3.263,3.0477,2.784,2.4849,2.2513,2.0046,1.765,2.008,2.2915,2.5916,2.8188,3.0997,3.3713,3.0656,2.9319,2.9014,2.6035,2.4906,2.542,2.819,2.9319,2.9014,2.6546,2.542,2.4495,0.9822,0.9856,1.0078,1.0561,1.0758,1.1002,1.1423,1.1491,1.1497,1.1525,1.1531,1.1742,1.2311,1.2271,1.2244,1.2359,1.2128,1.1898,1.1714,1.1157,1.0989,1.107,1.0995,1.1002,1.1118,1.1009,1.088,1.088,1.0799,1.086,1.1124,1.1151,1.1341,1.1667,1.1782,1.1965,1.2223,1.2651,1.3261,1.3953,1.4122,1.4536,1.512,1.5716,1.6076,1.6273,1.6395,1.6381,1.6252,1.592,1.5635,1.5221,1.4075,1.3824,1.3736,1.2651,1.2739,1.3037,1.2379,1.2305,1.2345,1.204,1.2352,0.0,1.2488,1.2847,1.339,1.398,1.4197,1.4641,1.571,1.7874,1.9789,2.0732,2.334,2.7153,3.2589,3.3374,3.3414,3.3414,3.3414,3.3414,3.3414,3.3146,3.3093,3.3387,3.1315,3.1001,3.33,3.1265,3.0117,3.0069,2.7561,2.4993,2.223,1.9631,1.8028,1.765,2.008,2.2738,2.5579,2.8109,3.0886,3.3293,3.057,2.9319,2.8913,2.3981,2.3165,2.542,2.819,2.9319,2.9217,2.871,2.7057,2.4701,0.9836,1.0005,1.0304,1.0691,1.1023,1.1348,1.187,1.1952,1.2006,1.2155,1.2244,1.24,1.2698,1.2671,1.2657,1.2725,1.2454,1.2203,1.1952,1.1487,1.1226,1.1166,1.1145,1.1136,1.1274,1.12,1.1056,1.1056,1.0833,1.0799,1.0941,1.1023,1.1416,1.2047,1.1742,1.2067,1.2834,1.2691,1.301,1.3682,1.4353,1.5072,1.5791,1.6246,1.6551,1.6754,1.6754,1.67,1.6564,1.6123,1.5723,1.5309,1.4706,1.4468,1.4197,1.3146,1.3207,1.3437,1.2617,1.2447,1.2467,1.2318,1.24,0.0,0.0,1.2956,1.3254,1.3933,1.4129,1.4299,1.4672,1.5884,1.7381,1.8737,2.0736,2.3652,2.7841,2.8958,2.9307,2.9307,3.0533,3.1365,3.1365,3.2468,3.2642,3.1454,3.004,2.9319,2.9307,2.7975,2.7261,2.7261,2.4697,2.272,2.1546,1.8642,1.7311,1.7528,2.0059,2.196,2.3408,2.7418,2.9319,2.9206,2.7873,2.6444,2.4906,2.08,1.9871,2.1518,2.5625,2.7261,2.7261,2.7261,2.6342,2.4598,0.9856,1.0066,1.0419,1.0806,1.124,1.166,1.221,1.2338,1.2461,1.2698,1.2888,1.3017,1.3044,1.3152,1.322,1.322,1.299,1.2725,1.237,1.1979,1.1687,1.1509,1.1402,1.1413,1.1599,1.1384,1.1234,1.1234,1.0867,1.0751,1.0806,1.0934,1.1457,1.2271,1.1843,1.2271,1.3295,1.2773,1.2922,1.3627,1.4869,1.5588,1.5988,1.6585,1.6809,1.6822,1.6937,1.6904,1.6734,1.6347,1.5839,1.533,1.5194,1.4977,1.457,1.3559,1.3661,1.3899,1.2969,1.2739,1.2745,1.2698,1.2501,1.2515,0.0,0.0,0.0,1.4061,1.4224,1.4224,1.4224,1.4272,1.5027,1.737,1.8409,1.9458,2.1229,2.2481,2.3653,2.4689,2.7447,2.9237,2.9137,3.1101,3.1575,2.951,2.8177,2.6819,2.5307,2.4701,2.4392,2.4392,2.227,2.0999,2.0701,1.8306,1.7154,1.7419,1.9415,2.0592,2.1207,2.5727,2.6751,2.5215,2.4598,2.3465,2.1622,1.8327,1.7293,1.8327,2.3259,2.5215,2.5215,2.583,2.5625,2.4495,0.9876,1.0066,1.0419,1.0806,1.1339,1.1898,1.2237,1.2515,1.2691,1.2725,1.2976,1.32,1.3336,1.3831,1.415,1.415,1.4116,1.3858,1.3302,1.2847,1.2583,1.2535,1.1932,1.1837,1.2366,1.1579,1.1234,1.1234,1.0867,1.0853,1.1111,1.1131,1.1274,1.1545,1.2264,1.2454,1.2291,1.3125,1.3973,1.4794,1.5086,1.4936,1.4652,1.5757,1.6185,1.6252,1.6788,1.6971,1.6849,1.6144,1.594,1.5778,1.4597,1.4903,1.5418,1.3994,1.4265,1.4808,1.3777,1.3593,1.3505,1.2718,1.2888,1.3037,1.2244,0.0,1.2535,1.2393,0.0,1.2366,1.2366,0.0,0.0,1.2888,1.3943,1.4719,1.4583,1.5495,1.8022,2.3014,2.7007,2.9055,2.8523,2.8703,2.8959,2.9237,2.4196,2.2298,2.5062,2.2855,2.1622,2.1622,2.136,2.0181,1.7843,1.7463,1.7256,1.7419,1.7438,1.8738,2.1103,2.1725,2.3156,2.5112,2.2648,2.2752,2.429,1.9149,1.8424,2.0895,2.3981,2.5215,2.5522,2.7986,2.7261,2.4804,1.0012,1.0195,1.0521,1.082,1.1298,1.1837,1.223,1.2684,1.2956,1.2874,1.3268,1.3519,1.341,1.3777,1.4053,1.4145,1.4194,1.3964,1.3438,1.3213,1.2908,1.2363,1.247,1.2352,1.2115,1.1572,1.1253,1.1234,1.0955,1.0914,1.1043,1.1212,1.1701,1.244,1.2732,1.3241,1.3865,1.3783,1.4075,1.4584,1.4645,1.4523,1.4468,1.6015,1.6605,1.6639,1.689,1.6978,1.6931,1.6612,1.6144,1.5683,1.5642,1.5371,1.5004,1.4638,1.4597,1.4516,1.3817,1.3797,1.3824,1.318,1.3214,1.3241,1.263,1.2433,1.2345,1.2223,0.0,0.0,0.0,0.0,0.0,0.0,1.3159,1.3661,1.3207,1.4122,1.5674,1.8093,2.1245,2.3966,2.5769,2.7344,2.7136,2.4724,2.1713,2.0114,2.0438,1.9357,1.8738,1.8738,1.8798,1.8335,1.7419,1.727,1.727,1.7419,1.7202,1.7685,1.8738,2.0384,2.0895,2.0488,2.0895,2.0903,2.0279,1.7908,1.7706,1.894,2.1725,2.2855,2.2958,2.4084,2.3775,2.2442,1.0206,1.0405,1.0636,1.0833,1.1355,1.183,1.2277,1.2712,1.2996,1.3017,1.3464,1.3763,1.3709,1.4007,1.4325,1.452,1.4647,1.4394,1.3937,1.3709,1.3437,1.2896,1.2887,1.2755,1.2379,1.1736,1.1366,1.1287,1.1097,1.105,1.1069,1.1355,1.1959,1.2874,1.3017,1.3702,1.4733,1.4326,1.4394,1.4787,1.4787,1.4889,1.516,1.63,1.6836,1.6978,1.6978,1.6978,1.6958,1.6788,1.6252,1.5737,1.6178,1.5683,1.4984,1.5187,1.5031,1.449,1.3342,1.3618,1.4069,1.2656,1.2834,1.3227,1.2807,1.2528,1.2338,1.2298,1.2352,0.0,0.0,0.0,1.2372,1.2433,0.0,1.3241,1.2834,1.3593,1.4204,1.4245,1.6848,1.9968,2.3458,2.4763,2.4073,2.1035,1.9371,1.8105,1.7035,1.6978,1.6978,1.6978,1.7019,1.7161,1.7419,1.727,1.727,1.7419,1.7222,1.708,1.7083,1.9044,1.8835,1.7083,1.9149,1.8843,1.6978,1.6978,1.6978,1.7188,1.9149,1.9975,2.0079,2.0791,2.1103,2.0696,1.067,1.0704,1.0765,1.0853,1.1436,1.1972,1.2427,1.2508,1.2678,1.3112,1.3437,1.3851,1.4414,1.4967,1.541,1.55,1.5882,1.5803,1.517,1.4626,1.4455,1.4862,1.3349,1.2895,1.3756,1.2488,1.1748,1.1606,1.1301,1.1307,1.1599,1.1606,1.1789,1.2135,1.3003,1.3498,1.3736,1.4577,1.5357,1.6022,1.6022,1.6374,1.6836,1.6313,1.6476,1.6978,1.6978,1.6978,1.689,1.6307,1.6185,1.6157,1.5452,1.5601,1.5947,1.5527,1.5696,1.5368,1.2284,1.3154,1.4107,1.0602,1.1446,1.299,1.2257,1.2298,1.2454,1.2318,1.2515,1.2671,1.2515,1.2488,1.2454,1.2318,1.2556,0.0,0.0,1.2589,1.2847,1.2996,1.5988,1.9333,2.2747,2.0038,1.8567,1.9896,1.686,1.5513,1.6904,1.6978,1.6978,1.6978,1.7114,1.7263,1.7419,1.727,1.727,1.7419,1.7127,1.6985,1.6978,1.7083,1.7083,1.6978,1.7083,1.7083,1.6978,1.6978,1.6978,1.6978,1.7083,1.7083,1.7496,2.0071,2.1103,2.0696,1.09,1.1111,1.1267,1.1118,1.1423,1.187,1.242,1.2678,1.3003,1.3546,1.3885,1.4285,1.4799,1.5121,1.5403,1.5573,1.5691,1.5649,1.5208,1.4756,1.457,1.4529,1.3512,1.3132,1.3539,1.2712,1.2155,1.1911,1.1809,1.1809,1.1918,1.2013,1.2277,1.2691,1.3492,1.415,1.4685,1.5092,1.5581,1.6083,1.6083,1.632,1.668,1.668,1.6802,1.6978,1.6978,1.6978,1.6951,1.6748,1.6449,1.6185,1.6327,1.5967,1.5554,1.59,1.5832,1.5015,1.2154,1.2255,1.225,0.8628,0.9587,1.1243,1.049,1.1615,1.2732,1.2481,1.2671,1.2807,1.2549,1.2583,1.2603,1.2454,1.2596,1.2657,0.0,1.2515,1.2596,1.2651,1.5699,1.7542,1.6877,1.7853,1.8191,1.7314,1.6194,1.592,1.6924,1.6978,1.6978,1.6978,1.7026,1.7121,1.727,1.7216,1.7216,1.727,1.7168,1.7073,1.6978,1.6978,1.6978,1.6978,1.6978,1.6978,1.6978,1.6978,1.6978,1.6978,1.6978,1.6978,1.7083,1.8013,1.8432,1.8222,1.1211,1.1457,1.1572,1.143,1.1742,1.2121,1.2454,1.2901,1.337,1.3858,1.4238,1.4653,1.5131,1.522,1.5418,1.5683,1.5739,1.5664,1.531,1.5029,1.4835,1.4699,1.4021,1.377,1.4027,1.3288,1.2752,1.2454,1.2298,1.2216,1.2223,1.2318,1.2576,1.2983,1.3512,1.4258,1.512,1.5323,1.5791,1.6402,1.6402,1.6517,1.67,1.6842,1.6863,1.6836,1.6944,1.6978,1.6978,1.6978,1.672,1.6469,1.6856,1.6449,1.592,1.6408,1.5555,1.3848,1.1111,1.0489,0.971,0.6327,0.7306,0.9166,0.9446,1.0742,1.2164,1.2956,1.3132,1.3268,1.3492,1.3139,1.2868,1.303,1.2827,1.2617,0.0,1.2501,1.2501,1.2501,1.4502,1.528,1.3768,1.537,1.6348,1.5945,1.5554,1.5845,1.6924,1.6978,1.6978,1.6978,1.6978,1.7046,1.7188,1.7141,1.7141,1.7195,1.7141,1.7066,1.6978,1.6978,1.6978,1.6978,1.6978,1.6978,1.6978,1.6978,1.6978,1.6978,1.6978,1.6978,1.6978,1.6978,1.6978,1.6978,1.1782,1.1742,1.1708,1.185,1.2338,1.2671,1.2535,1.3146,1.3743,1.4061,1.4489,1.4936,1.5398,1.5582,1.5684,1.5882,1.6073,1.5937,1.5458,1.5302,1.5269,1.5438,1.4848,1.4733,1.5181,1.4177,1.3505,1.3207,1.2752,1.2528,1.2522,1.2522,1.2684,1.3056,1.3125,1.3858,1.5004,1.5296,1.6022,1.6978,1.6978,1.6965,1.6931,1.6802,1.6646,1.6537,1.6856,1.6971,1.6971,1.6978,1.6978,1.6978,1.6978,1.6978,1.6978,1.6978,1.4949,1.2121,0.925,0.8066,0.689,0.3715,0.4739,0.704,0.9045,0.9862,1.0935,1.3562,1.3905,1.4048,1.514,1.4068,1.3234,1.3892,1.3139,1.2481,1.2481,1.2488,1.2494,1.2501,1.2535,1.282,1.3498,1.2868,1.3349,1.5615,1.5031,1.5276,1.6897,1.6937,1.6937,1.6978,1.6978,1.7046,1.7182,1.7046,1.7046,1.7182,1.7046,1.6978,1.6978,1.6978,1.6978,1.6978,1.6978,1.6978,1.6978,1.6978,1.6978,1.6978,1.6978,1.6978,1.6978,1.6978,1.6978,1.6978,1.1884,1.2074,1.2325,1.2474,1.2535,1.2583,1.2657,1.3214,1.3858,1.4489,1.4862,1.5282,1.5845,1.592,1.5947,1.6001,1.6049,1.6015,1.5964,1.554,1.552,1.5893,1.512,1.4889,1.5343,1.4434,1.3865,1.3668,1.322,1.2949,1.284,1.284,1.2942,1.3132,1.3397,1.4116,1.5147,1.5452,1.6123,1.6978,1.6978,1.6781,1.6503,1.668,1.6517,1.6246,1.6659,1.6809,1.6829,1.6944,1.6978,1.6978,1.6978,1.6978,1.6978,1.6978,1.4949,1.2064,0.9255,0.6863,0.4426,0.1527,0.2406,0.4735,0.7504,0.9492,1.1517,1.4349,1.493,1.4841,1.4482,1.4075,1.3593,1.3003,1.2494,1.2176,1.2176,1.2271,1.2386,1.2488,1.2996,1.3152,1.2678,1.3532,1.4319,1.4821,1.516,1.5825,1.6924,1.6347,1.6293,1.6958,1.6978,1.6998,1.7032,1.6998,1.6998,1.7032,1.6998,1.6978,1.6978,1.6978,1.6978,1.6978,1.6978,1.6978,1.6978,1.6978,1.6978,1.6978,1.6978,1.6978,1.6978,1.6978,1.6978,1.6978,1.2264,1.2528,1.282,1.2908,1.3071,1.322,1.3302,1.3715,1.4211,1.4767,1.5153,1.5417,1.5754,1.6001,1.6083,1.6083,1.6083,1.6001,1.5798,1.5737,1.573,1.5784,1.5493,1.5445,1.5696,1.5018,1.4482,1.4136,1.3682,1.3295,1.2963,1.2963,1.3003,1.3098,1.3464,1.4027,1.474,1.5438,1.6103,1.6693,1.6754,1.6666,0.0,1.6544,1.6402,1.6218,1.6469,1.6639,1.6761,1.6849,1.6924,1.6978,1.6978,1.6978,1.6978,1.6978,1.4101,1.0496,0.8911,0.5543,0.203,0.0421,0.0835,0.278,0.6669,0.8584,1.0713,1.4719,1.5486,1.5418,1.5432,1.4631,1.3627,1.2576,1.2271,1.2162,1.2162,1.2176,1.2271,1.2474,1.282,1.2847,1.2338,1.3715,1.4604,1.4516,1.497,1.5581,1.6354,1.6103,1.6252,1.6958,1.6917,1.691,1.6978,1.6849,1.6849,1.6978,1.6978,1.6978,1.6978,1.6978,1.6978,1.6978,1.6978,1.6978,1.6978,1.6978,1.6978,1.6978,1.6978,1.6978,1.6978,1.6978,1.6978,1.6978,1.2739,1.2996,1.3207,1.3227,1.3715,1.4129,1.4204,1.4455,1.4726,1.4991,1.5323,1.5599,1.5599,1.5927,1.6083,1.6083,1.6083,1.5913,1.5527,1.5866,1.5906,1.5513,1.5872,1.6083,1.6083,1.5642,1.5113,1.4509,1.4061,1.3532,1.2929,1.2949,1.2949,1.2949,1.3397,1.3838,1.4319,1.501,1.5546,1.5861,1.596,1.6071,1.6137,1.6199,1.63,1.6279,1.6279,1.6469,1.672,1.6637,1.6849,1.6978,1.6978,1.6978,1.6978,1.6978,1.2937,0.8487,0.8487,0.4356,0.0,0.0,0.0,0.1282,0.61,0.7229,0.8892,1.4571,1.5329,1.5434,1.6765,1.5357,1.3634,1.263,1.2447,1.2474,1.2596,1.2393,1.2338,1.2617,1.2644,0.0,1.2311,1.3546,0.0,0.0,1.4455,1.4848,1.5628,1.5906,1.6334,1.6965,1.6849,1.6822,1.6917,1.6693,1.6693,1.6924,1.6965,1.6978,1.6978,1.6978,1.6978,1.6978,1.6978,1.6978,1.6978,1.6978,1.6978,1.6978,1.6978,1.6978,1.6985,1.7012,1.7053,1.6981,1.2935,1.3159,1.3403,1.3526,1.3946,1.4421,1.4909,1.514,1.5276,1.5323,1.5723,1.6001,1.6001,1.6049,1.6083,1.6083,1.6083,1.6049,1.5967,1.6035,1.6049,1.5967,1.6042,1.6083,1.6083,1.5642,1.5113,1.4509,1.4061,1.3471,1.2773,1.2901,1.2895,1.2793,1.3241,1.4089,1.5013,1.3309,1.2827,1.3319,1.3243,1.3167,1.33,1.5505,1.6232,1.6123,1.6123,1.6313,1.6578,1.6707,1.6849,1.6978,1.6978,1.6978,1.6978,1.6978,1.2937,0.8487,0.8487,0.4356,0.0,0.0,0.0,0.0854,0.4267,0.4912,0.6527,1.2442,1.3401,1.3817,1.5943,1.535,1.4319,1.3526,1.3288,1.3464,1.4204,1.3648,1.3234,1.341,1.4061,1.3919,1.2433,1.3085,0.0,0.0,0.0,1.4014,1.5723,1.5079,1.5364,1.6931,1.6951,1.6829,1.6605,1.6802,1.6802,1.6605,1.6856,1.6978,1.6978,1.6978,1.6978,1.6978,1.6978,1.6978,1.6978,1.6978,1.6978,1.6978,1.6978,1.6978,1.6998,1.7154,1.7197,1.72,1.3532,1.3587,1.3729,1.4034,1.4401,1.4821,1.5343,1.5615,1.5703,1.5547,1.5716,1.5754,1.5754,1.5988,1.6083,1.6083,1.6083,1.6083,1.6083,1.6083,1.6083,1.6083,1.6083,1.6083,1.6083,1.5872,1.5391,1.4631,1.4258,1.3661,1.2847,1.284,1.2759,1.2644,1.3322,1.4116,1.4792,1.2598,1.1857,1.2206,1.2312,1.2318,1.2621,1.5201,1.6144,1.6083,1.6083,1.6225,1.6435,1.6578,1.6734,1.6876,1.6958,1.6978,1.6978,1.6978,1.3996,1.0707,1.0707,0.7637,0.4356,0.4356,0.3296,0.2981,0.5872,0.5381,0.5526,0.9841,1.1896,1.3513,1.5624,1.5296,1.4624,1.4265,1.3817,1.3831,1.4733,1.4421,1.4177,1.4407,1.4753,1.4475,1.322,1.3356,0.0,0.0,0.0,1.4089,1.5872,1.5201,1.5472,1.7039,1.6944,1.6829,1.6761,1.6748,1.6748,1.6761,1.691,1.6978,1.6978,1.6978,1.6978,1.6978,1.6978,1.6978,1.6978,1.6978,1.6978,1.6978,1.6978,1.6978,1.6992,1.7192,1.721,1.7352,1.4136,1.4095,1.415,1.4543,1.4889,1.5228,1.5588,1.5893,1.6001,1.5764,1.5633,1.5633,1.5633,1.594,1.6083,1.6083,1.6083,1.6083,1.6083,1.6083,1.6083,1.6083,1.6083,1.6083,1.6083,1.6083,1.5669,1.4835,1.4509,1.3899,1.3051,1.2868,1.28,1.2868,1.3539,1.4197,1.4644,1.1894,1.0806,1.1069,1.1221,1.1297,1.1767,1.4913,1.6083,1.6083,1.6083,1.6178,1.6334,1.6476,1.6625,1.6775,1.6931,1.6978,1.6978,1.6978,1.4949,1.2716,1.2716,1.0602,0.8487,0.8487,0.6372,0.4784,0.7022,0.5497,0.4466,0.7899,1.1388,1.4315,1.5645,1.5527,1.5167,1.4882,1.4475,1.4468,1.5242,1.5079,1.5018,1.5377,1.5038,1.4584,1.4082,0.0,0.0,0.0,0.0,1.4211,1.5764,1.5364,1.5676,1.6965,1.6748,1.6639,1.6693,1.6646,1.6707,1.6883,1.6951,1.6978,1.6978,1.6978,1.6978,1.6978,1.6978,1.6978,1.6978,1.6978,1.6978,1.6978,1.6978,1.7005,1.7039,1.7151,1.7278,1.7482,1.4441,1.457,1.4713,1.4896,1.5289,1.5588,1.5635,1.5893,1.6069,1.6042,1.6042,1.6042,1.6042,1.6062,1.6083,1.6083,1.6083,1.6083,1.6083,1.6083,1.6083,1.6083,1.6083,1.6083,1.6083,1.6083,1.5771,1.514,1.4706,1.4102,1.3356,1.3071,1.3295,1.3919,1.3865,1.4543,1.5418,1.0078,0.8074,0.8637,0.8467,0.8346,0.8955,1.4171,1.6083,1.6083,1.6083,1.6178,1.6334,1.6476,1.6625,1.6775,1.6931,1.6978,1.6978,1.6978,1.4949,1.2716,1.2716,1.0602,0.8487,0.8487,0.6372,0.4261,0.451,0.2386,0.2079,0.7688,1.3228,1.6776,1.6042,1.6463,1.6564,1.5337,1.5655,1.6178,1.653,1.5872,1.556,1.6137,1.4991,1.4285,1.4624,1.3173,0.0,0.0,1.3743,1.3756,1.5011,1.4889,1.5276,1.6361,1.6232,1.6022,1.5771,1.6544,1.6815,1.6564,1.6849,1.6978,1.6978,1.6978,1.6978,1.6978,1.6978,1.6978,1.6978,1.6978,1.6978,1.6978,1.6978,1.7087,1.7236,1.7343,1.75,1.7632,1.5038,1.4957,1.4984,1.5215,1.5371,1.5588,1.5852,1.6008,1.6083,1.6083,1.6083,1.6083,1.6083,1.6083,1.6083,1.6083,1.6083,1.6083,1.6083,1.6083,1.6083,1.6083,1.6083,1.6123,1.6218,1.613,1.5879,1.5459,1.4821,1.4217,1.3661,1.3546,1.3844,1.4482,1.4692,1.5133,1.5347,1.018,0.8082,0.8255,0.812,0.7982,0.8643,1.4065,1.6083,1.6083,1.6083,1.6178,1.6334,1.6476,1.6625,1.6775,1.6931,1.6978,1.6978,1.6978,1.6229,1.5271,1.5271,1.4423,1.3575,1.3575,1.1497,0.8989,0.7199,0.468,0.3413,0.5736,1.0837,1.5099,1.6437,1.651,1.6388,1.6388,1.6266,1.6402,1.706,1.6842,1.6707,1.6951,1.6449,1.594,1.5581,1.4407,1.3817,1.4177,1.3146,1.3261,1.5004,1.4869,1.5059,1.575,1.6327,1.6388,1.5906,1.6619,1.6917,1.6802,1.6924,1.6978,1.6978,1.6978,1.6931,1.6849,1.6937,1.6931,1.6849,1.6944,1.6978,1.6992,1.7073,1.7168,1.727,1.7445,1.746,1.7522,1.5506,1.533,1.5296,1.5599,1.5594,1.5691,1.6015,1.613,1.6164,1.6151,1.6151,1.613,1.609,1.6083,1.6083,1.6083,1.6083,1.6083,1.6083,1.6123,1.6151,1.6151,1.6191,1.6259,1.6368,1.6266,1.609,1.5839,1.5167,1.4631,1.4231,1.4102,1.4387,1.5018,1.5337,1.5635,1.5624,1.1333,0.9566,0.951,0.9385,0.9233,0.9782,1.4425,1.6151,1.6151,1.6198,1.6307,1.6456,1.6558,1.6693,1.6836,1.6944,1.6978,1.6978,1.6978,1.6978,1.6978,1.6978,1.6978,1.6978,1.6978,1.4303,1.1072,0.895,0.6444,0.4972,0.673,1.0972,1.4918,1.6903,1.6673,1.6381,1.6795,1.6612,1.6571,1.7032,1.7127,1.7154,1.7154,1.6727,1.6395,1.6286,1.5147,1.4455,1.4557,1.3539,1.358,1.5099,1.4943,1.5072,1.5655,1.6354,1.651,1.6083,1.668,1.6978,1.6978,1.6937,1.691,1.691,1.691,1.6849,1.6761,1.6958,1.6958,1.6829,1.6978,1.7039,1.7053,1.7154,1.727,1.7378,1.7486,1.7555,1.7435,1.5827,1.5696,1.5723,1.6022,1.6076,1.6076,1.6083,1.6252,1.626,1.6313,1.6307,1.6252,1.6096,1.6083,1.6083,1.6083,1.6083,1.6083,1.6083,1.6225,1.6307,1.6307,1.6442,1.6517,1.6517,1.6517,1.6442,1.63,1.5845,1.5466,1.5153,1.4713,1.4903,1.5628,1.5635,1.5961,1.6306,1.3626,1.2492,1.2482,1.2262,1.2216,1.2525,1.5284,1.6307,1.6327,1.6463,1.6612,1.6748,1.6748,1.6849,1.6978,1.6978,1.6978,1.6978,1.6978,1.6978,1.6978,1.6978,1.6978,1.6978,1.6978,1.2702,0.8513,0.8478,0.6469,0.6176,1.1896,1.5426,1.7446,1.7249,1.7182,1.6937,1.6212,1.6707,1.6978,1.6402,1.6442,1.653,1.653,1.5099,1.4808,1.6571,1.4862,1.4373,1.6151,1.5445,1.5011,1.5174,1.5045,1.5377,1.6273,1.6164,1.609,1.6083,1.668,1.6978,1.6978,1.6829,1.6651,1.6651,1.6651,1.6754,1.6768,1.706,1.7107,1.6992,1.7127,1.7188,1.7188,1.7195,1.7378,1.7616,1.7472,1.754,1.7589,1.6252,1.6185,1.6123,1.6118,1.6251,1.6289,1.6083,1.6237,1.6271,1.6157,1.6151,1.6137,1.609,1.6083,1.6083,1.6083,1.6178,1.6239,1.6239,1.6374,1.6456,1.6456,1.6497,1.6571,1.6673,1.6571,1.6551,1.6612,1.6056,1.5791,1.5784,1.5337,1.5581,1.6388,1.6185,1.6313,1.6467,1.3652,1.2502,1.2595,1.238,1.2334,1.2737,1.5322,1.6368,1.6463,1.6503,1.6619,1.6748,1.6748,1.6849,1.6978,1.6978,1.6978,1.6978,1.6978,1.6978,1.6978,1.6978,1.6978,1.7005,1.71,1.4322,1.1082,0.9098,0.8066,0.8563,1.2564,1.5613,1.7616,1.7521,1.7419,1.727,1.7032,1.7195,1.7249,1.6951,1.7039,1.7093,1.6992,1.6517,1.6422,1.6998,1.59,1.5255,1.552,1.4706,1.4448,1.5011,1.5479,1.5669,1.5547,1.6293,1.6497,1.6083,1.6775,1.7073,1.6978,1.7026,1.6998,1.691,1.691,1.6849,1.6768,1.706,1.7114,1.6998,1.7249,1.7351,1.7358,1.746,1.75,1.7494,1.7473,1.7521,1.7446,1.6456,1.6429,1.6374,1.6239,1.6298,1.6388,1.6083,1.6278,1.6353,1.6246,1.6347,1.6395,1.6341,1.6334,1.6286,1.6178,1.63,1.6388,1.6388,1.6524,1.6605,1.6605,1.6659,1.6741,1.6836,1.6741,1.6714,1.6748,1.6313,1.6151,1.6239,1.5961,1.6123,1.6659,1.653,1.6578,1.6547,1.4916,1.4197,1.429,1.406,1.4008,1.4208,1.589,1.653,1.6619,1.6734,1.6836,1.6924,1.6985,1.7026,1.706,1.706,1.7026,1.6978,1.6978,1.6197,1.5628,1.6748,1.6978,1.7012,1.7154,1.4271,1.0808,0.9169,0.8768,0.9997,1.4111,1.6382,1.7629,1.7575,1.7534,1.7487,1.7433,1.7419,1.7385,1.729,1.7358,1.7283,1.6904,1.6863,1.6863,1.6863,1.6354,1.6022,1.6022,1.5499,1.5364,1.5784,1.5716,1.5723,1.5852,1.6585,1.6829,1.6503,1.6958,1.7148,1.706,1.7039,1.6951,1.6809,1.6849,1.6815,1.6741,1.6998,1.7148,1.7102,1.7358,1.7453,1.7507,1.7548,1.7541,1.7507,1.7507,1.7507,1.7392,1.6544,1.6476,1.649,1.63,1.6339,1.6309,1.6096,1.6354,1.6551,1.6537,1.6795,1.6924,1.6781,1.6768,1.6653,1.6381,1.6469,1.6537,1.6537,1.668,1.6768,1.6768,1.6904,1.6978,1.6978,1.6978,1.691,1.6768,1.6612,1.6544,1.6551,1.653,1.653,1.6558,1.6693,1.6754,1.6775,1.6917,1.6985,1.6978,1.6815,1.6761,1.6781,1.6768,1.6768,1.6815,1.7107,1.7209,1.7229,1.7372,1.7317,1.7195,1.7195,1.6981,1.6755,1.6978,1.5074,1.3532,1.6302,1.6978,1.7012,1.6942,1.2653,0.8538,0.8785,0.8983,1.0685,1.6416,1.7629,1.7595,1.746,1.7555,1.7602,1.7473,1.7453,1.7446,1.7439,1.7446,1.7188,1.6469,1.6388,1.6381,1.6374,1.6374,1.6639,1.7277,1.7338,1.7277,1.7121,1.5811,1.5655,1.6951,1.6992,1.706,1.7188,1.7202,1.7202,1.7188,1.6904,1.6693,1.6558,1.6653,1.67,1.6714,1.7008,1.7188,1.7182,1.7338,1.7507,1.7616,1.7473,1.75,1.7602,1.7467,1.7419,1.7433,1.6822,1.6666,1.6517,1.649,1.6449,1.6381,1.6273,1.6502,1.6614,1.661,1.6863,1.6965,1.6931,1.6924,1.6897,1.6829,1.6748,1.6693,1.6693,1.6842,1.6924,1.6924,1.6958,1.6978,1.6978,1.6978,1.6965,1.6924,1.6768,1.6754,1.687,1.6632,1.6646,1.687,1.6788,1.6815,1.6931,1.6965,1.7039,1.7121,1.6856,1.6883,1.7073,1.6971,1.6992,1.7114,1.7297,1.7365,1.7372,1.7405,1.7317,1.7195,1.7195,1.5624,1.4186,1.6308,1.6531,1.6086,1.6761,1.6978,1.6479,1.4472,1.1406,0.8801,0.8725,1.0482,1.319,1.6729,1.7473,1.75,1.7582,1.7623,1.767,1.7738,1.7758,1.7724,1.7609,1.7684,1.7609,1.7209,1.7154,1.7114,1.6992,1.6985,1.6822,1.6429,1.651,1.6503,1.6354,1.6123,1.6347,1.7121,1.7141,1.7161,1.7195,1.7311,1.7311,1.7188,1.7012,1.6904,1.687,1.6897,1.691,1.691,1.707,1.725,1.724,1.7338,1.7439,1.7473,1.7433,1.7372,1.7311,1.7392,1.7419,1.7439,1.6965,1.6775,1.6578,1.653,1.6483,1.6442,1.6415,1.655,1.6654,1.6944,1.7087,1.7154,1.7087,1.7202,1.7202,1.6998,1.6904,1.6856,1.6856,1.6937,1.6978,1.6978,1.6978,1.6978,1.6978,1.6978,1.6978,1.6978,1.6897,1.6897,1.6978,1.6809,1.6822,1.6978,1.6897,1.6904,1.6985,1.7053,1.7121,1.7182,1.7093,1.7154,1.729,1.7209,1.7229,1.7317,1.7467,1.7521,1.7521,1.7521,1.7426,1.7283,1.7216,1.607,1.4964,1.6531,1.6079,1.5296,1.6643,1.6019,1.4024,0.9973,0.8901,0.8777,0.8664,1.0925,1.3809,1.6681,1.7317,1.7344,1.7426,1.7555,1.767,1.7758,1.7826,1.7826,1.7758,1.7758,1.7684,1.7446,1.7358,1.7256,1.7107,1.7093,1.6931,1.6524,1.6571,1.6605,1.6592,1.6666,1.6863,1.7182,1.7195,1.7222,1.7297,1.7311,1.7277,1.7188,1.7046,1.6978,1.6978,1.6978,1.6978,1.6978,1.709,1.709,1.7209,1.7261,1.7304,1.7419,1.7419,1.7372,1.7317,1.7467,1.7521,1.7548,1.6978,1.6842,1.668,1.6544,1.6442,1.6422,1.6537,1.6597,1.6708,1.7222,1.7372,1.7405,1.7277,1.7453,1.7439,1.708,1.7026,1.7005,1.6985,1.6998,1.7005,1.6985,1.7005,1.7005,1.6978,1.6978,1.6978,1.6978,1.6978,1.6978,1.6978,1.6978,1.6978,1.6978,1.6978,1.6992,1.7019,1.7141,1.7216,1.727,1.7378,1.7433,1.7453,1.7453,1.7453,1.7473,1.7629,1.7684,1.7684,1.765,1.7548,1.7392,1.7243,1.7093,1.6978,1.6978,1.5296,1.3862,1.6308,1.4633,1.0835,0.5478,0.6492,0.8695,0.8695,1.1124,1.4063,1.6624,1.7161,1.7168,1.7188,1.7426,1.7595,1.7521,1.7704,1.7826,1.7704,1.767,1.7582,1.7405,1.727,1.7134,1.6992,1.6978,1.6978,1.6978,1.6978,1.7032,1.7154,1.7182,1.7195,1.7195,1.7216,1.7277,1.7385,1.7236,1.7161,1.7161,1.7039,1.6978,1.6978,1.6978,1.6978,1.6978,1.6978,1.709,1.7195,1.7195,1.7254,1.7399,1.7392,1.7399,1.7439,1.7595,1.765,1.767,1.6978,1.6846,1.6634,1.6462,1.6442,1.6558,1.668,1.6902,1.7237,1.7453,1.7595,1.7602,1.7582,1.7392,1.729,1.7344,1.7236,1.7107,1.6985,1.7093,1.7107,1.6985,1.7093,1.7107,1.6985,1.6978,1.6978,1.6978,1.6978,1.6978,1.6978,1.6978,1.6978,1.6978,1.6978,1.7046,1.7161,1.7182,1.7344,1.7568,1.746,1.75,1.7616,1.7616,1.7616,1.7629,1.7772,1.7826,1.7812,1.7684,1.7548,1.7392,1.7243,1.7093,1.6978,1.6978,1.6643,1.642,1.6866,1.3148,0.8398,0.5049,0.6464,0.8617,0.8509,1.2686,1.6617,1.6934,1.7012,1.7053,1.7168,1.7338,1.7331,1.6951,1.7439,1.765,1.7012,1.7344,1.7541,1.7263,1.7209,1.7134,1.6992,1.6978,1.6978,1.6978,1.6978,1.6992,1.7012,1.7127,1.7195,1.7195,1.7317,1.7331,1.7229,1.7087,1.7012,1.7012,1.6992,1.6978,1.6978,1.6978,1.6978,1.6978,1.6978,1.6978,1.6985,1.6985,1.71,1.7283,1.7243,1.7304,1.7439,1.7595,1.765,1.767,1.6978,1.6785,1.6678,1.6563,1.6544,1.6578,1.6931,1.7028,1.7237,1.7616,1.7575,1.7494,1.7412,1.7426,1.7399,1.7304,1.7385,1.7372,1.7229,1.7277,1.7283,1.7222,1.7202,1.7127,1.6985,1.6978,1.6978,1.6978,1.706,1.7093,1.71,1.7182,1.7216,1.7216,1.7216,1.7256,1.7317,1.7405,1.7521,1.765,1.765,1.7704,1.7758,1.7758,1.7758,1.7772,1.7846,1.786,1.7826,1.7602,1.748,1.7378,1.7154,1.7032,1.6978,1.6978,1.6978,1.6341,1.3253,1.05,0.7435,0.2993,0.5343,0.8539,0.8539,1.3015,1.706,1.6992,1.6978,1.6998,1.7066,1.7202,1.7256,1.7134,1.7399,1.7534,1.727,1.7331,1.7351,1.7209,1.7127,1.7053,1.6985,1.6978,1.6978,1.6978,1.6978,1.7012,1.7087,1.7154,1.7195,1.7195,1.7263,1.7229,1.708,1.7012,1.6978,1.6978,1.6978,1.6978,1.6978,1.6978,1.7066,1.7102,1.7154,1.7168,1.7216,1.7109,1.7175,1.724,1.7317,1.7399,1.7446,1.7684,1.7758,1.7772,1.6978,1.6856,1.6754,1.6748,1.668,1.6754,1.7134,1.7127,1.7222,1.7602,1.7514,1.7365,1.7209,1.7399,1.746,1.7263,1.7494,1.7616,1.7528,1.7521,1.748,1.7372,1.7222,1.7107,1.7032,1.7032,1.7046,1.708,1.7195,1.7243,1.7249,1.7365,1.7419,1.7419,1.7419,1.7439,1.748,1.7602,1.767,1.7704,1.7826,1.786,1.786,1.786,1.786,1.786,1.786,1.786,1.7812,1.7521,1.7419,1.7372,1.7073,1.6978,1.6978,1.6978,1.6551,1.485,0.9862,0.8487,0.7111,0.1384,0.4251,0.8487,0.8487,1.2937,1.6978,1.6978,1.6978,1.6978,1.6978,1.71,1.7182,1.7168,1.7311,1.7399,1.7344,1.7256,1.7182,1.7148,1.7046,1.6978,1.6978,1.6951,1.6931,1.6931,1.6931,1.6978,1.7087,1.7121,1.7141,1.7141,1.7141,1.7087,1.6985,1.6978,1.6978,1.6978,1.6978,1.6978,1.6978,1.6978,1.71,1.721,1.7217,1.7244,1.7278,1.7298,1.7297,1.7247,1.7392,1.7507,1.7555,1.7772,1.786,1.786,1.6978,1.6971,1.6917,1.6775,1.6856,1.7005,1.7168,1.7304,1.7453,1.7629,1.7514,1.7365,1.7209,1.7209,1.727,1.7392,1.7555,1.7704,1.7826,1.7826,1.765,1.7229,1.7073,1.7053,1.7175,1.7175,1.7249,1.7392,1.7399,1.7405,1.7405,1.7412,1.7419,1.7419,1.7419,1.75,1.7629,1.765,1.7717,1.7846,1.786,1.786,1.786,1.786,1.786,1.786,1.786,1.786,1.7812,1.7521,1.7419,1.7372,1.7073,1.6978,1.6978,1.6978,1.506,1.24,0.9334,0.8487,0.7111,0.1384,0.4251,0.8487,0.8487,1.2937,1.6978,1.6978,1.6978,1.6978,1.6978,1.71,1.7019,1.6476,1.6971,1.7182,1.6503,1.6863,1.7141,1.7012,1.6985,1.6978,1.6978,1.6849,1.6768,1.6768,1.6768,1.6768,1.6781,1.6917,1.6998,1.6998,1.6998,1.6992,1.6978,1.6978,1.6978,1.6978,1.6978,1.6978,1.6978,1.6978,1.6992,1.7032,1.7163,1.7109,1.7063,1.7271,1.7352,1.7392,1.7566,1.7731,1.7826,1.786,1.786,1.786,1.6978,1.6978,1.6965,1.6904,1.6944,1.706,1.7297,1.7304,1.7331,1.7487,1.746,1.7331,1.7087,1.7222,1.7358,1.7412,1.7561,1.7704,1.7846,1.7772,1.7609,1.7344,1.7195,1.7141,1.7188,1.7107,1.7182,1.7419,1.7419,1.7467,1.7561,1.765,1.7704,1.7704,1.7704,1.7724,1.7772,1.7772,1.7812,1.786,1.786,1.786,1.786,1.786,1.786,1.786,1.786,1.786,1.7826,1.7629,1.75,1.7392,1.7209,1.7073,1.6978,1.6978,1.4949,1.2084,0.9228,0.7217,0.5311,0.3191,0.5629,0.8911,1.0707,1.4207,1.6978,1.6978,1.6978,1.6978,1.6978,1.7026,1.7019,1.6876,1.7019,1.708,1.6883,1.6978,1.7039,1.6985,1.6978,1.6978,1.6978,1.6931,1.6897,1.6897,1.6897,1.6897,1.6897,1.6951,1.6978,1.6978,1.6978,1.6978,1.6978,1.6978,1.6978,1.6978,1.709,1.7151,1.7154,1.7222,1.7304,1.7405,1.7439,1.7514,1.7514,1.748,1.748,1.7568,1.7616,1.767,1.7738,1.7826,1.786,1.786,1.6978,1.6978,1.6992,1.7039,1.7012,1.708,1.7372,1.7331,1.7304,1.7405,1.746,1.7378,1.708,1.727,1.7399,1.7351,1.7487,1.7623,1.7724,1.7589,1.746,1.7351,1.7209,1.7148,1.7188,1.71,1.7195,1.7494,1.7494,1.7568,1.7717,1.7812,1.786,1.786,1.786,1.786,1.786,1.786,1.786,1.786,1.786,1.786,1.786,1.786,1.786,1.786,1.786,1.786,1.7826,1.765,1.7507,1.7392,1.7222,1.7087,1.6992,1.7032,1.4346,1.0927,0.9045,0.5747,0.3085,0.3934,0.6372,0.9228,1.2084,1.4949,1.6978,1.6978,1.6978,1.6978,1.6978,1.6978,1.7012,1.7107,1.7046,1.7012,1.7114,1.7039,1.6978,1.6978,1.7019,1.7032,1.6985,1.6978,1.6978,1.6978,1.6937,1.6931,1.6978,1.6978,1.6978,1.6978,1.6978,1.6978,1.6978,1.6978,1.6978,1.6978,1.709,1.7114,1.7251,1.7277,1.7453,1.7582,1.7629,1.7684,1.7724,1.7718,1.767,1.7582,1.7675,1.7696,1.7717,1.7826,1.786,1.786,1.6978,1.6978,1.7026,1.7168,1.7073,1.708,1.7372,1.7419,1.7419,1.7419,1.7555,1.7534,1.7222,1.7331,1.7358,1.7209,1.7331,1.7419,1.7419,1.7277,1.7195,1.7195,1.706,1.7046,1.7188,1.7188,1.7338,1.765,1.765,1.7717,1.786,1.786,1.786,1.786,1.786,1.786,1.786,1.786,1.786,1.786,1.786,1.786,1.786,1.786,1.786,1.786,1.786,1.786,1.7812,1.7521,1.7419,1.7372,1.7073,1.6978,1.7012,1.7148,1.302,0.8504,0.8686,0.4494,0.0746,0.3509,0.6372,0.9228,1.2084,1.4949,1.6978,1.6978,1.6978,1.6978,1.6978,1.6978,1.6978,1.6978,1.6978,1.6978,1.6978,1.6978,1.6978,1.6985,1.7107,1.7141,1.6998,1.6985,1.6985,1.6985,1.6842,1.6822,1.6971,1.6978,1.6978,1.6978,1.6978,1.6978,1.6978,1.6978,1.6978,1.6978,1.6978,1.7075,1.7229,1.7209,1.7252,1.7433,1.7582,1.7561,1.7446,1.7738,1.7738,1.7589,1.7792,1.786,1.786,1.786,1.786,1.786,1.6978,1.6978,1.7026,1.7168,1.7073,1.708,1.7372,1.7331,1.7297,1.7405,1.7555,1.7534,1.7222,1.7331,1.7358,1.7209,1.7236,1.7263,1.7263,1.7216,1.7195,1.7195,1.706,1.7046,1.7188,1.7093,1.7134,1.7331,1.7331,1.7351,1.7506,1.75,1.7718,1.7834,1.7724,1.7772,1.786,1.786,1.786,1.786,1.786,1.786,1.786,1.786,1.786,1.786,1.786,1.786,1.7846,1.7758,1.7595,1.7372,1.7073,1.6978,1.7012,1.7148,1.3077,0.8573,0.87,0.5907,0.3644,0.6486,0.7852,0.9757,1.4633,1.6341,1.6978,1.6978,1.6978,1.6978,1.6978,1.6978,1.6978,1.6978,1.6978,1.6978,1.6978,1.6978,1.7019,1.7114,1.7168,1.7216,1.7283,1.729,1.729,1.729,1.7148,1.708,1.7127,1.7032,1.6978,1.6978,1.6978,1.6978,1.6978,1.709,1.709,1.709,1.7307,1.748,1.7473,1.7628,1.7696,1.7738,1.7772,1.7772,1.7738,1.7826,1.7826,1.7772,1.7846,1.786,1.786,1.786,1.786,1.788,1.6978,1.7026,1.7093,1.7175,1.7121,1.7127,1.7304,1.7304,1.7317,1.7405,1.7555,1.7555,1.7311,1.7311,1.727,1.7121,1.7107,1.7107,1.7107,1.7107,1.7107,1.7107,1.7026,1.7046,1.7188,1.7053,1.7053,1.7195,1.7195,1.7222,1.729,1.7378,1.7507,1.7766,1.765,1.7717,1.786,1.786,1.786,1.786,1.786,1.786,1.786,1.786,1.786,1.786,1.786,1.786,1.786,1.7792,1.7575,1.729,1.7053,1.6978,1.7012,1.7148,1.3103,0.8493,0.8707,0.6456,0.4947,0.7796,0.9356,1.1345,1.5914,1.6978,1.6978,1.6978,1.6978,1.6978,1.6978,1.6978,1.6978,1.6978,1.6978,1.6978,1.6978,1.6978,1.7032,1.7175,1.7243,1.7317,1.7412,1.7473,1.7487,1.7426,1.7331,1.7256,1.7195,1.706,1.6978,1.6978,1.6978,1.6978,1.6978,1.7165,1.724,1.7209,1.7394,1.7532,1.7602,1.7772,1.786,1.786,1.786,1.786,1.786,1.786,1.786,1.786,1.786,1.786,1.786,1.786,1.7901,1.7968,1.6998,1.7107,1.7195,1.7209,1.7202,1.7195,1.7209,1.7331,1.7426,1.7439,1.7561,1.7589,1.7439,1.7283,1.7134,1.6992,1.6978,1.6978,1.6978,1.6971,1.6971,1.6998,1.6971,1.7032,1.7188,1.7053,1.7039,1.7154,1.7168,1.7236,1.7358,1.7372,1.7467,1.7629,1.7629,1.7717,1.786,1.786,1.786,1.786,1.786,1.786,1.786,1.786,1.786,1.786,1.786,1.786,1.7846,1.7684,1.7446,1.7182,1.7032,1.6978,1.7005,1.6829,1.2895,0.8499,0.8389,0.6459,0.528,0.7959,1.0891,1.3691,1.6058,1.669,1.6676,1.6571,1.667,1.6663,1.6978,1.6978,1.6978,1.6978,1.6978,1.6978,1.6978,1.6978,1.7039,1.7195,1.7338,1.7433,1.746,1.7589,1.7609,1.7467,1.7433,1.7358,1.7222,1.7066,1.6978,1.6978,1.6978,1.6985,1.6998,1.7281,1.7358,1.7215,1.7379,1.7487,1.7632,1.7632,1.7749,1.786,1.786,1.786,1.786,1.786,1.786,1.786,1.786,1.786,1.786,1.788,1.7968,1.8091,1.7127,1.7168,1.7229,1.7351,1.727,1.7236,1.7351,1.7399,1.7467,1.7582,1.7629,1.7589,1.7439,1.7283,1.7134,1.6992,1.6978,1.6978,1.6978,1.687,1.6904,1.7134,1.6924,1.6924,1.7295,1.7053,1.6937,1.6842,1.6971,1.6985,1.6897,1.7019,1.7216,1.7581,1.7473,1.7616,1.786,1.786,1.786,1.786,1.786,1.786,1.786,1.786,1.786,1.786,1.786,1.786,1.7826,1.7561,1.7426,1.7324,1.7066,1.6978,1.6584,1.4467,1.1335,0.8026,0.5928,0.6487,0.7701,0.8509,1.2442,1.5773,1.4265,1.3888,1.3817,1.3711,1.3635,1.4312,1.6551,1.6978,1.6978,1.6978,1.6978,1.6978,1.6978,1.6978,1.708,1.7338,1.7399,1.7514,1.7738,1.7792,1.7812,1.7772,1.7555,1.7405,1.7372,1.7121,1.6978,1.6978,1.6978,1.7032,1.7148,1.7336,1.7438,1.7345,1.767,1.7792,1.786,1.786,1.786,1.786,1.786,1.786,1.786,1.786,1.786,1.786,1.786,1.786,1.788,1.8036,1.8091,1.8124,1.7161,1.7249,1.7304,1.7311,1.7365,1.7365,1.7229,1.7331,1.7446,1.7528,1.7473,1.7426,1.7419,1.7222,1.706,1.6985,1.6978,1.6978,1.6978,1.6904,1.6931,1.6974,1.6765,1.6856,1.7192,1.7056,1.6974,1.6863,1.6944,1.6937,1.6863,1.7012,1.7202,1.7534,1.7494,1.765,1.786,1.786,1.786,1.786,1.786,1.786,1.786,1.786,1.786,1.786,1.786,1.786,1.7812,1.7521,1.7419,1.7372,1.7073,1.6978,1.6459,1.3645,1.0742,0.7886,0.5146,0.6476,0.8593,0.8769,1.312,1.6645,1.3712,1.2971,1.2569,1.0956,1.1732,1.3143,1.4633,1.6019,1.6978,1.6978,1.6978,1.6978,1.6978,1.7039,1.7168,1.7392,1.7487,1.7616,1.7846,1.786,1.7826,1.7772,1.7548,1.7392,1.7317,1.7168,1.7053,1.6985,1.7066,1.7148,1.7222,1.7344,1.748,1.752,1.7792,1.786,1.786,1.786,1.786,1.786,1.786,1.786,1.786,1.786,1.786,1.786,1.786,1.786,1.788,1.8057,1.8199,1.8335,1.7236,1.7372,1.7419,1.729,1.748,1.7514,1.7114,1.7263,1.7419,1.7419,1.729,1.7243,1.7365,1.7161,1.7005,1.6985,1.7005,1.7005,1.6985,1.6958,1.6951,1.6761,1.6725,1.6822,1.6978,1.696,1.696,1.6978,1.6978,1.6978,1.6985,1.7127,1.7277,1.7426,1.7582,1.7717,1.786,1.7846,1.7846,1.786,1.786,1.786,1.786,1.786,1.786,1.786,1.786,1.786,1.7812,1.7521,1.7419,1.7372,1.7073,1.6978,1.6446,1.3569,1.1095,0.8583,0.5749,0.7098,0.9472,0.9577,1.3248,1.6076,1.3025,1.2266,1.1433,0.8405,0.9622,1.1575,1.251,1.4633,1.6446,1.6873,1.6978,1.6978,1.6978,1.71,1.7249,1.7405,1.7575,1.7738,1.7846,1.7846,1.7772,1.7554,1.7507,1.7365,1.7236,1.7229,1.7168,1.7032,1.7195,1.7277,1.7263,1.7358,1.7554,1.7632,1.786,1.786,1.786,1.786,1.786,1.786,1.786,1.786,1.786,1.786,1.786,1.786,1.786,1.788,1.7935,1.8111,1.8335,1.8586,1.7534,1.7602,1.7609,1.7589,1.7623,1.7582,1.7392,1.7392,1.7419,1.7419,1.729,1.7202,1.7222,1.7188,1.7114,1.6992,1.7199,1.722,1.6992,1.6967,1.6947,1.6971,1.6836,1.6718,1.6761,1.6958,1.6958,1.6978,1.6978,1.6978,1.6985,1.7233,1.7383,1.7426,1.7582,1.7717,1.786,1.7738,1.7758,1.786,1.7749,1.7749,1.786,1.786,1.786,1.786,1.786,1.786,1.7812,1.7521,1.7419,1.7372,1.7073,1.6978,1.6446,1.3569,1.2479,1.1468,0.872,1.0096,1.2408,1.2625,1.3248,1.3022,1.0108,0.9503,0.8555,0.5447,0.5081,0.6856,1.1781,1.3037,1.4101,1.6551,1.6978,1.6978,1.6978,1.71,1.7249,1.7405,1.767,1.7846,1.786,1.7758,1.767,1.765,1.7507,1.7412,1.7392,1.7392,1.7338,1.7336,1.7338,1.7465,1.759,1.7514,1.7717,1.786,1.786,1.786,1.786,1.786,1.786,1.786,1.786,1.786,1.786,1.786,1.786,1.786,1.786,1.7968,1.8145,1.8389,1.8586,1.8742,1.7602,1.765,1.765,1.765,1.765,1.7568,1.7331,1.7365,1.7392,1.7304,1.7236,1.7195,1.7195,1.7195,1.7202,1.7222,1.7283,1.7256,1.7001,1.7032,1.6992,1.6978,1.6836,1.6718,1.6866,1.6785,1.6785,1.6978,1.6978,1.6978,1.6985,1.7216,1.7358,1.7433,1.767,1.7758,1.7738,1.7684,1.7684,1.7738,1.7738,1.7738,1.7628,1.7628,1.7574,1.7629,1.7717,1.7738,1.7717,1.7595,1.7494,1.7385,1.7168,1.7046,1.6446,1.3569,1.2752,1.2142,0.9235,1.0742,1.3171,1.3171,1.33,1.254,0.9532,0.7631,0.5619,0.2515,0.3144,0.5476,0.956,1.1603,1.3667,1.667,1.71,1.7127,1.7216,1.7351,1.75,1.765,1.7772,1.786,1.786,1.7738,1.765,1.765,1.7507,1.7419,1.7419,1.7473,1.7453,1.7358,1.7446,1.754,1.782,1.7826,1.7891,1.8111,1.8168,1.808,1.7977,1.7977,1.7977,1.7977,1.7977,1.786,1.786,1.786,1.7935,1.8023,1.8011,1.8168,1.8335,1.8477,1.8687,1.8905]}]]